     2              OBSERVATION DATA    GPS                 RINEX VERSION / TYPE
teqc 2000Jul20 Karen Wendt 20030328 21:22:44UTC             PGM / RUN BY / DATE
                                                            COMMENT
L2: 1 -> 1; 150 -> 5; 250 -> 9                              COMMENT
L2: 1 -> 1; 150 -> 5; 250 -> 9                              COMMENT
L2: 1 -> 1; 150 -> 5; 250 -> 9                              COMMENT
L2: 1 -> 1; 150 -> 5; 250 -> 9                              COMMENT
L2: 1 -> 1; 150 -> 5; 250 -> 9                              COMMENT
L2: 1 -> 1; 150 -> 5; 250 -> 9                              COMMENT
L2: 1 -> 1; 150 -> 5; 250 -> 9                              COMMENT
L2: 1 -> 1; 150 -> 5; 250 -> 9                              COMMENT
L2: 1 -> 1; 150 -> 5; 250 -> 9                              COMMENT
L2: 1 -> 1; 150 -> 5; 250 -> 9                              COMMENT
L2: 1 -> 1; 150 -> 5; 250 -> 9                              COMMENT
L2: 1 -> 1; 150 -> 5; 250 -> 9                              COMMENT
L2: 1 -> 1; 150 -> 5; 250 -> 9                              COMMENT
L2: 1 -> 1; 150 -> 5; 250 -> 9                              COMMENT
Original Marker Name: benc Bench_1932_USC&GS                COMMENT
Campaign Name: USGS 2003                                    COMMENT
4-Character Station Name: BENC                              COMMENT
6-Character Antenna Code: DMRCHT                            COMMENT
Vertical Measurement Point: BCR                             COMMENT
Vertical Offset to Rinex Ref. Point: 0.0348                 COMMENT
Radial Measurement Point: ECF                               COMMENT
Radial Offset to Rinex Ref. Point: 0.1897                   COMMENT
Antenna Height from Field Measurement: 1.3930 m             COMMENT
Additional Antenna Identification Info.:                    COMMENT
Turborogue and Ashtech Choke Ring                           COMMENT
Original XYZ: -2618974.3237 -4472695.7092 3705695.0029      COMMENT
New XYZ position is based on association with SCEC monument COMMENT
E1F1E5C7+0011. Position of that monument is believed to be  COMMENT
valid to within 1 m horizontally; vertical accuracy         COMMENT
should be no worse than 3-times this value.                 COMMENT
                                                            COMMENT
Revised Rinex header created by UCSD GPS archive for        COMMENT
GSAC on 11-Jul-2003 (2003:192) 16:17:54 GMT                 COMMENT
For assistance contact dagnew@ucsd.edu                      COMMENT
or anderson@python.ucsd.edu                                 COMMENT
                                                            COMMENT
BENCH 1932                                                  MARKER NAME
JMS US GEOLOGICAL SURVEY                                    OBSERVER / AGENCY
LP019992804 ASHTECH Z-XII3 CD00                             REC # / TYPE / VERS
CR620022601 DORNE-MARGOL. TYPE T                            ANT # / TYPE
 -2618992.0308 -4472668.0828  3705683.6220                  APPROX POSITION XYZ
        1.3452        0.0000        0.0000                  ANTENNA: DELTA H/E/N
     1     1     0                                          WAVELENGTH FACT L1/2
     5    C1    L1    L2    P1    P2                        # / TYPES OF OBSERV
    30                                                      INTERVAL
  2003     3    21     0     1    0.000000                  TIME OF FIRST OBS
  2003     3    21    23    59   30.000000                  TIME OF LAST OBS
                                                            END OF HEADER
 03  3 21  0  1  0.0000000  0 11G 6G14G15G17G23G 3G16G29G 2G26G18
  22954014.282   -13088788.11149 -10177592.23546  22954013.917    22954019.462
  24516279.214    -2280881.28649  -1754905.95245  24516278.474    24516285.199
  20642055.385   -26935227.69749 -20974832.88748  20642054.473    20642058.491
  20862856.515   -23278461.03049 -17849645.27947  20862855.696    20862859.959
  20764312.085   -20647613.61049 -16064451.25748  20764311.336    20764315.028
  23356246.280   -11891680.59749  -9225997.22046  23356245.778    23356250.648
  23665443.823   -10138114.76049  -7886618.02345  23665443.305    23665447.848
  24538423.166    -1213168.77249   -924856.37545  24538422.884    24538428.326
  24685923.120    -7227503.41349  -5615949.84045  24685922.231    24685928.728
  22640415.622   -14011266.12149 -10900268.69546  22640415.486    22640419.938
  20382145.816   -26320035.34049 -19892560.17148  20382145.145    20382147.620
 03  3 21  0  1 30.0000000  0 11G 6G14G15G17G23G 3G16G29G 2G26G18
  22973321.703   -12987327.22149 -10098531.86746  22973321.310    22973326.819
  24494705.840    -2394249.05549  -1843244.22945  24494705.149    24494711.780
  20635829.336   -26967945.71749 -21000327.43548  20635828.413    20635832.420
  20865895.368   -23262491.79349 -17837201.71347  20865894.542    20865898.799
  20769403.665   -20620857.11049 -16043602.02948  20769402.931    20769406.604
  23339676.894   -11978753.12649  -9293845.87446  23339676.399    23339681.281
  23674687.929   -10089536.81249  -7848765.09245  23674687.375    23674691.982
  24554522.858    -1128564.76549   -858931.24245  24554522.517    24554527.932
  24687492.315    -7219256.25649  -5609523.49845  24687491.565    24687498.204
  22654121.238   -13939242.64849 -10844146.52946  22654121.088    22654125.549
  20380722.663   -26327513.95249 -19898387.65048  20380722.020    20380724.478
 03  3 21  0  2  0.0000000  0 11G 6G14G15G17G23G 3G16G29G 2G26G18
  22992672.386   -12885639.07549 -10019294.41246  22992671.994    22992677.515
  24473133.290    -2507612.59049  -1931579.20745  24473132.454    24473139.184
  20629645.588   -27000441.45649 -21025648.77548  20629644.674    20629648.666
  20868979.536   -23246284.41649 -17824572.58347  20868978.717    20868982.961
  20774553.140   -20593796.61349 -16022515.92148  20774552.397    20774556.047
  23323162.621   -12065535.94949  -9361468.77746  23323162.121    23323167.039
  23684001.606   -10040593.28749  -7810627.29645  23684001.027    23684005.586
  24570679.689    -1043660.04649   -792771.78445  24570679.452    24570684.829
  24689137.352    -7210613.27349  -5602788.71145  24689136.346    24689142.820
  22667923.387   -13866712.00049 -10787629.16746  22667923.243    22667927.664
  20379374.843   -26334596.82849 -19903906.75748  20379374.183    20379376.632
 03  3 21  0  2 30.0000000  0 11G 6G14G15G17G23G 3G16G29G 2G26G18
  23012065.914   -12783725.77849  -9939881.51246  23012065.578    23012071.026
  24451562.070    -2620968.90349  -2019908.57645  24451561.137    24451568.039
  20623504.369   -27032713.66249 -21050795.93048  20623503.446    20623507.448
  20872109.175   -23229837.89749 -17811757.11247  20872108.360    20872112.596
  20779760.138   -20566433.56549 -16001194.06248  20779759.412    20779763.066
  23306703.976   -12152026.51849  -9428863.96346  23306703.475    23306708.370
  23693384.340    -9991286.58049  -7772206.51245  23693383.802    23693388.391
  24586893.446     -958456.83349   -726379.71245  24586893.298    24586898.614
  24690857.522    -7201575.34849  -5595746.17145  24690856.176    24690862.661
  22681821.587   -13793676.64549 -10730718.51846  22681821.412    22681825.803
  20378102.166   -26341284.80049 -19909118.15348  20378101.504    20378103.937
 03  3 21  0  3  0.0000000  0 11G 6G14G15G17G23G 3G16G29G 2G26G18
  23031501.889   -12681589.61649  -9860294.96946  23031501.513    23031507.013
  24429992.723    -2734315.54949  -2108230.40545  24429991.779    24429998.599
  20617405.822   -27064761.68149 -21075768.39248  20617404.908    20617408.918
  20875284.431   -23213151.76249 -17798754.92247  20875283.612    20875287.882
  20785024.382   -20538769.77549 -15979637.85548  20785023.648    20785027.280
  23290301.418   -12238222.30249  -9496029.44446  23290300.910    23290305.788
  23702835.760    -9941619.15849  -7733504.64845  23702835.248    23702839.802
  24603163.492     -872957.61649   -659756.99745  24603163.264    24603168.780
  24692651.917    -7192143.80449  -5588396.92145  24692650.933    24692657.392
  22695815.359   -13720138.98049 -10673416.47546  22695815.214    22695819.563
  20376904.415   -26347578.87749 -19914022.61748  20376903.763    20376906.181
 03  3 21  0  3 30.0000000  0 11G 6G14G15G17G23G 3G16G29G 2G26G18
  23050979.884   -12579232.30749  -9780536.08446  23050979.519    23050985.037
  24408425.796    -2847649.38349  -2196542.24845  24408425.029    24408431.875
  20611350.178   -27096584.26549 -21100565.19348  20611349.270    20611353.261
  20878505.547   -23196224.71849 -17785565.01547  20878504.732    20878509.016
  20790345.657   -20510806.32749 -15957848.15448  20790344.924    20790348.564
  23273955.551   -12324120.12449  -9562962.73746  23273955.016    23273959.918
  23712355.359    -9891593.50549  -7694523.63045  23712354.828    23712359.420
  24619489.439     -787164.55449   -592905.32745  24619489.282    24619494.719
  24694521.252    -7182319.29349  -5580741.47145  24694520.550    24694526.758
  22709904.282   -13646101.39449 -10615724.87446  22709904.190    22709908.488
  20375781.586   -26353479.36349 -19918620.38848  20375780.930    20375783.318
 03  3 21  0  4  0.0000000  0 11G 6G14G15G17G23G 3G16G29G 2G26G18
  23070499.384   -12476656.98049  -9700607.32646  23070498.996    23070504.565
  24386861.770    -2960968.44149  -2284842.60045  24386860.938    24386867.764
  20605337.482   -27128181.11049 -21125186.09248  20605336.582    20605340.554
  20881772.465   -23179056.91149 -17772187.50347  20881771.670    20881775.919
  20795723.470   -20482545.70749 -15935826.88848  20795722.711    20795726.379
  23257666.730   -12409718.32349  -9629662.57146  23257666.193    23257671.088
  23721942.515    -9841212.86449  -7655266.00045  23721941.951    23721946.566
  24635870.739     -701080.64349   -525827.01945  24635870.322    24635875.850
  24696465.442    -7172103.73349  -5572781.30745  24696464.474    24696470.752
  22724087.697   -13571567.04049 -10557646.19446  22724087.592    22724091.948
  20374733.343   -26358987.96049 -19922912.79248  20374732.676    20374735.061
 03  3 21  0  4 30.0000000  0 11G 6G14G15G17G23G 3G16G29G 2G26G18
  23090059.989   -12373865.65749  -9620510.27246  23090059.594    23090065.170
  24365301.002    -3074269.96749  -2373129.28945  24365300.294    24365306.969
  20599367.935   -27159551.30049 -21149630.38048  20599367.045    20599370.986
  20885085.384   -23161647.38449 -17758621.64247  20885084.577    20885088.828
  20801157.528   -20453989.34349 -15913575.17448  20801156.789    20801160.461
  23241435.427   -12495014.33649  -9696126.93746  23241434.899    23241439.715
  23731596.710    -9790479.61549  -7615733.61445  23731596.188    23731600.800
  24652306.929     -614708.34149   -458524.00045  24652306.613    24652312.093
  24698483.730    -7161498.16249  -5564517.22145  24698482.676    24698488.993
  22738365.199   -13496538.52349 -10499182.44746  22738365.067    22738369.460
  20373759.476   -26364105.54249 -19926900.51348  20373758.820    20373761.208
 03  3 21  0  5  0.0000000  0 11G 6G14G15G17G23G 3G16G29G 2G26G18
  23109661.270   -12270860.47349  -9540246.56746  23109660.844    23109666.523
  24343744.103    -3187551.36149  -2461400.29945  24343743.308    24343750.128
  20593441.680   -27190693.86749 -21173897.29948  20593440.768    20593444.711
  20888444.448   -23143995.37149 -17744866.82347  20888443.651    20888447.893
  20806647.590   -20425139.01049 -15891094.38848  20806646.848    20806650.539
  23225262.035   -12580005.86849  -9762354.03946  23225261.516    23225266.268
  23741317.587    -9739396.27149  -7575928.42745  23741316.978    23741321.678
  24668797.576     -528049.81049   -390997.93145  24668797.267    24668802.727
  24700575.803    -7150503.91149  -5555950.28645  24700574.768    24700581.190
  22752736.262   -13421018.25549 -10440335.51246  22752736.158    22752740.527
  20372859.877   -26368833.06849 -19930584.28248  20372859.213    20372861.628
 03  3 21  0  5 30.0000000  0 11G 6G14G15G17G23G 3G16G29G 2G26G18
  23129302.755   -12167643.95449  -9459818.19346  23129302.307    23129308.076
  24322191.590    -3300809.89149  -2549653.48045  24322190.738    24322197.530
  20587558.920   -27221607.82549 -21197986.09148  20587558.020    20587561.951
  20891849.774   -23126100.37249 -17730922.67247  20891848.974    20891853.211
  20812193.199   -20395996.55849 -15868385.97748  20812192.439    20812196.137
  23209147.055   -12664690.34849  -9828341.88546  23209146.532    23209151.293
  23751104.452    -9687965.73349  -7535852.69445  23751103.863    23751108.501
  24685342.205     -441107.77449   -323250.94245  24685341.874    24685347.328
  24702741.640    -7139122.36549  -5547081.56845  24702740.718    24702747.082
  22767200.316   -13345009.28649 -10381107.77246  22767200.195    22767204.616
  20372034.278   -26373171.55449 -19933964.90748  20372033.605    20372036.043
 03  3 21  0  6  0.0000000  0 11G 6G14G15G17G23G 3G16G29G 2G26G18
  23148984.180   -12064217.64849  -9379226.35846  23148983.752    23148989.609
  24300644.034    -3414042.27749  -2637886.29145  24300643.235    24300649.866
  20581719.992   -27252291.64449 -21221895.54948  20581719.092    20581723.022
  20895301.516   -23107961.36249 -17716788.38547  20895300.714    20895304.948
  20817794.207   -20366562.89049 -15845450.64848  20817793.471    20817797.171
  23193091.125   -12749064.49149  -9894087.90946  23193090.608    23193095.342
  23760956.989    -9636190.19649  -7495508.13445  23760956.462    23760960.985
  24701940.345     -353884.14049   -255284.52745  24701940.013    24701945.547
  24704981.043    -7127354.15149  -5537911.52545  24704980.098    24704986.448
  22781757.002   -13268513.50549 -10321500.70846  22781756.858    22781761.262
  20371282.661   -26377121.27749 -19937042.60348  20371282.005    20371284.461
 03  3 21  0  6 30.0000000  0 11G 6G14G15G17G23G 3G16G29G 2G26G18
  23168704.836   -11960585.04549  -9298473.76046  23168704.320    23168710.287
  24279101.829    -3527246.85049  -2726097.43045  24279101.048    24279107.537
  20575924.813   -27282745.47349 -21245625.79048  20575923.924    20575927.849
  20898799.651   -23089578.53649 -17702464.10647  20898798.853    20898803.090
  20823450.163   -20336840.81449 -15822290.59348  20823449.416    20823453.132
  23177094.471   -12833127.00849  -9959591.10346  23177093.982    23177098.697
  23770874.568    -9584073.10549  -7454897.42445  23770874.096    23770878.671
  24718591.488     -266382.29749   -187101.34545  24718591.165    24718596.708
  24707293.570    -7115201.59849  -5528442.00545  24707292.658    24707299.052
  22796405.614   -13191534.54049 -10261517.12646  22796405.497    22796409.928
  20370604.633   -26380684.21849 -19939818.91148  20370603.994    20370606.440
 03  3 21  0  7  0.0000000  0 11G 6G14G15G17G23G 3G16G29G 2G26G18
  23188464.458   -11856747.71649  -9217561.63846  23188463.950    23188469.975
  24257565.463    -3640420.29449  -2814284.32645  24257564.817    24257571.054
  20570173.667   -27312967.87549 -21269175.69748  20570172.766    20570176.695
  20902344.513   -23070950.24349 -17687948.55547  20902343.718    20902347.951
  20829160.759   -20306831.28249 -15798906.54548  20829160.013    20829163.716
  23161157.762   -12916874.80949 -10024849.06946  23161157.284    23161161.963
  23780856.736    -9531616.74549  -7414022.36145  23780856.266    23780860.806
  24735295.163     -178604.25349   -118702.94045  24735294.842    24735300.325
  24709679.202    -7102665.21849  -5518673.40545  24709678.186    24709684.749
  22811145.805   -13114074.43949 -10201158.63646  22811145.683    22811150.137
  20370000.163   -26383860.69049 -19942294.07948  20369999.513    20370001.948
 03  3 21  0  7 30.0000000  0 11G 6G14G15G17G23G 3G16G29G 2G26G18
  23208262.663   -11752707.76249  -9136491.62746  23208262.204    23208268.199
  24236035.597    -3753559.85149  -2902444.80845  24236034.873    24236041.061
  20564466.827   -27342957.58349 -21292544.28848  20564465.927    20564469.848
  20905936.144   -23052076.14449 -17673241.47447  20905935.332    20905939.589
  20834925.812   -20276535.73249 -15775299.62548  20834925.081    20834928.776
  23145281.450   -13000305.19649 -10089859.70046  23145280.945    23145285.641
  23790902.991    -9478823.38949  -7372884.69945  23790902.531    23790907.064
  24752051.016      -90552.02149    -50090.89845  24752050.602    24752056.314
  24712137.687    -7089746.33749  -5508606.74045  24712136.564    24712142.973
  22825977.076   -13036135.69749 -10140427.18446  22825976.975    22825981.423
  20369469.098   -26386651.53349 -19944468.75548  20369468.460    20369470.888
 03  3 21  0  8  0.0000000  0 11G 6G14G15G17G23G 3G16G29G 2G26G18
  23228098.884   -11648468.05949  -9055265.96646  23228098.472    23228104.434
  24214512.533    -3866663.55449  -2990577.35845  24214511.812    24214517.892
  20558804.317   -27372714.14849 -21315731.20448  20558803.417    20558807.328
  20909574.626   -23032955.78149 -17658342.49647  20909573.813    20909578.095
  20840744.832   -20245956.59749 -15751471.72748  20840744.093    20840747.805
  23129465.848   -13083416.52549 -10154621.71646  23129465.334    23129469.955
  23801012.730    -9425696.59149  -7331487.21445  23801012.252    23801016.792
  24768858.471       -2228.75949     18732.34145  24768858.056    24768863.791
  24714668.272    -7076447.06349  -5498243.67845  24714667.342    24714673.747
  22840898.808   -12957721.62949 -10079325.34846  22840898.685    22840903.185
  20369011.084   -26389058.54149 -19946344.33348  20369010.437    20369012.855
 03  3 21  0  8 30.0000000  0 11G 6G14G15G17G23G 3G16G29G 2G26G18
  23247972.726   -11544030.54849  -8973886.16946  23247972.323    23247978.281
  24192996.951    -3979728.06549  -3078679.36445  24192996.258    24193002.181
  20553186.484   -27402236.06249 -21338735.27448  20553185.566    20553189.489
  20913260.242   -23013587.78349 -17643250.55247  20913259.432    20913263.693
  20846617.538   -20215095.14049 -15727423.83248  20846616.808    20846620.531
  23113711.547   -13166205.81149 -10219132.79046  23113711.041    23113715.603
  23811185.545    -9372238.44849  -7289831.54345  23811185.010    23811189.564
  24785717.007       86363.41149     87765.14445  24785716.576    24785722.322
  24717271.243    -7062767.93649  -5487584.59445  24717270.340    24717276.721
  22855910.550   -12878834.63049 -10017854.99346  22855910.383    22855914.940
  20368625.977   -26391082.16749 -19947921.17348  20368625.324    20368627.749
 03  3 21  0  9  0.0000000  0 11G 6G14G15G17G23G 3G16G29G 2G26G18
  23267883.731   -11439397.72749  -8892354.19346  23267883.389    23267889.293
  24171489.251    -4092750.96049  -3166748.95245  24171488.577    24171494.428
  20547613.379   -27431522.89949 -21361556.17248  20547612.464    20547616.394
  20916993.029   -22993971.92449 -17627965.47547  20916992.218    20916996.461
  20852543.645   -20183953.26649 -15703157.43448  20852542.905    20852546.647
  23098018.935   -13248670.78449 -10283391.15546  23098018.444    23098022.990
  23821420.808    -9318452.00249  -7247920.04145  23821420.234    23821424.801
  24802626.237      175221.89549    157005.43345  24802625.819    24802631.723
  24719946.404    -7048710.69949  -5476630.91145  24719945.308    24719951.860
  22871011.730   -12799477.49949  -9956018.30346  22871011.588    22871016.157
  20368313.624   -26392723.54449 -19949200.16148  20368312.970    20368315.405
 03  3 21  0  9 30.0000000  0 11G 6G14G15G17G23G 3G16G29G 2G26G18
  23287831.501   -11334571.89549  -8810671.81246  23287831.150    23287837.085
  24149990.031    -4205729.48349  -3254783.96045  24149989.290    24149995.023
  20542085.270   -27460573.26449 -21384192.80848  20542084.341    20542088.268
  20920773.052   -22974107.86949 -17612486.99547  20920772.231    20920776.464
  20858522.806   -20152532.56249 -15678673.76748  20858522.076    20858525.797
  23082388.567   -13330808.86549 -10347394.80046  23082388.025    23082392.606
  23831718.010    -9264339.92349  -7205754.80345  23831717.466    23831721.997
  24819585.667      264344.10149    226451.24645  24819585.378    24819591.165
  24722693.128    -7034276.61449  -5465383.58945  24722692.096    24722698.572
  22886201.902   -12719652.90149  -9893817.36046  22886201.772    22886206.283
  20368073.860   -26393983.39349 -19950181.85348  20368073.206    20368075.646
 03  3 21  0 10  0.0000000  0 11G 6G14G15G17G23G 3G16G29G 2G26G18
  23307815.578   -11229555.24649  -8728840.74046  23307815.196    23307821.169
  24128499.766    -4318661.03449  -3342782.37345  24128499.077    24128504.686
  20536602.290   -27489386.33349 -21406644.53248  20536601.367    20536605.307
  20924600.553   -22953994.32249 -17596814.10447  20924599.721    20924603.951
  20864554.741   -20120834.42349 -15653973.91848  20864554.010    20864557.725
  23066820.884   -13412617.37949 -10411141.64746  23066820.353    23066824.854
  23842076.625    -9209904.60349  -7163337.68145  23842076.125    23842080.727
  24836594.850      353727.92549    296100.90545  24836594.533    24836600.472
  24725511.848    -7019467.00849  -5453843.64345  24725510.455    24725516.747
  22901480.475   -12639363.58049  -9831254.29946  22901480.365    22901484.877
  20367906.492   -26394862.85649 -19950867.13848  20367905.842    20367908.286
 03  3 21  0 10 30.0000000  0 11G 6G14G15G17G23G 3G16G29G 2G26G18
  23327835.461   -11124350.55149  -8646863.14946  23327835.075    23327841.034
  24107018.869    -4431543.29149  -3430742.36945  24107018.169    24107023.774
  20531164.511   -27517961.82849 -21428911.13648  20531163.601    20531167.527
  20928475.531   -22933631.18349 -17580946.72947  20928474.718    20928478.959
  20870639.031   -20088861.17349 -15629059.69748  20870638.308    20870642.036
  23051316.252   -13494094.54349 -10474630.28246  23051315.757    23051320.231
  23852496.144    -9155149.55849  -7120671.44345  23852495.611    23852500.261
  24853653.215      443370.06749    365951.86645  24853652.894    24853658.819
  24728400.952    -7004284.03149  -5442012.73245  24728399.576    24728406.026
  22916846.901   -12558612.76449  -9768331.61846  22916846.767    22916851.344
  20367811.179   -26395363.66149 -19951257.36748  20367810.528    20367812.984
 03  3 21  0 11  0.0000000  0 11G 6G14G15G17G23G 3G16G29G 2G26G18
  23347890.838   -11018959.07549  -8564739.99345  23347890.482    23347896.391
  24085548.051    -4544372.43749  -3518660.99145  24085547.343    24085552.747
  20525772.434   -27546297.42749 -21450990.80148  20525771.534    20525775.428
  20932398.372   -22913016.49849 -17564883.33447  20932397.543    20932401.798
  20876775.607   -20056613.31849 -15603931.49547  20876774.889    20876778.603
  23035875.348   -13575236.67149 -10537857.86146  23035874.885    23035879.332
  23862976.220    -9100076.42349  -7077757.33245  23862975.705    23862980.357
  24870760.517      533269.24549    436003.11745  24870760.261    24870766.213
  24731360.639    -6988727.84449  -5429891.03645  24731359.726    24731366.259
  22932300.785   -12477402.09549  -9705050.60746  22932300.659    22932305.178
  20367788.003   -26395485.46349 -19951352.26848  20367787.354    20367789.805
 03  3 21  0 11 30.0000000  0 11G 6G14G15G17G23G 3G16G29G 2G26G18
  23367981.168   -10913383.79449  -8482473.62845  23367980.834    23367986.733
  24064087.721    -4657146.39049  -3606536.60245  24064086.990    24064092.282
  20520426.090   -27574392.71649 -21472883.22048  20520425.165    20520429.058
  20936369.037   -22892150.52849 -17548624.14247  20936368.214    20936372.486
  20882963.983   -20024093.22649 -15578591.16447  20882963.275    20882966.976
  23020498.554   -13656042.07549 -10600823.05446  23020498.081    23020502.577
  23873516.273    -9044688.52249  -7034597.96645  23873515.669    23873520.339
  24887916.162      623422.40849    506252.25045  24887915.725    24887921.885
  24734391.211    -6972800.68949  -5417480.29045  24734390.547    24734397.197
  22947841.508   -12395735.16649  -9641414.07946  22947841.370    22947845.883
  20367836.598   -26395230.03049 -19951153.22148  20367835.941    20367838.410
 03  3 21  0 12  0.0000000  0 10G 6G14G15G17G23G 3G16G 2G26G18
  23388106.183   -10807626.42149  -8400065.35445  23388105.861    23388111.799
  24042638.549    -4769861.78349  -3694366.61145  24042637.858    24042643.140
  20515125.745   -27602246.31449 -21494587.30248  20515124.815    20515128.688
  20940387.769   -22871031.99949 -17532168.14147  20940386.932    20940391.232
  20889203.940   -19991301.95849 -15553039.52047  20889203.226    20889206.902
  23005186.347   -13736507.91949 -10663523.64446  23005185.871    23005190.389
  23884115.750    -8988988.20349  -6991195.13645  23884115.111    23884119.752
  24737492.509    -6956503.19049  -5404780.93645  24737491.921    24737498.442
  22963468.696   -12313613.95449  -9577423.56646  22963468.561    22963473.027
  20367956.827   -26394598.13249 -19950660.81848  20367956.177    20367958.630
 03  3 21  0 12 30.0000000  0 10G 6G14G15G17G23G 3G16G 2G26G18
  23408265.431   -10701689.20649  -8317516.95445  23408265.135    23408271.023
  24021201.044    -4882516.09049  -3782149.02145  24021200.369    24021205.592
  20509871.541   -27629857.16249 -21516102.23648  20509870.632    20509874.489
  20944454.752   -22849659.80849 -17515514.48947  20944453.916    20944458.251
  20895495.200   -19958241.28349 -15527277.95347  20895494.480    20895498.159
  22989939.243   -13816631.62449 -10725957.65446  22989938.766    22989943.333
  23894774.181    -8932978.24149  -6947551.02245  23894773.512    23894778.148
  24740664.041    -6939836.93949  -5391794.26845  24740663.435    24740670.007
  22979181.759   -12231041.33749  -9513081.31746  22979181.653    22979186.099
  20368148.559   -26393590.45449 -19949875.60648  20368147.895    20368150.350
 03  3 21  0 13  0.0000000  0 10G 6G14G15G17G23G 3G16G 2G26G18
  23428458.053   -10595576.69549  -8234831.96545  23428457.766    23428463.652
  23999775.280    -4995108.50049  -3869883.21545  23999774.623    23999779.831
  20504663.392   -27657226.27949 -21537428.80848  20504662.468    20504666.322
  20948569.704   -22828035.39049 -17498664.29747  20948568.887    20948573.200
  20901836.948   -19924914.97149 -15501309.40047  20901836.230    20901839.943
  22974757.379   -13896412.66249 -10788124.63946  22974756.897    22974761.460
  23905490.552    -8876663.35449  -6903669.31745  23905489.883    23905494.444
  24743905.055    -6922805.47049  -5378523.00345  24743904.391    24743911.086
  22994979.756   -12148022.26049  -9448391.16546  22994979.646    22994984.107
  20368411.201   -26392210.20749 -19948800.08248  20368410.553    20368412.983
 03  3 21  0 13 30.0000000  0 10G 6G14G15G17G23G 3G16G 2G26G18
  23448683.888   -10489289.52249  -8152010.87745  23448683.574    23448689.521
  23978362.054    -5107634.71149  -3957565.82445  23978361.416    23978366.466
  20499501.727   -27684351.01249 -21558564.95248  20499500.811    20499504.661
  20952733.085   -22806156.77549 -17481616.02247  20952732.275    20952736.570
  20908229.270   -19891323.10549 -15475133.91847  20908228.545    20908232.289
  22959641.448   -13975847.36949 -10850021.76946  22959640.972    22959645.443
  23916264.789    -8820044.77849  -6859550.97045  23916264.095    23916268.642
  24747215.755    -6905408.53149  -5364966.96245  24747214.980    24747221.427
  23010862.559   -12064557.99049  -9383354.11046  23010862.441    23010866.937
  20368744.784   -26390457.07349 -19947433.99548  20368744.142    20368746.576
 03  3 21  0 14  0.0000000  0 10G 6G14G15G17G23G 3G16G 2G26G18
  23468942.399   -10382830.74349  -8069056.07145  23468942.049    23468948.041
  23956961.839    -5220092.80749  -4045195.36945  23956961.101    23956966.173
  20494386.596   -27711231.08049 -21579510.44148  20494385.662    20494389.528
  20956944.893   -22784023.77449 -17464369.52447  20956944.070    20956948.381
  20914671.654   -19857468.10449 -15448753.39447  20914670.935    20914674.692
  22944591.801   -14054933.71149 -10911647.43546  22944591.320    22944595.745
  23927096.102    -8763125.95549  -6815198.65145  23927095.417    23927099.869
  24750595.440    -6887648.46949  -5351127.91945  24750594.650    24750601.002
  23026829.405   -11980651.94749  -9317972.81146  23026829.238    23026833.812
  20369149.101   -26388332.58949 -19945778.53948  20369148.452    20369150.873
 03  3 21  0 14 30.0000000  0 10G 6G14G15G17G23G 3G16G 2G26G18
  23489233.271   -10276202.11349  -7985968.92145  23489232.842    23489238.908
  23935575.216    -5332479.36949  -4132769.17345  23935574.477    23935579.629
  20489318.302   -27737865.01949 -21600264.14548  20489317.371    20489321.251
  20961205.258   -22761635.20949 -17446923.89147  20961204.440    20961208.771
  20921163.951   -19823350.86949 -15422168.53547  20921163.220    20921166.973
  22929609.053   -14133668.43149 -10972999.11346  22929608.522    22929612.977
  23937984.095    -8705909.11649  -6770614.10445  23937983.399    23937987.883
  24754043.949    -6869526.19749  -5337006.66645  24754043.402    24754049.533
  23042879.842   -11896306.36349  -9252249.02546  23042879.656    23042884.281
  20369623.957   -26385837.19349 -19943834.06748  20369623.303    20369625.708
 03  3 21  0 15  0.0000000  0 10G 6G14G15G17G23G 3G16G 2G26G18
  23509555.817   -10169406.63649  -7902751.75645  23509555.413    23509561.450
  23914202.668    -5444792.27749  -4220285.59445  23914201.972    23914206.954
  20484296.957   -27764252.28249 -21620825.63748  20484296.027    20484299.919
  20965514.353   -22738990.74349 -17429278.85347  20965513.537    20965517.870
  20927705.708   -19788973.71249 -15395381.14047  20927704.961    20927708.717
  22914693.524   -14212049.75049 -11034075.42046  22914693.028    22914697.460
  23948928.160    -8648397.52549  -6725799.89345  23948927.523    23948932.047
  24757560.955    -6851043.89949  -5322604.86945  24757560.388    24757566.626
  23059013.310   -11811524.50949  -9186185.27745  23059013.078    23059017.676
  20370169.094   -26382972.56149 -19941601.87248  20370168.426    20370170.823
 03  3 21  0 15 30.0000000  0 10G 6G14G15G17G23G 3G16G 2G26G18
  23529909.735   -10062446.32749  -7819406.16645  23529909.383    23529915.440
  23892844.673    -5557028.54149  -4307742.28245  23892844.038    23892848.898
  20479322.794   -27790391.52649 -21641193.86748  20479321.851    20479325.762
  20969872.239   -22716089.93949 -17411434.07447  20969871.430    20969875.756
  20934296.680   -19754337.97349 -15368392.25247  20934295.948    20934299.698
  22899845.725   -14290075.29249 -11094874.48746  22899845.217    22899849.684
  23959927.697    -8590594.03849  -6680758.24745  23959927.088    23959931.720
  24761146.275    -6832203.04849  -5307923.67945  24761145.556    24761151.828
  23075229.336   -11726309.05549  -9119783.66045  23075229.121    23075233.698
  20370784.279   -26379739.58649 -19939082.65948  20370783.630    20370786.006
 03  3 21  0 16  0.0000000  0 10G 6G14G15G17G23G 3G16G 2G26G18
  23550294.689    -9955322.97849  -7735933.52645  23550294.439    23550300.435
  23871501.878    -5669184.95949  -4395136.75245  23871501.334    23871506.153
  20474396.131   -27816281.22149 -21661367.64548  20474395.201    20474399.105
  20974279.197   -22692931.22749 -17393388.32647  20974278.379    20974282.692
  20940936.610   -19719444.98849 -15341202.91347  20940935.852    20940939.590
  22885066.131   -14367742.28849 -11155394.17146  22885065.648    22885070.093
  23970982.453    -8532500.85849  -6635490.86045  23970981.844    23970986.523
  24764799.611    -6813004.81449  -5292964.03645  24764798.937    24764805.098
  23091527.364   -11640662.59549  -9053046.20045  23091527.079    23091531.708
  20371469.451   -26376139.09649 -19936277.07448  20371468.786    20371471.167
 03  3 21  0 16 30.0000000  0 10G 6G14G15G17G23G 3G16G 2G26G18
  23570710.103    -9848039.51549  -7652336.13045  23570709.847    23570715.922
  23850174.771    -5781259.31249  -4482467.28045  23850174.078    23850179.035
  20469517.021   -27841921.07849 -21681346.74648  20469516.089    20469519.983
  20978735.290   -22669514.39549 -17375141.45147  20978734.474    20978738.763
  20947625.046   -19684297.00049 -15313814.87347  20947624.301    20947628.045
  22870355.171   -14445048.67449 -11215632.86946  22870354.703    22870359.152
  23982091.654    -8474121.70349  -6590000.63045  23982091.034    23982095.746
  24768520.550    -6793451.09849  -5277727.39345  24768519.931    24768526.099
  23107906.784   -11554588.42749  -8985975.45845  23107906.559    23107911.125
  20372224.240   -26372172.50149 -19933186.21848  20372223.583    20372225.965
 03  3 21  0 17  0.0000000  0 10G 6G14G15G17G23G 3G16G 2G26G18
  23591155.512    -9740598.35449  -7568615.86545  23591155.252    23591161.367
  23828863.727    -5893248.69449  -4569731.59445  23828863.072    23828868.070
  20464685.704   -27867309.85049 -21701130.18948  20464684.774    20464688.644
  20983240.589   -22645838.93449 -17356693.04147  20983239.745    20983244.070
  20954361.672   -19648895.56249 -15286229.33547  20954360.928    20954364.725
  22855713.324   -14521992.01549 -11275588.67546  22855712.799    22855717.268
  23993254.859    -8415458.98749  -6544289.44045  23993254.176    23993258.838
  24772308.887    -6773543.55349  -5262215.03945  24772308.228    24772314.392
  23124367.022   -11468089.37949  -8918573.63645  23124366.844    23124371.332
  20373048.485   -26367841.02249 -19929811.02848  20373047.833    20373050.226
 03  3 21  0 17 30.0000000  0 10G 6G14G15G17G23G 3G16G 2G26G18
  23611630.723    -9633000.98749  -7484773.86245  23611630.398    23611636.630
  23807569.533    -6005149.77549  -4656927.09545  23807568.803    23807573.869
  20459902.473   -27892445.80649 -21720716.63848  20459901.555    20459905.414
  20987795.453   -22621903.03749 -17338041.70047  20987794.612    20987798.934
  20961146.366   -19613241.71649 -15258447.11947  20961145.611    20961149.438
  22841141.181   -14598569.17649 -11335259.14646  22841140.667    22841145.115
  24004471.559    -8356515.01749  -6498359.10545  24004470.891    24004475.481
  24776164.362    -6753282.66549  -5246427.32645  24776163.709    24776170.002
  23140907.707   -11381167.64449  -8850842.45245  23140907.523    23140912.055
  20373942.095   -26363145.06249 -19926151.83348  20373941.444    20373943.851
 03  3 21  0 18  0.0000000  0 10G 6G14G15G17G23G 3G16G 2G26G18
  23632134.949    -9525250.92949  -7400812.88645  23632134.633    23632140.836
  23786292.447    -6116961.33749  -4744052.85545  23786291.703    23786296.651
  20455167.348   -27917329.11649 -21740106.22248  20455166.433    20455170.266
  20992399.632   -22597707.82549 -17319188.29247  20992398.825    20992403.124
  20967978.606   -19577338.12749 -15230470.29547  20967977.881    20967981.697
  22826638.913   -14674778.87849 -11394643.28446  22826638.387    22826642.847
  24015741.042    -8297293.65249  -6452212.59545  24015740.450    24015745.099
  24780086.582    -6732671.44749  -5230366.63845  24780085.884    24780092.085
  23157528.051   -11293827.24149  -8782785.02745  23157527.827    23157532.406
  20374904.626   -26358086.97049 -19922210.44948  20374903.968    20374906.372
 03  3 21  0 18 30.0000000  0 10G 6G14G15G17G23G 3G16G 2G26G18
  23652667.882    -9417350.04649  -7316734.38845  23652667.609    23652673.862
  23765033.060    -6228679.86549  -4831106.11045  23765032.351    23765037.202
  20450480.600   -27941958.24549 -21759297.73848  20450479.668    20450483.489
  20997053.484   -22573251.80449 -17300131.65947  20997052.673    20997056.946
  20974858.113   -19541186.00849 -15202299.81547  20974857.378    20974861.186
  22812207.108   -14750618.26049 -11453738.85546  22812206.588    22812211.032
  24027062.824    -8237797.37549  -6405851.90245  24027062.221    24027066.848
  24784075.215    -6711711.16249  -5214033.96945  24784074.512    24784080.795
  23174227.588   -11206070.55949  -8714403.24245  23174227.396    23174231.951
  20375935.913   -26352667.32049 -19917987.34748  20375935.284    20375937.671
 03  3 21  0 19  0.0000000  0 10G 6G14G15G17G23G 3G16G 2G26G18
  23673229.084    -9309300.78849  -7232540.26645  23673228.855    23673235.118
  23743791.923    -6340302.36149  -4918084.54945  23743791.205    23743796.090
  20445842.395   -27966332.13149 -21778290.36148  20445841.488    20445845.285
  21001757.124   -22548534.06249 -17280871.08847  21001756.327    21001760.582
  20981784.608   -19504787.12949 -15173937.05647  20981783.883    20981787.703
  22797846.260   -14826084.91149 -11512544.00346  22797845.720    22797850.151
  24038436.355    -8178029.03449  -6359279.18745  24038435.796    24038440.459
  24788129.925    -6690403.58149  -5197430.65945  24788129.115    24788135.588
  23191005.827   -11117900.60549  -8645699.42645  23191005.651    23191010.206
  20377035.882   -26346887.11749 -19913483.28748  20377035.222    20377037.633
 03  3 21  0 19 30.0000000  0 10G 6G14G15G17G23G 3G16G 2G26G18
  23693818.066    -9201105.47849  -7148232.34645  23693817.821    23693824.004
  23722569.506    -6451826.24049  -5004986.13545  23722568.847    23722573.770
  20441252.925   -27990449.81749 -21797083.35148  20441252.006    20441255.824
  21006510.750   -22523553.80249 -17261405.95647  21006509.936    21006514.181
  20988757.781   -19468143.01649 -15145383.20347  20988757.046    20988760.859
  22783556.798   -14901176.57949 -11571056.94646  22783556.272    22783560.639
  24049861.108    -8117991.37849  -6312496.62545  24049860.568    24049865.245
  24792250.428    -6668750.19449  -5180557.90545  24792249.762    24792256.150
  23207862.145   -11029320.15849  -8576675.73745  23207861.971    23207866.556
  20378204.145   -26340747.78249 -19908699.38448  20378203.493    20378205.887
 03  3 21  0 20  0.0000000  0 10G 6G14G15G17G23G 3G16G 2G26G18
  23714434.420    -9092766.56149  -7063812.52145  23714434.139    23714440.347
  23701366.375    -6563249.06349  -5091808.99145  23701365.656    23701370.614
  20436712.394   -28014310.46949 -21815676.05548  20436711.479    20436715.298
  21011314.405   -22498310.55749 -17241735.89947  21011313.590    21011317.827
  20995777.204   -19431255.71949 -15116639.85347  20995776.456    20995780.256
  22769339.080   -14975891.03149 -11629275.96246  22769338.555    22769342.899
  24061336.557    -8057687.65649  -6265506.73445  24061335.973    24061340.622
  24796436.346    -6646752.86749  -5163417.10345  24796435.675    24796442.052
  23224796.021   -10940332.25749  -8507334.55345  23224795.838    23224800.486
  20379440.533   -26334250.42349 -19903636.50148  20379439.877    20379442.263
 03  3 21  0 20 30.0000000  0 10G 6G14G15G17G23G 3G16G 2G26G18
  23735077.544    -8984286.57449  -6979282.78045  23735077.238    23735083.499
  23680182.958    -6674568.10249  -5178550.96345  23680182.162    23680187.190
  20432220.964   -28037912.97749 -21834067.61048  20432220.068    20432223.863
  21016168.171   -22472803.86049 -17221860.56047  21016167.350    21016171.562
  21002842.596   -19394126.79949 -15087708.23147  21002841.865    21002845.666
  22755193.548   -15050226.11549 -11687199.36146  22755192.998    22755197.391
  24072862.128    -7997120.68249  -6218311.70245  24072861.525    24072866.185
  24800687.409    -6624413.58749  -5146009.87145  24800686.683    24800693.101
  23241806.811   -10850940.15449  -8437678.40445  23241806.632    23241811.273
  20380744.819   -26327396.32949 -19898295.64648  20380744.164    20380746.544
 03  3 21  0 21  0.0000000  0 10G 6G14G15G17G23G 3G16G 2G26G18
  23755747.135    -8875667.64049  -6894644.75845  23755746.848    23755753.126
  23659019.784    -6785780.41449  -5265209.77645  23659019.051    23659023.940
  20427778.877   -28061256.31149 -21852257.20648  20427777.974    20427781.773
  21021072.279   -22447032.63649 -17201779.09047  21021071.455    21021075.654
  21009953.705   -19356757.73549 -15058589.48447  21009952.962    21009956.771
  22741120.676   -15124179.18149 -11744825.08446  22741120.140    22741124.528
  24084437.180    -7936293.47749  -6170913.90745  24084436.471    24084441.272
  24805003.178    -6601733.90249  -5128337.38345  24805002.444    24805008.790
  23258893.967   -10761146.52249  -8367709.38245  23258893.813    23258898.443
  20382116.824   -26320186.42149 -19892677.52848  20382116.165    20382118.544
 03  3 21  0 21 30.0000000  0 10G 6G14G15G17G23G 3G16G 2G26G18
  23776442.740    -8766911.90349  -6809900.12845  23776442.452    23776448.679
  23637877.579    -6896882.93349  -5351783.04445  23637876.889    23637881.759
  20423386.431   -28084338.81349 -21870243.56048  20423385.524    20423389.287
  21026026.752   -22420996.52149 -17181491.21447  21026025.925    21026030.140
  21017110.251   -19319149.83349 -15029284.62647  21017109.508    21017113.305
  22727121.031   -15197747.71149 -11802151.17346  22727120.502    22727124.859
  24096061.312    -7875208.58349  -6123315.30345  24096060.674    24096065.396
  24809383.502    -6578715.11949  -5110400.66545  24809382.762    24809389.170
  23276057.139   -10670953.84249  -8297429.41845  23276056.981    23276061.598
  20383556.321   -26312621.75549 -19886782.97948  20383555.668    20383558.062
 03  3 21  0 22  0.0000000  0 10G 6G14G15G17G23G 3G16G 2G26G18
  23797163.902    -8658021.99149  -6725050.95745  23797163.556    23797169.825
  23616756.687    -7007873.03049  -5438268.71145  23616756.050    23616760.852
  20419043.727   -28107159.89249 -21888026.21348  20419042.811    20419046.591
  21031031.791   -22394694.89149 -17160996.44847  21031030.980    21031035.224
  21024311.943   -19281304.97049 -14999795.12847  21024311.202    21024314.971
  22713195.019   -15270929.11249 -11859175.59446  22713194.502    22713198.831
  24107733.960    -7813868.85849  -6075518.12345  24107733.203    24107737.992
  24813828.056    -6555359.18149  -5092201.24745  24813827.245    24813833.637
  23293295.588   -10580365.40649  -8226841.07145  23293295.377    23293300.051
  20385063.115   -26304703.53349 -19880612.93248  20385062.455    20385064.860
 03  3 21  0 22 30.0000000  0 10G 6G14G15G17G23G 3G16G 2G26G18
  23817910.105    -8549000.43649  -6640099.19545  23817909.755    23817916.091
  23595657.791    -7118748.10849  -5524664.75145  23595657.166    23595661.882
  20414750.970   -28129718.50749 -21905604.34548  20414750.053    20414753.814
  21036087.530   -22368126.59949 -17140293.89247  21036086.710    21036090.973
  21031558.339   -19243224.87649 -14970122.33047  21031557.596    21031561.370
  22699343.072   -15343721.45049 -11915896.86446  22699342.542    22699346.846
  24119454.457    -7752277.24949  -6027524.70145  24119453.819    24119458.483
  24818336.354    -6531668.17549  -5073740.75145  24818335.573    24818341.830
  23310608.729   -10489384.36949  -8155946.79545  23310608.531    23310613.226
  20386636.982   -26296432.73249 -19874168.14848  20386636.325    20386638.720
 03  3 21  0 23  0.0000000  0 10G 6G14G15G17G23G 3G16G 2G26G18
  23838680.848    -8439849.95649  -6555046.97745  23838680.465    23838686.832
  23574581.147    -7229505.85249  -5610969.37345  23574580.568    23574585.249
  20410508.291   -28152014.03449 -21922977.47248  20410507.360    20410511.115
  21041194.092   -22341291.53049 -17119383.45347  21041193.275    21041197.558
  21038849.068   -19204911.78549 -14940267.97447  21038848.338    21038852.087
  22685565.474   -15416122.94149 -11972313.57546  22685564.950    22685569.244
  24131222.191    -7690437.36149  -5979337.80845  24131221.602    24131226.329
  24822908.055    -6507644.14249  -5055020.74745  24822907.289    24822913.413
  23327995.963   -10398014.12049  -8084749.23845  23327995.784    23328000.553
  20388277.564   -26287811.37949 -19867450.20348  20388276.910    20388279.285
 03  3 21  0 23 30.0000000  0  9G 6G14G15G17G23G 3G16G26G18
  23859476.370    -8330569.49249  -6469893.47645  23859476.018    23859482.310
  23553528.043    -7340140.33849  -5697177.95545  23553527.413    23553532.073
  20406316.486   -28174042.11349 -21940142.19748  20406315.562    20406319.318
  21046352.076   -22314186.13849 -17098262.38247  21046351.254    21046355.542
  21046184.476   -19166364.05849 -14910230.78647  21046183.750    21046187.484
  22671863.326   -15488127.96749 -12028421.35146  22671862.816    22671867.122
  24143037.262    -7628348.82649  -5930957.14945  24143036.643    24143041.308
  23345457.312   -10306254.22449  -8013248.06745  23345457.126    23345461.886
  20389985.241   -26278837.49149 -19860457.55448  20389984.597    20389986.932
 03  3 21  0 24  0.0000000  0  9G 6G14G15G17G23G 3G16G26G18
  23880295.599    -8221164.12849  -6384642.65245  23880295.226    23880301.570
  23532498.411    -7450651.36249  -5783290.32445  23532497.741    23532502.432
  20402175.291   -28195804.14349 -21957099.61048  20402174.359    20402178.146
  21051561.132   -22286812.41749 -17076932.22047  21051560.318    21051564.609
  21053563.748   -19127585.72549 -14880013.90347  21053563.032    21053566.745
  22658236.625   -15559736.78949 -12084220.39046  22658236.099    22658240.394
  24154898.676    -7566016.97449  -5882386.89145  24154898.112    24154902.755
  23362991.769   -10214110.19249  -7941447.56445  23362991.568    23362996.379
  20391759.375   -26269514.49749 -19853192.87648  20391758.709    20391761.038
 03  3 21  0 24 30.0000000  0  9G 6G14G15G17G23G 3G16G26G18
  23901137.836    -8111637.96849  -6299297.70145  23901137.397    23901143.771
  23511492.546    -7561037.67849  -5869305.53645  23511491.983    23511496.516
  20398084.600   -28217300.94149 -21973850.35148  20398083.690    20398087.466
  21056821.067   -22259171.33649 -17055393.72247  21056820.257    21056824.561
  21060986.261   -19088580.31949 -14849620.08647  21060985.533    21060989.227
  22644685.407   -15630948.84849 -12139710.26446  22644684.851    22644689.136
  24166805.376    -7503446.59649  -5833630.77545  24166804.869    24166809.428
  23380598.425   -10121586.74449  -7869351.40945  23380598.239    23380603.033
  20393599.284   -26259845.62349 -19845658.68748  20393598.625    20393600.950
 03  3 21  0 25  0.0000000  0  9G 6G14G15G17G23G 3G16G26G18
  23922002.713    -8001992.73249  -6213859.95845  23922002.323    23922008.786
  23490510.934    -7671296.17449  -5955221.13745  23490510.388    23490514.867
  20394044.681   -28238530.75049 -21990393.04548  20394043.757    20394047.540
  21062132.189   -22231261.14149 -17033645.52847  21062131.380    21062135.704
  21068451.752   -19049348.83349 -14819050.09847  21068451.015    21068454.714
  22631210.218   -15701761.12449 -12194888.62046  22631209.680    22631213.939
  24178756.978    -7440639.91849  -5784690.53345  24178756.456    24178761.059
  23398276.835   -10028686.24549  -7796961.46045  23398276.670    23398281.471
  20395504.879   -26249831.62649 -19837855.57148  20395504.226    20395506.541
 03  3 21  0 25 30.0000000  0  9G 6G14G15G17G23G 3G16G26G18
  23942889.927    -7892229.94149  -6128330.61945  23942889.522    23942895.994
  23469554.400    -7781422.96249  -6041034.11945  23469553.766    23469558.287
  20390055.898   -28259491.78549 -22006726.30648  20390054.979    20390058.769
  21067494.873   -22203080.14049 -17011686.31347  21067494.057    21067498.367
  21075960.128   -19009892.07749 -14788304.57447  21075959.407    21075963.097
  22617811.717   -15772170.67949 -12249753.16046  22617811.195    22617815.450
  24190753.192    -7377599.13049  -5735567.86645  24190752.620    24190757.313
  23416026.573    -9935410.83949  -7724279.36445  23416026.392    23416031.178
  20397476.169   -26239472.48549 -19829783.50748  20397475.512    20397477.817
 03  3 21  0 26  0.0000000  0  9G 6G14G15G17G23G 3G16G26G18
  23963798.947    -7782352.73149  -6042712.12245  23963798.497    23963805.078
  23448623.313    -7891416.35049  -6126743.13345  23448622.647    23448627.172
  20386118.355   -28280183.55349 -22022849.75448  20386117.445    20386121.214
  21072908.932   -22174629.21449 -16989516.77547  21072908.109    21072912.418
  21083510.922   -18970212.31349 -14757385.28147  21083510.190    21083513.905
  22604490.151   -15842175.90949 -12304302.65646  22604489.627    22604493.834
  24202793.344    -7314327.93249  -5686265.65745  24202792.766    24202797.483
  23433846.942    -9841764.26249  -7651308.05645  23433846.785    23433851.551
  20399512.785   -26228770.16949 -19821444.04048  20399512.122    20399514.434
 03  3 21  0 26 30.0000000  0  9G 6G14G15G17G23G 3G16G26G18
  23984729.319    -7672362.98449  -5957005.92745  23984728.838    23984735.539
  23427718.275    -8001272.87749  -6212345.51445  23427717.629    23427721.977
  20382232.409   -28300604.37549 -22038762.07148  20382231.495    20382235.267
  21078374.644   -22145906.76249 -16967135.65347  21078373.825    21078378.135
  21091103.978   -18930310.62949 -14726293.06647  21091103.243    21091106.966
  22591246.098   -15911773.82149 -12358534.75146  22591245.556    22591249.748
  24214876.949    -7250828.57949  -5636785.66445  24214876.340    24214881.110
  23451737.443    -9747749.11449  -7578049.53645  23451737.300    23451742.123
  20401614.504   -26217725.42749 -19812837.74548  20401613.857    20401616.149
 03  3 21  0 27  0.0000000  0  9G 6G14G15G17G23G 3G16G26G18
  24005680.676    -7562263.36049  -5871214.12645  24005680.243    24005686.911
  23406839.691    -8110990.10749  -6297839.35545  23406839.033    23406843.361
  20378398.156   -28320753.40549 -22054462.60748  20378397.259    20378401.031
  21083892.077   -22116912.43649 -16944542.68347  21083891.256    21083895.538
  21098738.868   -18890188.99949 -14695029.46547  21098738.128    21098741.878
  22578079.893   -15980962.53849 -12412448.00846  22578079.361    22578083.513
  24227003.382    -7187104.38549  -5587130.47345  24227002.775    24227007.470
  23469697.529    -9653368.45149  -7504506.21645  23469697.307    23469702.194
  20403781.121   -26206339.90949 -19803965.91248  20403780.467    20403782.747
 03  3 21  0 27 30.0000000  0  9G 6G14G15G17G23G 3G16G26G18
  24026652.500    -7452055.96849  -5785338.34545  24026652.104    24026658.839
  23385988.224    -8220565.05949  -6383222.33545  23385987.558    23385991.894
  20374615.848   -28340629.41549 -22069950.39748  20374614.948    20374618.746
  21089461.506   -22087645.09549 -16921736.96347  21089460.680    21089464.949
  21106415.385   -18849848.78049 -14663595.52847  21106414.643    21106418.372
  22564991.963   -16049739.86349 -12466040.69146  22564991.431    22564995.573
  24239171.922    -7123158.17249  -5537302.28045  24239171.381    24239176.036
  23487726.592    -9558625.28649  -7430680.41245  23487726.356    23487731.114
  20406012.404   -26194614.45449 -19794829.18948  20406011.752    20406014.032
 03  3 21  0 28  0.0000000  0  9G 6G14G15G17G23G 3G16G26G18
  24047644.489    -7341742.80649  -5699380.14445  24047644.142    24047650.862
  23365164.430    -8329994.59849  -6468492.01345  23365163.753    23365168.076
  20370885.809   -28360230.97249 -22085224.33248  20370884.890    20370888.699
  21095082.991   -22058103.91149 -16898717.86847  21095082.169    21095086.428
  21114133.239   -18809291.29849 -14631992.30047  21114132.510    21114136.188
  22551982.907   -16118102.84849 -12519310.51246  22551982.377    22551986.518
  24251382.249    -7058992.41249  -5487303.01445  24251381.678    24251386.474
  23505824.158    -9463522.10149  -7356574.08145  23505824.027    23505828.717
  20408308.238   -26182549.84649 -19785428.19948  20408307.603    20408309.856
 03  3 21  0 28 30.0000000  0  9G 6G14G15G17G23G 3G16G26G18
  24068656.048    -7231326.94249  -5613341.90645  24068655.646    24068662.479
  23344368.708    -8439276.45949  -6553646.61145  23344368.080    23344372.268
  20367208.066   -28379557.51249 -22100283.96448  20367207.156    20367210.952
  21100756.666   -22028288.58849 -16875485.15647  21100755.851    21100760.120
  21121891.999   -18768518.74649 -14600221.48647  21121891.239    21121894.946
  22539052.938   -16186049.94049 -12572256.26346  22539052.429    22539056.539
  24263633.726    -6994610.82849  -5437135.57745  24263633.076    24263637.842
  23523989.590    -9368062.41449  -7282189.95045  23523989.471    23523994.165
  20410668.202   -26170148.31349 -19775764.66648  20410667.549    20410669.789
 03  3 21  0 29  0.0000000  0  9G 6G14G15G17G23G 3G16G26G18
  24089686.797    -7120810.27149  -5527225.13745  24089686.367    24089693.149
  23323601.746    -8548407.40249  -6638683.61445  23323601.127    23323605.271
  20363582.963   -28398607.66749 -22115128.22748  20363582.065    20363585.856
  21106482.657   -21998198.41149 -16852038.26847  21106481.817    21106486.096
  21129691.441   -18727532.24149 -14568283.94947  21129690.709    21129694.418
  22526202.682   -16253578.35549 -12624875.77046  22526202.185    22526206.310
  24275925.837    -6930015.68249  -5386801.72745  24275925.207    24275929.902
  23542222.352    -9272248.90249  -7207530.12045  23542222.199    23542226.910
  20413092.157   -26157410.26949 -19765838.91448  20413091.501    20413093.740
 03  3 21  0 29 30.0000000  0  9G 6G14G15G17G23G 3G16G26G18
  24110736.201    -7010195.23149  -5441031.70545  24110735.805    24110742.536
  23302863.916    -8657385.23149  -6723601.31045  23302863.234    23302867.414
  20360010.597   -28417380.53549 -22129756.42548  20360009.679    20360013.480
  21112261.019   -21967832.98049 -16828376.89847  21112260.186    21112264.468
  21137531.280   -18686333.63949 -14536181.14447  21137530.522    21137534.244
  22513432.482   -16320686.22349 -12677167.57546  22513431.985    22513436.112
  24288257.868    -6865210.45049  -5336304.16445  24288257.219    24288261.985
  23560521.771    -9176084.91249  -7132597.18345  23560521.600    23560526.319
  20415579.843   -26144337.36449 -19755652.22948  20415579.189    20415581.429
 03  3 21  0 30  0.0000000  0  9G 6G14G15G17G23G 3G16G26G18
  24131803.858    -6899484.38449  -5354763.60745  24131803.450    24131810.237
  23282155.771    -8766206.93349  -6808397.34345  23282155.090    23282159.252
  20356491.194   -28435875.10649 -22144167.77048  20356490.275    20356494.087
  21118091.925   -21937191.38149 -16804500.33847  21118091.100    21118095.385
  21145411.200   -18644924.37449 -14503914.19047  21145410.457    21145414.179
  22500742.705   -16387371.29849 -12729129.94446  22500742.220    22500746.361
  24300629.365    -6800197.81049  -5285644.99145  24300628.735    24300633.514
  23578887.354    -9079573.23849  -7057393.33145  23578887.166    23578891.832
  20418131.030   -26130930.66149 -19745205.44748  20418130.382    20418132.633
 03  3 21  0 30 30.0000000  0  9G 6G14G15G17G23G 3G16G26G18
  24152889.237    -6788680.15349  -5268422.76445  24152888.933    24152895.611
  23261477.911    -8874869.55449  -6893069.41245  23261477.175    23261481.344
  20353024.970   -28454090.24949 -22158361.38048  20353024.045    20353027.860
  21123975.488   -21906273.09949 -16780408.17947  21123974.657    21123978.962
  21153330.898   -18603306.22649 -14471484.47147  21153330.144    21153333.872
  22488133.744   -16453631.57649 -12780761.29346  22488133.280    22488137.431
  24313039.724    -6734980.91149  -5234826.66545  24313039.134    24313043.888
  23597318.544    -8982716.91749  -6981920.91045  23597318.386    23597322.983
  20420745.492   -26117191.63749 -19734499.71248  20420744.833    20420747.087
 03  3 21  0 31  0.0000000  0  9G 6G14G15G17G23G 3G16G26G18
  24173991.925    -6677785.22749  -5182011.24045  24173991.624    24173998.438
  23240830.656    -8983371.16049  -6977616.01046  23240829.928    23240834.088
  20349612.072   -28472025.02349 -22172336.52048  20349611.157    20349614.958
  21129911.757   -21875077.86849 -16756100.21847  21129910.927    21129915.222
  21161289.943   -18561481.09249 -14438893.46147  21161289.204    21161292.935
  22475606.004   -16519465.19849 -12832060.18546  22475605.522    22475609.668
  24325488.334    -6669563.15949  -5183851.83545  24325487.845    24325492.515
  23615814.655    -8885519.52049  -6906182.71545  23615814.522    23615819.040
  20423422.914   -26103121.66249 -19723536.09448  20423422.249    20423424.514
 03  3 21  0 31 30.0000000  0  9G 6G14G15G17G23G 3G16G26G18
  24195111.562    -6566801.23849  -5095530.32845  24195111.243    24195118.139
  23220214.801    -9091707.91749  -7062034.16946  23220214.110    23220218.257
  20346252.849   -28489677.73849 -22186091.87248  20346251.933    20346255.738
  21135901.039   -21843604.11849 -16731575.22447  21135900.201    21135904.489
  21169288.231   -18519449.85349 -14406141.85347  21169287.487    21169291.187
  22463160.004   -16584869.24949 -12883024.35346  22463159.518    22463163.642
  24337974.787    -6603946.50849  -5132722.00845  24337974.281    24337979.048
  23634375.263    -8787983.22949  -6830180.44745  23634375.103    23634379.482
  20426163.187   -26088721.50049 -19712315.18648  20426162.532    20426164.773
 03  3 21  0 32  0.0000000  0  9G 6G14G15G17G23G 3G16G26G18
  24216247.675    -6455730.67549  -5008981.95145  24216247.331    24216254.242
  23199630.759    -9199877.30949  -7146321.90646  23199630.031    23199634.214
  20342947.509   -28507047.29849 -22199626.58548  20342946.601    20342950.422
  21141943.364   -21811851.47349 -16706832.91947  21141942.528    21141946.814
  21177325.438   -18477214.34349 -14373231.07247  21177324.673    21177328.371
  22450796.135   -16649841.75049 -12933652.24346  22450795.648    22450799.760
  24350498.434    -6538134.62449  -5081440.05245  24350497.971    24350502.579
  23652999.755    -8690111.20849  -6753916.58745  23652999.569    23653004.043
  20428966.089   -26073992.21249 -19700837.82548  20428965.431    20428967.651
 03  3 21  0 32 30.0000000  0  9G 6G14G15G17G23G 3G16G26G18
  24237399.708    -6344576.42349  -4922368.35245  24237399.288    24237406.295
  23179079.003    -9307876.99449  -7230477.41446  23179078.258    23179082.435
  20339696.149   -28524133.10949 -22212940.19548  20339695.252    20339699.087
  21148038.723   -21779820.28449 -16681873.56347  21148037.868    21148042.162
  21185401.067   -18434776.45549 -14340162.59847  21185400.313    21185404.039
  22438514.785   -16714380.57349 -12983942.20346  22438514.290    22438518.383
  24363058.701    -6472130.43649  -5030008.24045  24363058.215    24363062.718
  23671687.422    -8591907.05249  -6677393.91045  23671687.172    23671691.826
  20431831.247   -26058935.67949 -19689105.46248  20431830.578    20431832.823
 03  3 21  0 33  0.0000000  0  9G 6G14G15G17G23G 3G16G26G18
  24258567.288    -6233340.42349  -4835691.05045  24258566.814    24258573.959
  23158560.112    -9415703.97049  -7314498.32946  23158559.453    23158563.577
  20336499.058   -28540933.91149 -22226031.72148  20336498.155    20336502.003
  21154187.359   -21747508.85149 -16656695.82747  21154186.531    21154190.816
  21193515.039   -18392137.40749 -14306937.37247  21193514.285    21193518.004
  22426316.371   -16778483.49649 -13033892.49946  22426315.845    22426319.953
  24375655.037    -6405936.42949  -4978428.52045  24375654.496    24375659.027
  23690437.766    -8493373.27149  -6600614.39645  23690437.561    23690442.273
  20434758.534   -26043552.81749 -19677118.81448  20434757.881    20434760.091
 03  3 21  0 33 30.0000000  0  9G 6G14G15G17G23G 3G16G26G18
  24279749.855    -6122025.98149  -4748952.63245  24279749.430    24279756.561
  23138074.439    -9523356.25649  -7398383.12446  23138073.815    23138077.919
  20333356.260   -28557449.34249 -22238900.87748  20333355.351    20333359.192
  21160389.221   -21714917.89349 -16631300.28447  21160388.408    21160392.692
  21201666.838   -18349299.58349 -14273557.25747  21201666.062    21201669.763
  22414201.146   -16842149.33749 -13083502.20946  22414200.632    22414204.730
  24388286.700    -6339556.72649  -4926704.11145  24388286.171    24388290.784
  23709250.097    -8394513.81149  -6523581.09745  23709249.898    23709254.685
  20437747.461   -26027845.95849 -19664879.70648  20437746.802    20437748.996
 03  3 21  0 34  0.0000000  0  9G 6G14G15G17G23G 3G16G26G18
  24300947.038    -6010634.39149  -4662154.09745  24300946.704    24300953.639
  23117622.743    -9630830.07249  -7482128.85046  23117622.143    23117626.271
  20330268.213   -28573677.20349 -22251545.95448  20330267.299    20330271.156
  21166644.634   -21682045.45849 -16605685.40947  21166643.827    21166648.137
  21209856.359   -18306263.46449 -14240022.62147  21209855.603    21209859.270
  22402169.716   -16905374.73649 -13132768.72246  22402169.201    22402173.277
  24400953.290    -6272993.26949  -4874836.51645  24400952.772    24400957.335
  23728124.029    -8295330.62249  -6446295.55645  23728123.822    23728128.577
  20440798.043   -26011815.05449 -19652388.09048  20440797.380    20440799.566
 03  3 21  0 34 30.0000000  0  9G 6G14G15G17G23G 3G16G26G18
  24322158.392    -5899168.56749  -4575297.70845  24322157.990    24322164.961
  23097205.522    -9738122.95149  -7565733.59746  23097204.868    23097208.985
  20327234.946   -28589616.97349 -22263966.54748  20327234.029    20327237.913
  21172953.690   -21648891.20449 -16579850.93647  21172952.870    21172957.201
  21218083.174   -18263031.26749 -14206335.20447  21218082.417    21218086.080
  22390222.373   -16968158.27549 -13181690.93046  22390221.862    22390225.932
  24413654.295    -6206249.44249  -4822828.37145  24413653.739    24413658.350
  23747058.895    -8195827.28749  -6368760.55545  23747058.744    23747063.542
  20443909.886   -25995462.15749 -19639645.57548  20443909.226    20443911.425
 03  3 21  0 35  0.0000000  0  9G 6G14G15G17G23G 3G16G26G18
  24343383.308    -5787631.26849  -4488385.63045  24343382.927    24343389.988
  23076823.075    -9845232.95149  -7649195.83346  23076822.428    23076826.508
  20324256.638   -28605267.95149 -22276162.10348  20324255.711    20324259.624
  21179316.439   -21615454.85449 -16553796.64547  21179315.625    21179319.969
  21226346.936   -18219604.93249 -14172496.50647  21226346.176    21226349.841
  22378359.468   -17030498.24249 -13230267.49246  22378358.954    22378362.983
  24426388.882    -6139329.00249  -4770682.59445  24426388.323    24426392.876
  23766054.111    -8096007.13849  -6290978.67245  23766053.903    23766058.806
  20447082.751   -25978788.67749 -19626653.25148  20447082.100    20447084.296
 03  3 21  0 35 30.0000000  0  9G 6G14G15G17G23G 3G16G26G18
  24364621.405    -5676024.87249  -4401419.72245  24364620.924    24364628.060
  23056475.987    -9952157.07149  -7732513.23346  23056475.334    23056479.405
  20321333.569   -28620628.73949 -22288131.54048  20321332.634    20321336.573
  21185732.954   -21581735.84849 -16527522.10847  21185732.133    21185736.479
  21234647.362   -18175986.02049 -14138507.75347  21234646.610    21234650.271
  22366581.373   -17092392.67049 -13278496.88047  22366580.848    22366584.871
  24439156.565    -6072234.51849  -4718401.19845  24439156.034    24439160.612
  23785109.032    -7995873.29949  -6212952.36145  23785108.812    23785113.624
  20450316.366   -25961795.92449 -19613412.14548  20450315.711    20450317.926
 03  3 21  0 36  0.0000000  0  9G 6G14G15G17G23G 3G16G26G18
  24385872.276    -5564351.30749  -4314401.45145  24385871.662    24385878.776
  23036164.898   -10058892.12149  -7815683.30446  23036164.266    23036168.286
  20318465.967   -28635697.96449 -22299873.78548  20318465.049    20318468.967
  21192203.393   -21547733.47549 -16501026.76047  21192202.573    21192206.914
  21242984.182   -18132175.74949 -14104369.88547  21242983.439    21242987.076
  22354888.590   -17153838.61849 -13326376.80547  22354888.073    22354892.069
  24451956.894    -6004968.64949  -4665986.26745  24451956.283    24451960.878
  23804223.155    -7895428.36149  -6134683.63445  23804222.939    23804227.758
  20453610.579   -25944484.81849 -19599922.97348  20453609.920    20453612.144
 03  3 21  0 36 30.0000000  0  9G 6G14G15G17G23G 3G16G26G18
  24407135.463    -5452612.96549  -4227332.72645  24407134.982    24407142.206
  23015890.312   -10165435.25849  -7898703.84146  23015889.662    23015893.708
  20315654.143   -28650474.42249 -22311387.89848  20315653.216    20315657.108
  21198727.880   -21513447.11549 -16474310.12547  21198727.067    21198731.410
  21251357.197   -18088175.41549 -14070083.91347  21251356.452    21251360.104
  22343281.525   -17214834.09149 -13373905.70746  22343280.999    22343285.003
  24464789.267    -5937534.36449  -4613440.10445  24464788.609    24464793.277
  23823395.882    -7794675.22349  -6056174.74145  23823395.627    23823400.523
  20456965.084   -25926856.71449 -19586186.78648  20456964.428    20456966.647
 03  3 21  0 37  0.0000000  0  9G 6G14G15G17G23G 3G16G26G18
  24428410.614    -5340811.94949  -4140215.14945  24428410.063    24428417.378
  22995652.833   -10271783.59649  -7981572.57646  22995652.202    22995656.173
  20312898.241   -28664956.91849 -22322672.95148  20312897.304    20312901.177
  21205306.631   -21478875.71049 -16447371.37647  21205305.812    21205310.128
  21259766.104   -18043986.27749 -14035650.82647  21259765.351    21259769.029
  22331760.487   -17275377.17049 -13421082.09747  22331759.974    22331763.980
  24477653.115    -5869934.45749  -4560764.87645  24477652.414    24477657.225
  23842626.698    -7693616.89849  -5977428.05745  23842626.473    23842631.364
  20460379.814   -25908912.28249 -19572204.11248  20460379.154    20460381.359
 03  3 21  0 37 30.0000000  0  9G 6G14G15G17G23G 3G16G26G18
  24449696.967    -5228951.58249  -4053051.34045  24449696.417    24449703.704
  22975452.689   -10377935.52849  -8064288.26846  22975452.026    22975456.038
  20310198.302   -28679145.26249 -22333728.79348  20310197.363    20310201.231
  21211939.527   -21444019.79449 -16420210.93747  21211938.710    21211943.008
  21268210.445   -17999610.87949 -14001072.59847  21268209.695    21268213.397
  22320325.807   -17335466.57249 -13467904.97847  22320325.310    22320329.314
  24490547.739    -5802172.81749  -4507963.63145  24490547.027    24490551.800
  23861914.849    -7592257.27149  -5898446.58745  23861914.700    23861919.598
  20463854.253   -25890654.02249 -19557976.89548  20463853.599    20463855.808
 03  3 21  0 38  0.0000000  0  9G 6G14G15G17G23G 3G16G26G18
  24470994.396    -5117033.39649  -3965842.46445  24470993.943    24471001.092
  22955290.632   -10483887.37649  -8146848.04246  22955289.983    22955293.969
  20307554.665   -28693037.48749 -22344553.89148  20307553.733    20307557.578
  21218626.794   -21408877.95049 -16392827.69047  21218625.981    21218630.261
  21276690.109   -17955049.93549 -13966349.78847  21276689.364    21276693.088
  22308977.988   -17395099.59449 -13514372.23147  22308977.496    22308981.519
  24503472.732    -5734251.73149  -4455038.13645  24503471.969    24503476.808
  23881259.894    -7490598.65449  -5819232.14645  23881259.728    23881264.698
  20467388.307   -25872082.37449 -19543505.47648  20467387.642    20467389.850
 03  3 21  0 38 30.0000000  0  9G 6G14G15G17G23G 3G16G26G18
  24492302.335    -5005059.73549  -3878590.36645  24492301.932    24492309.102
  22935167.223   -10589636.24949  -8229249.63046  22935166.564    22935170.564
  20304967.643   -28706632.29349 -22355147.24048  20304966.734    20304970.552
  21225368.688   -21373449.21449 -16365220.89347  21225367.883    21225372.155
  21285204.824   -17910304.82049 -13931483.46947  21285204.080    21285207.822
  22297717.515   -17454273.79449 -13560481.96747  22297716.992    22297721.004
  24516427.505    -5666173.96649  -4401990.56045  24516426.811    24516431.623
  23900661.301    -7388643.75049  -5739786.83445  23900661.196    23900666.128
  20470981.762   -25853198.59449 -19528790.84048  20470981.105    20470983.330
 03  3 21  0 39  0.0000000  0 11G 6G14G15G17G23G 3G16G31G 9G26G18
  24513620.233    -4893033.71749  -3791297.47145  24513619.824    24513626.946
  22915082.821   -10695180.24549  -8311491.57646  22915082.129    22915086.115
  20302437.242   -28719929.58549 -22365508.75448  20302436.316    20302440.123
  21232165.090   -21337733.96049 -16337390.83847  21232164.289    21232168.555
  21293754.108   -17865378.06449 -13896475.61147  21293753.361    21293757.109
  22286544.485   -17512988.45349 -13606233.61547  22286543.967    22286547.946
  24529411.242    -5597943.60449  -4348824.07945  24529410.513    24529415.493
                   -785207.30159   -591626.60143
                   -818662.10359   -625520.38143
  23920118.289    -7286396.71749  -5660113.89745  23920118.176    23920123.212
  20474634.183   -25834004.85749 -19513834.68048  20474633.536    20474635.794
 03  3 21  0 39 30.0000000  0 11G 6G14G15G17G23G 3G16G31G 9G26G18
  24534947.832    -4780957.03449  -3703965.10145  24534947.369    24534954.464
  22895038.016   -10800516.02149  -8393571.28946  22895037.336    22895041.277
  20299963.834   -28732927.51549 -22375637.00148  20299962.908    20299966.698
  21239016.276   -21301730.81149 -16309336.44747  21239015.466    21239019.761
  21302337.851   -17820270.43549 -13861326.81447  21302337.109    21302340.797
  22275459.409   -17571240.68149 -13651624.93247  22275458.881    22275462.859
  24542423.693    -5529562.67549  -4295540.26245  24542422.984    24542427.989
                   -879600.28749   -665179.30643
                   -882612.84849   -675352.28743
  23939630.454    -7183859.68449  -5580214.97945  23939630.369    23939635.455
  20478345.542   -25814501.49349 -19498637.25248  20478344.887    20478347.161
 03  3 21  0 40  0.0000000  0 10G14G15G17G23G 3G16G31G 9G26G18
  22875033.601   -10905639.66049  -8475485.70846  22875032.944    22875036.821
  20297547.765   -28745624.01549 -22385530.36748  20297546.831    20297550.648
  21245922.509   -21265438.40549 -16281056.66247  21245921.685    21245925.988
  21310955.911   -17774982.26849 -13826037.33347  21310955.173    21310958.821
  22264462.900   -17629027.59249 -13696653.66047  22264462.393    22264466.338
  24555464.430    -5461033.31349  -4242140.77645  24555463.607    24555468.603
                   -973721.44349   -738520.37643
                   -946301.27949   -724979.35744                  24398774.865
  23959197.432    -7081034.74449  -5500091.71945  23959197.313    23959202.452
  20482115.724   -25794688.99349 -19483198.93648  20482115.067    20482117.339
 03  3 21  0 40 30.0000000  0 10G14G15G17G23G 3G16G31G 9G26G18
  22855069.812   -11010549.62749  -8557233.62446  22855069.115    22855072.989
  20295189.057   -28758018.97149 -22395188.76348  20295188.124    20295191.940
  21252883.620   -21228857.42649 -16252552.01647  21252882.796    21252887.119
  21319607.806   -17729516.29749 -13790609.30247  21319607.073    21319610.704
  22253555.137   -17686348.13049 -13741318.98047  22253554.645    22253558.610
  24568532.604    -5392359.42549  -4188628.67245  24568531.740    24568536.993
                  -1067569.21749   -811648.51044                  24338872.940
  24386700.207    -1009725.61449   -774400.72745  24386698.890    24386706.107
  23978818.407    -6977926.04849  -5419747.35245  23978818.209    23978823.432
  20485944.284   -25774569.82049 -19467521.65648  20485943.626    20485945.920
 03  3 21  0 41  0.0000000  0 10G14G15G17G23G 3G16G31G 9G26G18
  22835146.987   -11115244.50949  -8638813.97346  22835146.267    22835150.136
  20292887.740   -28770112.51449 -22404612.29148  20292886.807    20292890.601
  21259899.552   -21191988.50949 -16223823.00247  21259898.718    21259903.046
  21328292.978   -17683875.33749 -13755044.92047  21328292.251    21328295.916
  22242736.237   -17743201.67549 -13785620.40947  22242735.735    22242739.723
  24581627.494    -5323545.48049  -4135007.45845  24581626.704    24581631.714
  24321059.282    -1161142.14549   -884562.38845  24321061.879    24321065.936
  24374681.216    -1072883.91349   -823614.85345  24374680.570    24374687.996
  23998492.541    -6874537.89349  -5339185.22145  23998492.329    23998497.492
  20489830.691   -25754146.53049 -19451607.40248  20489830.026    20489832.320
 03  3 21  0 41 30.0000000  0 10G14G15G17G23G 3G16G31G 9G26G18
  22815265.513   -11219722.00349  -8720224.92846  22815264.801    22815268.643
  20290643.866   -28781904.06449 -22413800.50348  20290642.940    20290646.758
  21266970.393   -21154831.12949 -16194869.21947  21266969.583    21266973.881
  21337011.093   -17638061.22549 -13719345.61847  21337010.365    21337014.043
  22232006.527   -17799586.66949 -13829556.73447  22232006.022    22232009.959
  24594748.438    -5254594.80249  -4081279.67945  24594747.721    24594752.529
  24303307.193    -1254438.01049   -957260.38345  24303308.630    24303312.929
  24362713.520    -1135773.34049   -872619.43945  24362712.655    24362719.700
  24018219.219    -6770873.69649  -5258408.00245  24018218.973    24018224.291
  20493774.730   -25733420.44749 -19435457.20748  20493774.075    20493776.373
 03  3 21  0 42  0.0000000  0 10G14G15G17G23G 3G16G31G 9G26G18
  22795426.066   -11323978.58449  -8801463.74046  22795425.396    22795429.197
  20288457.834   -28793391.59949 -22422751.81348  20288456.924    20288460.733
  21274096.387   -21117383.73449 -16165689.43947  21274095.550    21274099.867
  21345762.066   -17592074.66049 -13683511.92847  21345761.347    21345765.016
  22221366.481   -17855500.36249 -13873125.81547  22221365.968    22221369.914
  24607894.967    -5185509.64049  -4027447.11945  24607894.209    24607898.967
  24285607.508    -1347453.50049  -1029739.90445  24285607.614    24285612.900
  24350797.864    -1198389.87249   -921411.38945  24350797.034    24350804.115
  24037997.957    -6666935.82049  -5177417.51245  24037997.770    24038002.973
  20497776.227   -25712392.32549 -19419071.64848  20497775.575    20497777.894
 03  3 21  0 42 30.0000000  0 10G14G15G17G23G 3G16G31G 9G26G18
  22775629.356   -11428010.55349  -8882527.52946  22775628.681    22775632.474
  20286330.033   -28804573.15449 -22431464.70448  20286329.117    20286332.924
  21281277.748   -21079645.32849 -16136282.90747  21281276.928    21281281.261
  21354545.718   -17545916.20549 -13647544.30847  21354545.006    21354548.688
  22210816.662   -17910939.91749 -13916325.44247  22210816.162    22210820.098
  24621066.658    -5116292.11149  -3973511.40745  24621065.871    24621070.691
  24267961.607    -1440184.79849  -1101997.98745  24267961.580    24267966.763
  24338934.901    -1260729.39549   -969987.50745  24338934.107    24338941.240
  24057828.461    -6562726.21849  -5096215.30445  24057828.342    24057833.407
  20501835.168   -25691062.54249 -19402451.03848  20501834.515    20501836.806
 03  3 21  0 43  0.0000000  0 10G14G15G17G23G 3G16G31G 9G26G18
  22755875.992   -11531815.13949  -8963414.15146  22755875.345    22755879.021
  20284260.704   -28815447.42849 -22439938.15248  20284259.789    20284263.596
  21288514.589   -21041615.46049 -16106649.25647  21288513.759    21288518.110
  21363361.855   -17499587.16249 -13611443.75747  21363361.123    21363364.815
  22200357.471   -17965903.26649 -13959153.99347  22200356.943    22200360.857
  24634263.100    -5046944.72449  -3919474.51845  24634262.374    24634267.117
  24250370.213    -1532629.29749  -1174032.57245  24250369.928    24250375.122
  24327125.296    -1322788.92949  -1018345.43445  24327124.602    24327131.728
  24077710.147    -6458247.70149  -5014803.53245  24077709.938    24077715.044
  20505951.273   -25669432.32349 -19385596.31748  20505950.616    20505952.896
 03  3 21  0 43 30.0000000  0 10G14G15G17G23G 3G16G31G 9G26G18
  22736166.386   -11635389.65249  -9044121.48846  22736165.700    22736169.332
  20282250.075   -28826013.29249 -22448171.28448  20282249.171    20282252.951
  21295807.125   -21003293.00749 -16076787.62047  21295806.330    21295810.682
  21372210.173   -17453089.03449 -13575211.45747  21372209.437    21372213.142
  22189989.259   -18020388.60949 -14001610.07347  22189988.751    22189992.650
  24647483.597    -4977470.85249  -3865339.06745  24647482.923    24647487.532
  24232833.832    -1624784.37049  -1245841.64445  24232833.538    24232838.656
  24315369.600    -1384564.97449  -1066482.50145  24315369.021    24315376.065
  24097642.368    -6353503.50149  -4933184.73945  24097642.219    24097647.431
  20510124.209   -25647503.14349 -19368508.64248  20510123.567    20510125.832
 03  3 21  0 44  0.0000000  0 10G14G15G17G23G 3G16G31G 9G26G18
  22716501.016   -11738731.57849  -9124647.58946  22716500.354    22716503.928
  20280298.331   -28836269.90049 -22456163.43748  20280297.422    20280301.205
  21303155.377   -20964677.83749 -16046697.89247  21303154.583    21303158.928
  21381090.298   -17406423.63949 -13538848.81747  21381089.560    21381093.243
  22179712.260   -18074394.37449 -14043692.45647  22179711.755    22179715.622
  24660727.488    -4907873.76049  -3811107.59645  24660726.734    24660731.434
  24215352.943    -1716647.57349  -1317423.28845  24215352.481    24215357.609
  24303668.326    -1446054.94649  -1114396.63745  24303667.731    24303674.663
  24117624.496    -6248496.96549  -4851361.54245  24117624.456    24117629.349
  20514353.829   -25625276.44449 -19351189.13148  20514353.179    20514355.451
 03  3 21  0 44 30.0000000  0 10G14G15G17G23G 3G16G31G 9G26G18
  22696880.394   -11841838.33949  -9204990.45146  22696879.727    22696883.257
  20278405.571   -28846216.29749 -22463913.86548  20278404.673    20278408.437
  21310559.377   -20925769.66949 -16016379.86147  21310558.557    21310562.923
  21390001.980   -17359592.45049 -13502356.98947  21390001.250    21390004.925
  22169526.858   -18127918.94149 -14085399.88347  22169526.346    22169530.195
  24673994.294    -4838156.31549  -3756782.34745  24673993.490    24673998.383
  24197928.062    -1808216.46049  -1388775.59845  24197927.403    24197932.591
  24292022.096    -1507255.68849  -1162085.41645  24292021.464    24292028.434
  24137656.035    -6143230.88349  -4769336.08545  24137655.929    24137660.991
  20518639.799   -25602753.53649 -19333638.81048  20518639.132    20518641.408
 03  3 21  0 45  0.0000000  0 10G14G15G17G23G 3G16G31G 9G26G18
  22677305.045   -11944707.21949  -9285147.94346  22677304.379    22677307.879
  20276572.114   -28855851.38049 -22471421.71748  20276571.212    20276574.947
  21318019.203   -20886568.11149 -15985833.21247  21318018.393    21318022.722
  21398944.938   -17312596.88549 -13465737.07847  21398944.219    21398947.878
  22159433.358   -18180960.54349 -14126730.97147  22159432.854    22159436.686
  24687283.362    -4768321.51149  -3702365.65945  24687282.700    24687287.567
  24180559.656    -1899488.23049  -1459896.37945  24180558.918    24180564.102
  24280431.528    -1568163.90349  -1209546.26545  24280430.908    24280437.872
  24157736.353    -6037708.42049  -4687110.85445  24157736.187    24157741.265
  20522981.871   -25579935.64949 -19315858.64048  20522981.216    20522983.493
 03  3 21  0 45 30.0000000  0  9G14G15G17G23G 3G31G 9G26G18
  22657776.083   -12047332.37249  -9365115.53146  22657775.399    22657778.858
  20274798.651   -28865170.96049 -22478683.71748  20274797.740    20274801.464
  21325535.634   -20847069.18749 -15955054.84347  21325534.819    21325539.159
  21407919.492   -17265435.36249 -13428987.84047  21407918.756    21407922.433
  22149432.682   -18233514.17449 -14167681.82147  22149432.187    22149436.005
  24163248.797    -1990457.25249  -1530781.26245  24163248.041    24163253.134
  24268897.789    -1628773.54449  -1256774.45945  24268897.302    24268904.091
  24177865.477    -5931929.69349  -4604685.95445  24177865.322    24177870.358
  20527380.412   -25556821.14549 -19297847.33948  20527379.771    20527382.058
 03  3 21  0 46  0.0000000  0  9G14G15G17G23G 3G31G 9G26G18
  22638293.251   -12149715.08449  -9444894.19846  22638292.576    22638296.008
  20273084.704   -28874177.85449 -22485702.06948  20273083.796    20273087.513
  21333107.943   -20807276.50549 -15924047.57347  21333107.127    21333111.469
  21416924.564   -17218113.27049 -13392113.49047  21416923.822    21416927.520
  22139524.555   -18285581.62249 -14208253.83147  22139524.076    22139527.866
  24145995.290    -2081124.79949  -1601431.22845  24145994.606    24145999.643
  24257420.728    -1689085.40149  -1303770.60045  24257420.297    24257427.012
  24198042.039    -5825901.48649  -4522066.62845  24198041.944    24198046.905
  20531834.392   -25533415.29649 -19279609.01448  20531833.747    20531836.037
 03  3 21  0 46 30.0000000  0  9G14G15G17G23G 3G31G 9G26G18
  22618857.060   -12251852.73549  -9524481.92546  22618856.412    22618859.801
  20271430.469   -28882870.89549 -22492475.85948  20271429.561    20271433.268
  21340736.244   -20767189.65349 -15892811.08947  21340735.446    21340739.760
  21425959.933   -17170632.01749 -13355115.11747  21425959.197    21425962.914
  22129709.237   -18337161.32249 -14248445.77747  22129708.761    22129712.563
  24128799.658    -2171488.31849  -1671844.28645  24128798.940    24128804.021
  24246000.970    -1749096.38149  -1350532.28645  24246000.544    24246007.326
  24218265.517    -5719626.89649  -4439255.33045  24218265.364    24218270.457
  20536343.626   -25509719.22649 -19261144.54548  20536342.966    20536345.267
 03  3 21  0 47  0.0000000  0  9G14G15G17G23G 3G31G 9G26G18
  22599467.928   -12353743.19049  -9603877.01046  22599467.245    22599470.628
  20269836.021   -28891249.87749 -22499004.92748  20269835.115    20269838.828
  21348420.513   -20726808.46549 -15861345.24447  21348419.706    21348424.006
  21435025.196   -17122993.77349 -13317994.42047  21435024.451    21435028.191
  22119986.957   -18388252.14249 -14288256.78047  22119986.472    22119990.307
  24111662.231    -2261545.78549  -1742018.85045  24111661.544    24111666.641
  24234638.866    -1808804.03349  -1397057.61445  24234638.489    24234645.150
  24238535.167    -5613109.46149  -4356254.78745  24238535.062    24238540.073
  20540907.596   -25485735.21949 -19242455.71148  20540906.946    20540909.270
 03  3 21  0 47 30.0000000  0  9G14G15G17G23G 3G31G 9G26G18
  22580126.449   -12455383.03749  -9683076.82446  22580125.774    22580129.152
  20268301.730   -28899312.69349 -22505287.63248  20268300.807    20268304.529
  21356161.048   -20686131.73049 -15829649.10247  21356160.218    21356164.546
  21444120.197   -17075198.96549 -13280751.71947  21444119.465    21444123.188
  22110358.172   -18438851.70549 -14327684.97847  22110357.688    22110361.516
  24094583.642    -2351293.72649  -1811952.23145  24094582.918    24094588.253
  24223335.258    -1868204.35849  -1443343.46245  24223334.914    24223341.563
  24258850.613    -5506351.47949  -4273066.83145  24258850.477    24258855.542
  20545526.353   -25461463.41249 -19223542.61148  20545525.709    20545528.030
 03  3 21  0 48  0.0000000  0  9G14G15G17G23G 3G31G 9G26G18
  22560833.220   -12556769.26049  -9762079.02046  22560832.561    22560835.916
  20266827.831   -28907057.97049 -22511322.90648  20266826.928    20266830.643
  21363958.036   -20645158.46449 -15797721.90047  21363957.210    21363961.537
  21453244.844   -17027248.72849 -13243387.90647  21453244.098    21453247.823
  22100823.285   -18488957.80349 -14366728.66547  22100822.809    22100826.639
  24077564.531    -2440729.21849  -1881642.14245  24077563.760    24077569.224
  24212090.786    -1927293.79349  -1489387.05445  24212090.509    24212097.122
  24279211.278    -5399355.54549  -4189693.45445  24279211.161    24279216.329
  20550199.689   -25436904.85749 -19204406.07648  20550199.023    20550201.365
 03  3 21  0 48 30.0000000  0  9G14G15G17G23G 3G31G 9G26G18
  22541588.734   -12657899.28849  -9840881.58346  22541588.123    22541591.459
  20265414.555   -28914484.72549 -22517109.98448  20265413.636    20265417.354
  21371811.528   -20603888.40049 -15765563.42547  21371810.673    21371815.020
  21462398.795   -16979144.57649 -13205904.16247  21462398.031    21462401.750
  22091382.562   -18538568.90849 -14405386.64647  22091382.095    22091385.922
  24060605.399    -2529849.72149  -1951086.60945  24060604.630    24060610.010
  24200906.044    -1986069.43849  -1535186.14545  24200905.672    24200912.358
  24299616.688    -5292124.82949  -4106137.11245  24299616.486    24299621.737
  20554927.300   -25412060.97649 -19185047.20748  20554926.640    20554928.991
 03  3 21  0 49  0.0000000  0  9G14G15G17G23G 3G31G 9G26G18
  22522393.662   -12758769.82949  -9919481.93946  22522393.012    22522396.338
  20264062.278   -28921591.07749 -22522647.40248  20264061.372    20264065.059
  21379721.699   -20562320.22149 -15733172.66247  21379720.867    21379725.149
  21471581.897   -16930887.10349 -13168300.94747  21471581.154    21471584.835
  22082036.539   -18587682.52249 -14443656.96947  22082036.055    22082039.910
  24043706.805    -2618651.82149  -2020282.98345  24043706.119    24043711.505
  24189781.761    -2044527.51349  -1580737.78145  24189781.363    24189787.998
  24320066.350    -5184661.37849  -4022399.44045  24320066.118    24320071.357
  20559709.159   -25386932.25849 -19165466.39248  20559708.490    20559710.835
 03  3 21  0 49 30.0000000  0  9G14G15G17G23G 3G31G 9G26G18
  22503248.377   -12859378.87349  -9997878.53446  22503247.676    22503251.018
  20262770.930   -28928377.07649 -22527935.18748  20262770.006    20262773.702
  21387688.460   -20520454.65749 -15700550.16547  21387687.642    21387691.922
  21480793.681   -16882478.85349 -13130580.24347  21480792.946    21480796.619
  22072785.338   -18636297.92349 -14481539.07447  22072784.849    22072788.680
  24026869.117    -2707134.02749  -2089230.08045  24026868.365    24026873.834
  24178718.270    -2102666.10349  -1626040.47745  24178717.852    24178724.532
  24340559.470    -5076969.51549  -3938483.77845  24340559.321    24340564.573
  20564544.726   -25361521.12549 -19145665.51148  20564544.062    20564546.412
 03  3 21  0 50  0.0000000  0  9G14G15G17G23G 3G31G 9G26G18
  22484153.254   -12959724.19549 -10076069.63546  22484152.575    22484155.869
  20261540.808   -28934841.44449 -22532972.34848  20261539.898    20261543.567
  21395711.909   -20478291.25849 -15667695.58747  21395711.097    21395715.370
  21490033.917   -16833921.17649 -13092743.10247  21490033.179    21490036.866
  22063629.200   -18684413.49949 -14519031.70147  22063628.708    22063632.549
  24010092.804    -2795293.75449  -2157925.88845  24010092.109    24010097.588
  24167716.222    -2160481.99249  -1671091.71745  24167715.859    24167722.434
  24361095.505    -4969052.06749  -3854392.33245  24361095.314    24361100.609
  20569433.793   -25335828.96449 -19125645.64348  20569433.148    20569435.464
 03  3 21  0 50 30.0000000  0  9G14G15G17G23G 3G31G 9G26G18
  22465108.951   -13059802.26749 -10154052.49646  22465108.289    22465111.581
  20260372.254   -28940982.32249 -22537757.44348  20260371.337    20260375.020
  21403792.183   -20435829.39949 -15634608.44747  21403791.363    21403795.617
  21499302.472   -16785214.77149 -13054790.07347  21499301.743    21499305.415
  22054568.597   -18732026.96349 -14556133.08247  22054568.130    22054571.971
  23993378.415    -2883127.70449  -2226367.85945  23993377.771    23993383.203
  24156776.201    -2217971.37849  -1715888.54945  24156775.812    24156782.410
  24381674.029    -4860911.38649  -3770126.92445  24381673.988    24381679.253
  20574376.250   -25309856.40849 -19105407.29048  20574375.596    20574377.889
 03  3 21  0 51  0.0000000  0  9G14G15G17G23G 3G31G 9G26G18
  22446116.000   -13159610.60249 -10231825.17046  22446115.328    22446118.632
  20259265.373   -28946798.89249 -22542289.83148  20259264.463    20259268.170
  21411929.436   -20393067.98849 -15601287.88547  21411928.610    21411932.874
  21508599.009   -16736361.05949 -13016722.26047  21508598.267    21508601.982
  22045603.948   -18779136.52249 -14592841.80947  22045603.496    22045607.303
  23976726.571    -2970633.34149  -2294553.99445  23976725.978    23976731.356
  24145898.896    -2275131.52149  -1760428.83145  24145898.503    24145905.074
  24402294.472    -4752550.56349  -3685690.00145  24402294.383    24402299.822
  20579371.772   -25283604.69249 -19084951.41148  20579371.108    20579373.416
 03  3 21  0 51 30.0000000  0  9G14G15G17G23G 3G31G 9G26G18
  22427174.768   -13259147.11349 -10309386.03346  22427174.061    22427177.394
  20258220.288   -28952290.82949 -22546569.25848  20258219.367    20258223.094
  21420123.659   -20350007.18949 -15567734.04347  21420122.847    21420127.078
  21517923.232   -16687362.10049 -12978541.26947  21517922.492    21517926.203
  22036735.311   -18825741.42049 -14629157.28947  22036734.846    22036738.648
  23960137.613    -3057808.66649  -2362482.74845  23960137.052    23960142.448
  24135084.712    -2331959.86749  -1804710.56145  24135084.270    24135090.830
  24422956.139    -4643973.11749  -3601084.26545  24422956.010    24422961.512
  20584420.038   -25257075.87449 -19064279.60948  20584419.393    20584421.680
 03  3 21  0 52  0.0000000  0  8G14G15G17G23G 3G31G 9G18
  22408286.088   -13358407.51849 -10386731.75146  22408285.407    22408288.735
  20257237.511   -28957455.29349 -22550593.51248  20257236.597    20257240.319
  21428375.170   -20306645.17649 -15533945.48647  21428374.365    21428378.608
  21527275.139   -16638217.57649 -12940246.84747  21527274.378    21527278.128
  22027963.348   -18871838.28149 -14665076.90147  22027962.879    22027966.627
  23943612.322    -3144649.50449  -2430150.87345  23943611.842    23943617.068
  24124334.564    -2388451.70249  -1848730.09345  24124334.131    24124340.844
  20589521.128   -25230269.46049 -19043391.49748  20589520.462    20589522.773
 03  3 21  0 52 30.0000000  0  8G14G15G17G23G 3G31G 9G18
  22389450.133   -13457390.91149 -10463861.61146  22389449.447    22389452.823
  20256316.983   -28962292.62749 -22554362.85948  20256316.084    20256319.796
  21436683.883   -20262982.76149 -15499922.84447  21436683.063    21436687.313
  21536654.201   -16588930.28949 -12901841.18547  21536653.455    21536657.189
  22019288.091   -18917427.07549 -14700600.61347  22019287.615    22019291.336
  23927150.880    -3231154.70549  -2497557.43745  23927150.398    23927155.554
  24113648.759    -2444605.42049  -1892486.15745  24113648.379    24113654.922
  20594674.430   -25203188.49949 -19022289.45348  20594673.774    20594676.079
 03  3 21  0 53  0.0000000  0  8G14G15G17G23G 3G31G 9G18
  22370667.353   -13556094.87249 -10540773.72646  22370666.650    22370670.035
  20255458.830   -28966802.25349 -22557876.84848  20255457.918    20255461.618
  21445049.676   -20219020.23749 -15465666.35347  21445048.861    21445053.119
  21546060.060   -16539502.21449 -12863325.81447  21546059.333    21546063.032
  22010709.692   -18962506.74449 -14735727.60547  22010709.203    22010712.913
  23910753.717    -3317322.26149  -2564700.91945  23910753.250    23910758.416
  24103027.734    -2500418.84149  -1935977.03045  24103027.401    24103033.885
  20599879.693   -25175834.70449 -19000974.81048  20599879.021    20599881.347
 03  3 21  0 53 30.0000000  0  8G14G15G17G23G 3G31G 9G18
  22351938.553   -13654515.22249 -10617464.86446  22351937.876    22351941.208
  20254663.569   -28970981.42649 -22561133.34448  20254662.659    20254666.358
  21453473.013   -20174755.41349 -15431174.30547  21453472.200    21453476.472
  21555492.748   -16489933.08149 -12824700.53047  21555492.013    21555495.735
  22002228.694   -19007074.43549 -14770455.65047  22002228.195    22002231.923
  23894421.596    -3403147.97349  -2631578.02245  23894421.087    23894426.192
  24092472.333    -2555887.37649  -1979199.20045  24092471.979    24092478.454
  20605136.985   -25148207.61749 -18979447.21248  20605136.311    20605138.639
 03  3 21  0 54  0.0000000  0  8G14G15G17G23G 3G31G 9G18
  22333263.676   -13752652.16549 -10693935.15046  22333262.994    22333266.302
  20253930.882   -28974831.83849 -22564133.66248  20253929.966    20253933.673
  21461953.409   -20130190.65449 -15396448.54347  21461952.609    21461956.924
  21564951.542   -16440226.89149 -12785968.44647  21564950.795    21564954.523
  21993845.023   -19051130.82649 -14804785.28147  21993844.528    21993848.257
  23878154.526    -3488631.86749  -2698188.77745  23878153.998    23878159.023
  24081982.750    -2611010.38449  -2022152.12345  24081982.350    24081988.723
  20610445.474   -25120311.28749 -18957709.81848  20610444.806    20610447.120
 03  3 21  0 54 30.0000000  0  8G14G15G17G23G 3G31G 9G18
  22314643.762   -13850500.33449 -10770180.42946  22314643.094    22314646.348
  20253261.400   -28978349.77149 -22566874.91048  20253260.510    20253264.194
  21470491.442   -20085322.95549 -15361486.72647  21470490.629    21470494.989
  21574436.638   -16390382.40049 -12747128.60247  21574435.889    21574439.628
  21985559.438   -19094671.84149 -14838713.33047  21985558.944    21985562.666
  23861953.502    -3573768.82549  -2764529.20045  23861952.974    23861957.907
  24071559.936    -2665782.30149  -2064831.45945  24071559.725    24071566.061
  20615805.476   -25092144.36049 -18935761.57048  20615804.805    20615807.084
 03  3 21  0 55  0.0000000  0  8G14G15G17G23G 3G31G 9G18
  22296079.047   -13948058.17049 -10846199.47146  22296078.387    22296081.656
  20252655.247   -28981535.24549 -22569357.09748  20252654.339    20252658.023
  21479086.996   -20040152.88649 -15326289.29247  21479086.198    21479090.588
  21583947.627   -16340402.00249 -12708182.84647  21583946.884    21583950.649
  21977372.016   -19137696.99449 -14872239.39847  21977371.502    21977375.268
  23845818.797    -3658557.26949  -2830598.06045  23845818.204    23845823.114
  24061204.297    -2720201.27149  -2107235.77345  24061203.995    24061210.344
  20621216.486   -25063709.46949 -18913604.51848  20621215.819    20621218.091
 03  3 21  0 55 30.0000000  0  8G14G15G17G23G 3G31G 9G18
  22277570.200   -14045322.58049 -10921989.87046  22277569.540    22277572.810
  20252112.622   -28984386.63349 -22571578.96148  20252111.715    20252115.394
  21487740.341   -19994679.45249 -15290855.46847  21487739.527    21487743.931
  21593484.320   -16290286.40049 -12669131.74347  21593483.562    21593487.349
  21969283.156   -19180204.18449 -14905361.86347  21969282.672    21969286.422
  23829750.949    -3742994.09749  -2896392.91945  23829750.377    23829755.247
  24050916.490    -2774263.77449  -2149362.32445  24050916.188    24050922.530
  20626678.334   -25035007.26749 -18891239.17148  20626677.668    20626679.909
 03  3 21  0 56  0.0000000  0  8G14G15G17G23G 3G31G 9G18
  22259117.412   -14142292.33549 -10997550.66846  22259116.754    22259120.039
  20251633.592   -28986904.04049 -22573540.57848  20251632.686    20251636.355
  21496451.178   -19948903.68649 -15255186.06647  21496450.377    21496454.773
  21603046.287   -16240037.98149 -12629977.14747  21603045.533    21603049.317
  21961292.878   -19222193.18549 -14938080.54447  21961292.404    21961296.150
  23813750.266    -3827078.12349  -2961912.86245  23813749.675    23813754.452
  24040696.851    -2827968.01649  -2191209.72345  24040696.542    24040703.022
  20632190.603   -25006040.13149 -18868667.38248  20632189.942    20632192.155
 03  3 21  0 56 30.0000000  0  8G14G15G17G23G 3G31G 9G18
  22240721.401   -14238964.03249 -11072879.21246  22240720.759    22240723.971
  20251218.424   -28989085.74249 -22575240.60248  20251217.524    20251221.154
  21505219.868   -19902824.10849 -15219279.92747  21505219.047    21505223.438
  21612633.411   -16189657.42649 -12590719.58147  21612632.656    21612636.408
  21953401.603   -19263662.01449 -14970393.89647  21953401.137    21953404.857
  23797817.349    -3910805.95549  -3027155.26445  23797816.675    23797821.532
  24030546.074    -2881310.49449  -2232775.21645  24030545.670    24030552.224
  20637753.193   -24976808.55649 -18845889.53948  20637752.531    20637754.747
 03  3 21  0 57  0.0000000  0  8G14G15G17G23G 3G31G 9G18
  22222382.646   -14335334.84149 -11147973.30846  22222381.975    22222385.167
  20250867.392   -28990930.51849 -22576678.09248  20250866.477    20250870.126
  21514046.537   -19856439.78949 -15183136.32547  21514045.726    21514050.104
  21622245.474   -16139145.82749 -12551359.90847  21622244.721    21622248.465
  21945609.617   -19304609.09649 -15002300.69247  21945609.151    21945612.873
  23781952.734    -3994174.81549  -3092117.95445  23781952.057    23781956.799
  24020464.818    -2934287.62849  -2274056.03745  24020464.248    24020470.805
  20643365.923   -24947313.61449 -18822906.47648  20643365.266    20643367.492
 03  3 21  0 57 30.0000000  0  8G14G15G17G23G 3G31G 9G18
  22204101.590   -14431402.39649 -11222831.09146  22204100.901    22204104.053
  20250580.617   -28992437.45449 -22577852.32848  20250579.715    20250583.368
  21522931.112   -19809751.13049 -15146755.57847  21522930.286    21522934.694
  21631882.177   -16088504.63249 -12511899.24847  21631881.440    21631885.187
  21937917.174   -19345033.10949 -15033799.90547  21937916.696    21937920.405
  23766156.890    -4077182.27749  -3156799.01245  23766156.293    23766161.018
  24010453.534    -2986896.84049  -2315050.15745  24010453.000    24010459.451
  20649028.435   -24917556.89149 -18799719.42448  20649027.776    20649030.000
 03  3 21  0 58  0.0000000  0  8G14G15G17G23G 3G31G 9G18
  22185878.592   -14527164.66449 -11297451.00246  22185877.926    22185881.043
  20250358.242   -28993605.93749 -22578762.83748  20250357.329    20250361.011
  21531873.518   -19762758.42549 -15110137.92047  21531872.695    21531877.110
  21641543.214   -16037735.59849 -12472338.98047  21641542.472    21641546.228
  21930324.479   -19384933.06349 -15064890.76047  21930323.983    21930327.717
  23750430.148    -4159826.40749  -3221196.97845  23750429.480    23750434.221
  24000512.703    -3039135.88249  -2355755.82945  24000512.181    24000518.636
  20654740.416   -24887540.16549 -18776329.77948  20654739.751    20654741.983
 03  3 21  0 58 30.0000000  0  8G14G15G17G23G 3G31G 9G18
  22167714.284   -14622618.62349 -11371830.66946  22167713.621    22167716.660
  20250200.579   -28994434.41949 -22579408.40748  20250199.659    20250203.359
  21540874.026   -19715460.55949 -15073282.46247  21540873.194    21540877.657
  21651228.411   -15986839.57149 -12432679.75547  21651227.667    21651231.412
  21922831.800   -19424307.15449 -15095571.84747  21922831.300    21922835.031
  23734773.177    -4242104.19349  -3285309.46845  23734772.549    23734777.243
  23990643.024    -3091001.22949  -2396170.31345  23990642.574    23990648.849
  20660501.734   -24857264.32649 -18752738.22348  20660501.083    20660503.313
 03  3 21  0 59  0.0000000  0  8G14G15G17G23G 3G31G 9G18
  22149609.161   -14717761.56349 -11445967.97446  22149608.495    22149611.526
  20250107.797   -28994921.98849 -22579788.32648  20250106.883    20250110.571
  21549932.648   -19667857.13549 -15036188.90647  21549931.803    21549936.305
  21660937.566   -15935817.72449 -12392922.47947  21660936.825    21660940.563
  21915439.464   -19463154.02549 -15125842.10847  21915438.967    21915442.713
  23719186.329    -4324013.17049  -3349134.56345  23719185.680    23719190.371
  23980845.004    -3142490.01249  -2436291.37345  23980844.527    23980850.801
  20666312.185   -24826730.26149 -18728945.44848  20666311.520    20666313.742
 03  3 21  0 59 30.0000000  0  8G14G15G17G23G 3G31G 9G18
  22131563.594   -14812591.35049 -11519861.26846  22131562.928    22131565.939
  20250080.063   -28995067.79949 -22579901.94548  20250079.162    20250082.818
  21559049.391   -19619948.24649 -14998857.33547  21559048.561    21559053.091
  21670670.343   -15884671.66149 -12353068.41947  21670669.588    21670673.341
  21908147.640   -19501472.73149 -15155700.82647  21908147.145    21908150.871
  23703670.172    -4405551.01949  -3412670.48145  23703669.431    23703674.153
  23971119.106    -3193599.70549  -2476117.03745  23971118.580    23971124.878
  20672171.406   -24795939.92349 -18704952.98448  20672170.734    20672172.947
 03  3 21  1  0  0.0000000  0  8G14G15G17G23G 3G31G 9G18
  22113578.263   -14907104.76649 -11593508.04946  22113577.589    22113580.569
  20250117.693   -28994870.09949 -22579747.89548  20250116.796    20250120.454
  21568224.553   -19571732.58549 -14961286.71947  21568223.709    21568228.282
  21680426.649   -15833401.93649 -12313117.99947  21680425.893    21680429.662
  21900956.728   -19539261.20949 -15185146.37547  21900956.234    21900959.971
  23688225.159    -4486714.57949  -3475914.75045  23688224.424    23688229.183
  23961466.085    -3244326.68249  -2515644.48545  23961465.553    23961471.796
  20678079.330   -24764893.56849 -18680761.02648  20678078.664    20678080.891
 03  3 21  1  0 30.0000000  0  8G14G15G17G23G 3G31G 9G18
  22095653.417   -15001300.31349 -11666907.12446  22095652.748    22095655.740
  20250220.680   -28994328.81949 -22579326.11848  20250219.785    20250223.426
  21577457.935   -19523210.78149 -14923477.54547  21577457.117    21577461.691
  21690206.049   -15782010.81349 -12273072.98047  21690205.303    21690209.073
  21893866.758   -19576519.13049 -15214178.50147  21893866.282    21893869.997
  23672851.735    -4567502.25949  -3538866.12045  23672850.986    23672855.765
  23951886.207    -3294669.15149  -2554872.30445  23951885.655    23951892.001
  20684035.484   -24733593.78549 -18656371.59348  20684034.821    20684037.040
 03  3 21  1  1  0.0000000  0  8G14G15G17G23G 3G31G 9G18
  22077789.513   -15095175.49749 -11740056.57447  22077788.855    22077791.858
  20250389.255   -28993443.03349 -22578635.89648  20250388.348    20250391.997
  21586749.638   -19474382.77049 -14885429.77647  21586748.815    21586753.389
  21700008.303   -15730499.45249 -12232934.27247  21700007.547    21700011.352
  21886878.058   -19613245.00149 -15242796.04647  21886877.580    21886881.279
  23657550.274    -4647911.73049  -3601522.77745  23657549.559    23657554.284
  23942380.005    -3344624.17749  -2593798.22145  23942379.605    23942385.819
  20690039.665   -24702041.76149 -18631785.60848  20690038.984    20690041.216
 03  3 21  1  1 30.0000000  0  8G14G15G17G23G 3G31G 9G18
  22059987.242   -15188726.74649 -11812953.60647  22059986.589    22059989.575
  20250623.714   -28992210.85349 -22577675.75448  20250622.806    20250626.467
  21596099.840   -19425247.34449 -14847142.45647  21596099.022    21596103.566
  21709833.385   -15678868.30549 -12192702.22647  21709832.656    21709836.447
  21879990.998   -19649436.87149 -15270997.48647  21879990.508    21879994.196
  23642321.471    -4727939.62149  -3663882.11545  23642320.762    23642325.402
  23932948.293    -3394188.05649  -2632419.34145  23932947.825    23932953.982
  20696091.777   -24670237.67849 -18607003.21148  20696091.124    20696093.327
 03  3 21  1  2  0.0000000  0  8G14G15G17G23G 3G31G 9G18
  22042247.041   -15281952.14049 -11885596.71647  22042246.380    22042249.377
  20250924.230   -28990631.54949 -22576445.12748  20250923.337    20250926.992
  21605508.601   -19375804.19849 -14808615.35647  21605507.778    21605512.290
  21719680.960   -15627118.91749 -12152378.04047  21719680.238    21719684.029
  21873205.645   -19685094.11149 -15298782.33047  21873205.135    21873208.819
  23627165.655    -4807583.81849  -3725942.46545  23627164.924    23627169.566
  23923591.485    -3443358.32349  -2670733.75945  23923591.073    23923597.117
  20702191.495   -24638183.52749 -18582025.95548  20702190.832    20702193.044
 03  3 21  1  2 30.0000000  0  8G14G15G17G23G 3G31G 9G18
  22024569.164   -15374849.76549 -11957984.43547  22024568.498    22024571.490
  20251290.897   -28988704.80749 -22574943.77348  20251289.994    20251293.681
  21614975.795   -19326053.81949 -14769848.86147  21614974.964    21614979.482
  21729550.707   -15575253.07349 -12111963.11347  21729549.986    21729553.778
  21866522.153   -19720215.89449 -15326149.93947  21866521.642    21866525.335
  23612083.184    -4886842.36649  -3787702.28945  23612082.506    23612087.057
  23914309.937    -3492132.80449  -2708739.77245  23914309.628    23914315.517
  20708338.427   -24605881.07849 -18556855.22448  20708337.776    20708339.996
 03  3 21  1  3  0.0000000  0  8G14G15G17G23G 3G31G 9G18
  22006954.233   -15467416.69149 -12030114.46047  22006953.563    22006956.540
  20251723.983   -28986428.98049 -22573170.40148  20251723.074    20251726.739
  21624501.558   -19275995.71249 -14730842.57947  21624500.750    21624505.265
  21739442.507   -15523271.48349 -12071457.99547  21739441.768    21739445.564
  21859940.935   -19754800.47449 -15353098.94847  21859940.418    21859944.079
  23597074.666    -4965712.48749  -3849159.45545  23597074.006    23597078.572
  23905104.358    -3540508.24049  -2746434.84345  23905104.011    23905109.891
  20714532.504   -24573331.07349 -18531491.59448  20714531.838    20714534.089
 03  3 21  1  3 30.0000000  0  8G14G15G17G23G 3G31G 9G18
  21989402.692   -15559650.28149 -12101984.73747  21989402.044    21989405.024
  20252223.680   -28983803.20249 -22571124.33848  20252222.768    20252226.431
  21634085.893   -19225629.67149 -14691596.34047  21634085.104    21634089.624
  21749356.083   -15471175.51649 -12030863.74547  21749355.345    21749359.131
  21853462.109   -19788846.83849 -15379628.56547  21853461.584    21853465.238
  23582140.534    -5044191.59349  -3910311.93345  23582139.774    23582144.449
  23895975.327    -3588481.73549  -2783816.70345  23895974.951    23895980.844
  20720773.419   -24540534.70549 -18505935.99148  20720772.758    20720775.031
 03  3 21  1  4  0.0000000  0  8G14G15G17G23G 3G31G 9G18
  21971915.062   -15651548.12249 -12173593.39747  21971914.410    21971917.433
  20252790.163   -28980826.19349 -22568804.59448  20252789.256    20252792.895
  21643728.983   -19174954.98649 -14652109.60347  21643728.198    21643732.720
  21759291.167   -15418966.14149 -11990181.13347  21759290.427    21759294.245
  21847085.911   -19822353.85449 -15405737.91447  21847085.387    21847089.043
  23567281.295    -5122277.16749  -3971157.76445  23567280.541    23567285.157
  23886923.264    -3636050.44949  -2820883.16245  23886922.868    23886928.755
  20727061.023   -24507493.20249 -18480189.37848  20727060.365    20727062.656
 03  3 21  1  4 30.0000000  0  8G14G15G17G23G 3G31G 9G18
  21954491.817   -15743107.65649 -12244938.43747  21954491.162    21954494.227
  20253423.683   -28977497.11449 -22566210.50748  20253422.767    20253426.408
  21653430.881   -19123971.23449 -14612382.04247  21653430.092    21653434.654
  21769247.650   -15366644.37449 -11949410.93947  21769246.924    21769250.753
  21840812.584   -19855320.21849 -15431425.97347  21840812.070    21840815.739
  23552497.443    -5199966.71749  -4031695.01245  23552496.756    23552501.287
  23877948.718    -3683211.75849  -2857632.16245  23877948.281    23877954.179
  20733395.003   -24474207.90949 -18454252.79448  20733394.350    20733396.633
 03  3 21  1  5  0.0000000  0  8G14G15G17G23G 3G31G 9G18
  21937133.416   -15834326.51249 -12316018.02147  21937132.779    21937135.811
  20254124.359   -28973815.04049 -22563341.36048  20254123.442    20254127.100
  21663191.730   -19072677.80749 -14572413.16547  21663190.915    21663195.492
  21779225.324   -15314211.52849 -11908554.19547  21779224.587    21779228.425
  21834642.379   -19887744.89449 -15456691.94147  21834641.882    21834645.529
  23537789.370    -5277257.86949  -4091921.81545  23537788.668    23537793.221
  23869052.247    -3729962.65649  -2894061.36045  23869051.910    23869057.677
  20739775.203   -24440679.85149 -18428127.04648  20739774.543    20739776.845
 03  3 21  1  5 30.0000000  0  8G14G15G17G23G 3G31G 9G18
  21919840.215   -15925202.85749 -12386830.70447  21919839.531    21919842.561
  20254892.286   -28969779.62149 -22560196.87948  20254891.370    20254895.008
  21673011.269   -19021075.95549 -14532203.95947  21673010.437    21673015.022
  21789223.763   -15261669.36949 -11867612.26647  21789223.035    21789226.851
  21828575.372   -19919627.13649 -15481535.23547  21828574.872    21828578.519
  23523157.423    -5354148.86849  -4151836.81445  23523156.788    23523161.269
  23860234.248    -3776301.11449  -2930169.17145  23860233.834    23860239.633
  20746201.214   -24406910.92349 -18401813.60548  20746200.564    20746202.842
 03  3 21  1  6  0.0000000  0  8G14G15G17G23G 3G31G 9G18
  21902612.485   -16015735.01549 -12457375.19347  21902611.787    21902614.831
  20255727.495   -28965390.53549 -22556776.81248  20255726.572    20255730.217
  21682889.354   -18969166.33349 -14491754.94147  21682888.519    21682893.114
  21799242.628   -15209020.01949 -11826586.81547  21799241.899    21799245.701
  21822611.632   -19950966.90549 -15505955.82047  21822611.121    21822614.789
  23508601.917    -5430638.25349  -4211438.87145  23508601.324    23508605.790
  23851495.106    -3822225.36049  -2965954.21945  23851494.664    23851500.490
  20752672.602   -24372903.50649 -18375314.32948  20752671.944    20752674.231
 03  3 21  1  6 30.0000000  0  8G14G15G17G23G 3G31G 9G18
  21885451.112   -16105918.51849 -12527648.00847  21885450.448    21885453.455
  20256630.550   -28960644.86449 -22553078.89148  20256629.647    20256633.307
  21692826.576   -18916946.15049 -14451063.92147  21692825.739    21692830.336
  21809282.105   -15156262.56449 -11785477.12247  21809281.379    21809285.154
  21816751.694   -19981760.94349 -15529951.16247  21816751.197    21816754.864
  23494123.752    -5506721.28249  -4270724.28545  23494123.127    23494127.572
  23842835.703    -3867730.56549  -3001412.73445  23842835.239    23842840.967
  20759189.608   -24338656.48849 -18348628.35148  20759188.962    20759191.248
 03  3 21  1  7  0.0000000  0  8G14G15G17G23G 3G31G 9G18
  21868356.255   -16195752.26849 -12597648.28247  21868355.583    21868358.594
  20257601.436   -28955542.83349 -22549103.28348  20257600.525    20257604.182
  21702822.715   -18864416.14249 -14410131.47447  21702821.879    21702826.480
  21819341.675   -15103399.31349 -11744284.99047  21819340.955    21819344.713
  21810995.581   -20012009.54849 -15553521.48747  21810995.062    21810998.734
  23479723.089    -5582396.96149  -4329692.28245  23479722.447    23479726.947
  23834256.326    -3912815.33449  -3036543.63545  23834255.858    23834261.661
  20765751.738   -24304172.35449 -18321757.60148  20765751.090    20765753.359
 03  3 21  1  7 30.0000000  0  8G14G15G17G23G 3G31G 9G18
  21851328.648   -16285232.78349 -12667373.31647  21851327.980    21851330.956
  20258640.541   -28950082.48949 -22544848.47648  20258639.636    20258643.281
  21712877.992   -18811575.39049 -14368956.89447  21712877.158    21712881.795
  21829421.303   -15050430.35349 -11703010.49747  21829420.597    21829424.390
  21805343.588   -20041710.81649 -15576665.32247  21805343.065    21805346.728
  23465400.545    -5657661.92549  -4388340.23745  23465399.952    23465404.391
  23825757.645    -3957475.80549  -3071343.91645  23825757.222    23825762.984
  20772358.886   -24269451.47449 -18294702.38048  20772358.226    20772360.525
 03  3 21  1  8  0.0000000  0  8G14G15G17G23G 3G31G 9G18
  21834368.645   -16374357.94549 -12736821.44147  21834367.962    21834370.939
  20259748.012   -28944262.83849 -22540313.68848  20259747.099    20259750.718
  21722992.379   -18758423.98149 -14327540.24547  21722991.566    21722996.201
  21839520.819   -14997357.10449 -11661654.73547  21839520.105    21839523.915
  21799795.874   -20070864.03549 -15599382.09747  21799795.385    21799799.038
  23451156.643    -5732513.95449  -4446666.43345  23451156.063    23451160.476
  23817340.144    -4001709.71249  -3105811.80945  23817339.689    23817345.429
  20779010.848   -24234495.22649 -18267463.75548  20779010.211    20779012.530
 03  3 21  1  8 30.0000000  0  8G14G15G17G23G 3G31G 9G18
  21817476.438   -16463126.92749 -12805992.03147  21817475.756    21817478.717
  20260923.714   -28938084.60249 -22535499.47448  20260922.795    20260926.397
  21733165.686   -18704963.12449 -14285882.46447  21733164.873    21733169.496
  21849639.705   -14944182.20849 -11620219.76647  21849638.980    21849642.810
  21794352.388   -20099469.74849 -15621672.24747  21794351.874    21794355.550
  23436991.478    -5806952.37049  -4504670.32845  23436990.829    23436995.201
  23809004.068    -4045515.85449  -3139946.37445  23809003.510    23809009.323
  20785707.071   -24199306.39649 -18240043.89448  20785706.425    20785708.713
 03  3 21  1  9  0.0000000  0  8G14G15G17G23G 3G31G 9G18
  21800652.819   -16551535.41549 -12874881.71847  21800652.152    21800655.108
  20262168.150   -28931544.89249 -22530403.59848  20262167.234    20262170.858
  21743398.281   -18651190.69949 -14243981.91047  21743397.449    21743402.069
  21859778.103   -14890904.70149 -11578704.84447  21859777.361    21859781.162
  21789013.675   -20127524.87549 -15643533.37147  21789013.160    21789016.844
  23422905.892    -5880972.65549  -4562348.41745  23422905.230    23422909.496
  23800750.227    -4088889.60549  -3173744.01645  23800749.674    23800755.466
  20792447.687   -24163884.26349 -18212442.24248  20792447.038    20792449.301
 03  3 21  1  9 30.0000000  0  8G14G15G17G23G 3G31G 9G18
  21783897.927   -16639582.68249 -12943489.93047  21783897.262    21783900.247
  20263481.196   -28924644.61349 -22525026.75848  20263480.285    20263483.918
  21753689.888   -18597108.16249 -14201839.70647  21753689.064    21753693.680
  21869935.492   -14837527.45749 -11537112.19947  21869934.749    21869938.522
  21783779.552   -20155030.22649 -15664966.09447  21783779.044    21783782.718
  23408899.943    -5954574.33449  -4619700.31245  23408899.296    23408903.491
  23792578.889    -4131829.99649  -3207203.97745  23792578.391    23792584.162
  20799232.174   -24128231.74649 -18184661.06648  20799231.502    20799233.776
 03  3 21  1 10  0.0000000  0  8G14G15G17G23G 3G31G 9G18
  21767212.584   -16727264.54249 -13011813.41647  21767211.923    21767214.935
  20264863.495   -28917380.75349 -22519366.60948  20264862.588    20264866.210
  21764040.843   -18542713.70149 -14159454.44947  21764040.019    21764044.596
  21880111.971   -14784049.77749 -11495441.29547  21880111.224    21880115.007
  21778650.587   -20181982.96749 -15685968.21947  21778650.084    21778653.749
  23394974.392    -6027753.23049  -4676722.77345  23394973.737    23394977.942
  23784490.758    -4174332.84449  -3240322.99245  23784490.250    23784496.029
  20806060.618   -24092348.03149 -18156699.73548  20806059.964    20806062.221
 03  3 21  1 10 30.0000000  0  8G14G15G17G23G 3G31G 9G18
  21750596.843   -16814580.58449 -13079851.85747  21750596.186    21750599.196
  20266314.732   -28909754.45249 -22513424.03948  20266313.813    20266317.435
  21774450.860   -18488008.76949 -14116827.26146  21774450.042    21774454.621
  21890307.012   -14730474.42249 -11453694.28747  21890306.266    21890310.024
  21773626.645   -20208384.04149 -15706540.47447  21773626.142    21773629.804
  23381129.427    -6100508.70149  -4733415.29746  23381128.722    23381132.971
  23776486.131    -4216397.01549  -3273100.18945  23776485.632    23776491.358
  20812932.469   -24056236.21649 -18128560.66648  20812931.817    20812934.077
 03  3 21  1 11  0.0000000  0  8G14G15G17G23G 3G31G 9G18
  21734051.301   -16901527.80049 -13147602.89047  21734050.660    21734053.623
  20267835.238   -28901764.19749 -22507197.86748  20267834.320    20267837.946
  21784920.121   -18432992.33449 -14073957.34546  21784919.304    21784923.909
  21900520.547   -14676802.04549 -11411871.66947  21900519.786    21900523.544
  21768707.893   -20234232.18149 -15726681.86447  21768707.397    21768711.056
  23367365.572    -6172838.06449  -4789775.78346  23367364.840    23367369.116
  23768565.504    -4258019.69849  -3305533.36945  23768565.045    23768570.804
  20819847.561   -24019897.29249 -18100244.62848  20819846.910    20819849.152
 03  3 21  1 11 30.0000000  0  8G14G15G17G23G 3G31G 9G18
  21717576.478   -16988103.55849 -13215064.48847  21717575.825    21717578.751
  20269425.269   -28893408.46249 -22500686.90648  20269424.350    20269427.981
  21795448.768   -18377663.94249 -14030844.34546  21795447.935    21795452.563
  21910752.441   -14623033.19749 -11369973.88347  21910751.692    21910755.433
  21763894.570   -20259526.26349 -15746391.52447  21763894.080    21763897.757
  23353683.349    -6244738.38849  -4845801.94946  23353682.642    23353686.953
  23760729.520    -4299197.76349  -3337620.09445  23760729.030    23760734.831
  20826805.754   -23983331.87749 -18071752.10148  20826805.093    20826807.333
 03  3 21  1 12  0.0000000  0  8G14G15G17G23G 3G31G 9G18
  21701172.686   -17074305.94249 -13282235.13747  21701172.021    21701174.926
  20271084.904   -28884687.01649 -22493890.97248  20271084.001    20271087.626
  21806036.583   -18322024.71949 -13987489.14246  21806035.765    21806040.416
  21921002.357   -14569169.64949 -11328002.30047  21921001.606    21921005.322
  21759186.734   -20284266.01749 -15765669.23947  21759186.229    21759189.909
  23340083.068    -6316208.10049  -4901492.57846  23340082.367    23340086.727
  23752978.544    -4339929.39349  -3369358.94845  23752978.056    23752983.792
  20833806.660   -23946541.78349 -18043084.50348  20833805.996    20833808.282
 03  3 21  1 12 30.0000000  0  8G14G15G17G23G 3G31G 9G18
  21684840.240   -17160133.34049 -13349113.59547  21684839.568    21684842.476
  20272814.212   -28875599.34249 -22486809.67448  20272813.313    20272816.941
  21816683.627   -18266074.18949 -13943891.36946  21816682.824    21816687.491
  21931270.002   -14515212.89849 -11285958.09947  21931269.228    21931272.966
  21754584.439   -20308451.15249 -15784514.78547  21754583.945    21754587.635
  23326565.072    -6387245.44949  -4956846.29846  23326564.376    23326568.768
  23745312.938    -4380212.33649  -3400748.17445  23745312.393    23745318.081
  20840850.048   -23909528.53549 -18014243.02248  20840849.390    20840851.698
 03  3 21  1 13  0.0000000  0  8G14G15G17G23G 3G31G 9G18
  21668580.064   -17245580.97849 -13415696.13147  21668579.385    21668582.299
  20274613.865   -28866142.10349 -22479440.39848  20274612.948    20274616.594
  21827390.389   -18209809.94049 -13900049.13546  21827389.593    21827394.258
  21941555.618   -14461161.57249 -11243840.19847  21941554.848    21941558.598
  21750088.288   -20332078.43049 -15802925.63447  21750087.797    21750091.472
  23313130.271    -6457845.65449  -5011859.39546  23313129.606    23313133.879
  23737733.597    -4420041.75149  -3431784.00445  23737733.189    23737738.780
  20847936.114   -23872290.98549 -17985226.75648  20847935.455    20847937.797
 03  3 21  1 13 30.0000000  0  8G14G15G17G23G 3G31G 9G18
  21652391.938   -17330649.93049 -13481983.59647  21652391.282    21652394.173
  20276483.320   -28856318.06149 -22471785.30548  20276482.413    20276486.030
  21838156.148   -18153235.57649 -13855965.25146  21838155.350    21838160.039
  21951858.387   -14407020.18949 -11201652.12547  21951857.635    21951861.393
  21745697.765   -20355150.72849 -15820904.03947  21745697.277    21745700.932
  23299778.377    -6528009.98149  -5066532.83446  23299777.660    23299782.050
  23730240.346    -4459418.54249  -3462467.14445  23730239.997    23730245.491
  20855063.968   -23834833.80349 -17956039.35148  20855063.320    20855065.674
 03  3 21  1 14  0.0000000  0  8G14G15G17G23G 3G31G 9G18
  21636276.855   -17415335.19949 -13547972.08247  21636276.198    21636279.074
  20278423.310   -28846123.55349 -22463841.53448  20278422.390    20278426.000
  21848981.513   -18096348.01449 -13811637.31946  21848980.745    21848985.418
  21962178.628   -14352786.87149 -11159392.40747  21962177.881    21962181.679
  21741413.499   -20377664.47949 -15838447.20647  21741413.023    21741416.660
  23286510.390    -6597733.42349  -5120862.73146  23286509.695    23286514.050
  23722834.233    -4498337.49649  -3492793.53245  23722833.884    23722839.419
  20862233.923   -23797155.38049 -17926679.54848  20862233.286    20862235.638
 03  3 21  1 14 30.0000000  0  8G14G15G17G23G 3G31G 9G18
  21620234.965   -17499635.53449 -13613660.62047  21620234.303    21620237.177
  20280433.693   -28835558.79049 -22455609.25248  20280432.769    20280436.400
  21859866.345   -18039147.95049 -13767065.86646  21859865.540    21859870.232
  21972515.988   -14298463.76649 -11117062.73247  21972515.234    21972519.067
  21737235.519   -20399619.91849 -15855555.32747  21737235.035    21737238.694
  23273326.585    -6667014.71649  -5174848.10646  23273325.882    23273330.205
  23715515.468    -4536797.13549  -3522762.00845  23715515.090    23715520.661
  20869445.634   -23759257.84349 -17897149.00648  20869444.984    20869447.328
 03  3 21  1 15  0.0000000  0  8G14G15G17G23G 3G31G 9G18
  21604266.642   -17583549.59249 -13679048.16447  21604265.978    21604268.848
  20282514.619   -28824623.30649 -22447088.09948  20282513.718    20282517.368
  21870810.506   -17981636.31249 -13722251.64146  21870809.693    21870814.334
  21982870.088   -14244052.64349 -11074664.46747  21982869.356    21982873.204
  21733163.819   -20421016.85149 -15872228.24747  21733163.324    21733166.991
  23260227.140    -6735852.40249  -5228487.81246  23260226.471    23260230.746
  23708284.511    -4574795.81049  -3552371.28945  23708284.166    23708289.712
  20876698.645   -23721143.05649 -17867449.17948  20876698.003    20876700.309
 03  3 21  1 15 30.0000000  0  8G14G15G17G23G 3G31G 9G18
  21588372.534   -17667073.59649 -13744131.77547  21588371.871    21588374.746
  20284666.590   -28813314.79049 -22438276.27248  20284665.678    20284669.329
  21881814.197   -17923811.82849 -13677193.63346  21881813.376    21881818.025
  21993241.036   -14189553.07749 -11032197.28647  21993240.287    21993244.168
  21729198.742   -20441853.45949 -15888464.55047  21729198.249    21729201.912
  23247212.759    -6804242.87349  -5281779.02046  23247212.090    23247216.399
  23701142.064    -4612329.53449  -3581618.28445  23701141.741    23701147.166
  20883993.000   -23682811.02449 -17837580.07348  20883992.343    20883994.660
 03  3 21  1 16  0.0000000  0  8G14G15G17G23G 3G31G 9G18
  21572552.633   -17750207.62849 -13808911.50747  21572551.973    21572554.808
  20286889.261   -28801634.57949 -22429174.81448  20286888.349    20286891.993
  21892877.043   -17865676.24349 -13631893.21746  21892876.227    21892880.902
  22003628.193   -14134968.28049 -10989663.69747  22003627.456    22003631.327
  21725340.021   -20462131.14649 -15904265.33347  21725339.530    21725343.189
  23234283.556    -6872186.14349  -5334721.77246  23234282.891    23234287.171
  23694088.068    -4649398.31449  -3610502.98045  23694087.745    23694093.076
  20891328.037   -23644265.03449 -17807544.24848  20891327.375    20891329.713
 03  3 21  1 16 30.0000000  0  8G14G15G17G23G 3G31G 9G18
  21556807.938   -17832946.41649 -13873383.25747  21556807.263    21556810.109
  20289183.380   -28789579.02249 -22419780.87548  20289182.461    20289186.095
  21903999.615   -17807226.83549 -13586348.25946  21903998.827    21904003.516
  22014031.946   -14080296.17449 -10947062.06947  22014031.213    22014035.114
  21721588.331   -20481846.37349 -15919627.83247  21721587.848    21721591.488
  23221440.396    -6939676.92349  -5387311.92546  23221439.732    23221444.034
  23687123.571    -4685996.72349  -3639021.15345  23687123.186    23687128.557
  20898704.131   -23605503.46249 -17777340.43648  20898703.469    20898705.821
 03  3 21  1 17  0.0000000  0  8G14G15G17G23G 3G31G 9G18
  21541138.520   -17915289.73249 -13937546.85447  21541137.861    21541140.674
  20291548.736   -28777149.12149 -22410095.24248  20291547.794    20291551.404
  21915181.532   -17748465.68649 -13540560.39146  21915180.746    21915185.437
  22024451.711   -14025539.90349 -10904394.86247  22024450.990    22024454.902
  21717943.408   -20501000.58449 -15934553.17847  21717942.911    21717946.562
  23208683.344    -7006715.22549  -5439549.51246  23208682.683    23208687.022
  23680248.684    -4722124.42649  -3667172.54845  23680248.306    23680253.696
  20906120.701   -23566529.26749 -17746970.94148  20906120.034    20906122.393
 03  3 21  1 17 30.0000000  0  8G14G15G17G23G 3G31G 9G18
  21525544.627   -17997235.96549 -14001401.03347  21525543.976    21525546.791
  20293985.396   -28764344.40149 -22400117.54248  20293984.477    20293988.081
  21926422.800   -17689392.47549 -13494529.35046  21926422.024    21926426.718
  22034887.266   -13970700.85049 -10861663.15247  22034886.535    22034890.430
  21714405.258   -20519593.72449 -15949041.32547  21714404.760    21714408.392
  23196012.836    -7073299.28949  -5491433.13646  23196012.175    23196016.467
  23673463.641    -4757779.43349  -3694955.59345  23673463.293    23673468.641
  20913577.411   -23527343.88949 -17716436.88948  20913576.742    20913579.096
 03  3 21  1 18  0.0000000  0  8G14G15G17G23G 3G31G 9G18
  21510027.048   -18078781.28349 -14064942.80647  21510026.389    21510029.191
  20296493.773   -28751162.75249 -22389846.12848  20296492.850    20296496.453
  21937723.737   -17630005.89049 -13448254.12746  21937722.930    21937727.688
  22045338.745   -13915778.11849 -10818866.22947  22045337.990    22045341.895
  21710974.246   -20537623.70249 -15963090.64647  21710973.756    21710977.391
  23183429.473    -7139425.29349  -5542959.83546  23183428.797    23183433.074
  23666769.403    -4792957.60849  -3722367.10045  23666769.007    23666774.376
  20921074.397   -23487947.00549 -17685738.02848  20921073.742    20921076.087
 03  3 21  1 18 30.0000000  0  8G14G15G17G23G 3G31G 9G18
  21494585.946   -18159924.77949 -14128171.47147  21494585.278    21494588.055
  20299073.820   -28737604.54149 -22379281.29348  20299072.894    20299076.500
  21949084.055   -17570307.15049 -13401735.66246  21949083.246    21949088.024
  22055805.676   -13860774.14349 -10776006.00247  22055804.924    22055808.777
  21707650.250   -20555091.48849 -15976701.89447  21707649.767    21707653.391
  23170933.400    -7205092.51849  -5594129.04446  23170932.747    23170936.936
  23660166.049    -4827658.16849  -3749406.43045  23660165.638    23660170.972
  20928611.158   -23448341.13449 -17654876.32148  20928610.514    20928612.835
 03  3 21  1 19  0.0000000  0  8G14G15G17G23G 3G31G 9G18
  21479222.114   -18240662.32549 -14191083.81347  21479221.454    21479224.207
  20301726.019   -28723667.12749 -22368420.97248  20301725.098    20301728.686
  21960504.112   -17510294.27649 -13354972.42146  21960503.320    21960508.131
  22066288.257   -13805687.85749 -10733081.63647  22066287.507    22066291.353
  21704433.751   -20571994.22549 -15989872.84847  21704433.254    21704436.872
  23158525.405    -7270296.83949  -5644937.55146  23158524.757    23158528.917
  23653654.411    -4861876.84549  -3776070.26945  23653654.016    23653659.361
  20936187.831   -23408525.41449 -17623851.09148  20936187.179    20936189.503
 03  3 21  1 19 30.0000000  0  8G14G15G17G23G 3G31G 9G18
  21463934.888   -18320997.14849 -14253682.35047  21463934.228    21463936.950
  20304449.574   -28709354.83649 -22357268.54248  20304448.663    20304452.255
  21971983.005   -17449972.35549 -13307968.36646  21971982.203    21971987.048
  22076785.313   -13750525.61549 -10690098.09347  22076784.550    22076788.409
  21701323.848   -20588336.77149 -16002607.29147  21701323.347    21701326.943
  23146204.909    -7335041.28049  -5695387.71946  23146204.256    23146208.436
  23647233.929    -4895616.57949  -3802360.90845  23647233.491    23647238.892
  20943803.225   -23368506.16649 -17592667.27348  20943802.587    20943804.924
 03  3 21  1 20  0.0000000  0  8G14G15G17G23G 3G31G 9G18
  21448725.813   -18400921.09149 -14315960.71447  21448725.167    21448727.880
  20307245.714   -28694660.83449 -22345818.67648  20307244.797    20307248.409
  21983521.841   -17389335.47749 -13260718.89146  21983521.045    21983525.888
  22087297.801   -13695282.31449 -10647051.38247  22087297.053    22087300.895
  21698321.741   -20604112.85349 -16014900.33247  21698321.235    21698324.854
  23133973.400    -7399318.06349  -5745473.47346  23133972.814    23133976.928
  23640906.164    -4928869.10149  -3828271.88545  23640905.752    23640911.070
  20951458.298   -23328278.64949 -17561321.16548  20951457.638    20951460.007
 03  3 21  1 20 30.0000000  0  8G14G15G17G23G 3G31G 9G18
  21433595.173   -18480432.92749 -14377917.95647  21433594.521    21433597.259
  20310114.531   -28679585.07949 -22334071.33648  20310113.621    20310117.243
  21995120.445   -17328384.70249 -13213224.81446  21995119.645    21995124.495
  22097825.362   -13639959.74149 -10603942.90147  22097824.604    22097828.428
  21695427.314   -20619323.03949 -16026752.41247  21695426.809    21695430.464
  23121831.204    -7463125.68449  -5795193.64746  23121830.560    23121834.654
  23634671.341    -4961632.91249  -3853802.05645  23634670.948    23634676.247
  20959152.633   -23287844.65049 -17529814.16247  20959151.981    20959154.332
 03  3 21  1 21  0.0000000  0  8G14G15G17G23G 3G31G 9G18
  21418542.393   -18559535.67149 -14439556.42747  21418541.732    21418544.489
  20313055.120   -28664131.99449 -22322029.97648  20313054.225    20313057.864
  22006777.804   -17267125.22849 -13165490.20146  22006776.975    22006781.809
  22108366.854   -13584563.89249 -10560777.32247  22108366.077    22108369.902
  21692639.739   -20633971.80849 -16038167.02447  21692639.238    21692642.898
  23109777.613    -7526467.29649  -5844550.69646  23109777.005    23109781.104
  23628528.949    -4993910.98649  -3878953.73145  23628528.521    23628533.921
  20966884.968   -23247210.75649 -17498151.40047  20966884.328    20966886.710
 03  3 21  1 21 30.0000000  0  8G14G15G17G23G 3G31G 9G18
  21403569.168   -18638220.43649 -14500869.19847  21403568.508    21403571.258
  20316069.045   -28648293.79149 -22309688.51948  20316068.149    20316071.771
  22018495.166   -17205550.36649 -13117509.82646  22018494.314    22018499.204
  22118923.382   -13529088.81749 -10517550.00147  22118922.638    22118926.440
  21689960.368   -20648051.78849 -16049138.42447  21689959.873    21689963.540
  23097814.384    -7589334.08949  -5893537.75846  23097813.757    23097817.889
  23622480.714    -5025694.49949  -3903720.02845  23622480.317    23622485.628
  20974656.521   -23206371.06349 -17466328.26747  20974655.888    20974658.258
 03  3 21  1 22  0.0000000  0  8G14G15G17G23G 3G31G 9G18
  21388674.699   -18716491.28949 -14561859.44047  21388674.039    21388676.781
  20319155.149   -28632076.19649 -22297051.43748  20319154.252    20319157.865
  22030271.409   -17143665.95749 -13069288.24946  22030270.571    22030275.431
  22129493.596   -13473541.72149 -10474266.56647  22129492.871    22129496.699
  21687388.066   -20661569.24249 -16059671.49647  21687387.594    21687391.240
  23085940.722    -7651730.34749  -5942158.16546  23085940.126    23085944.189
  23616525.814    -5056987.49649  -3928104.10945  23616525.370    23616530.614
  20982465.807   -23165332.97449 -17434350.54447  20982465.162    20982467.545
 03  3 21  1 22 30.0000000  0  8G14G15G17G23G 3G31G 9G18
  21373860.351   -18794341.16649 -14622521.64547  21373859.665    21373862.402
  20322314.631   -28615473.25649 -22284114.08048  20322313.725    20322317.320
  22042107.531   -17081466.78049 -13020821.38546  22042106.727    22042111.586
  22140078.416   -13417918.24549 -10430923.60247  22140077.703    22140081.526
  21684923.875   -20674518.64049 -16069761.91747  21684923.390    21684927.027
  23074157.964    -7713648.88049  -5990406.32946  23074157.363    23074161.421
  23610665.613    -5087782.57549  -3952100.19745  23610665.167    23610670.442
  20990313.585   -23124092.60449 -17402215.19347  20990312.929    20990315.302
 03  3 21  1 23  0.0000000  0  8G14G15G17G23G 3G31G 9G18
  21359125.942   -18871770.88549 -14682856.46247  21359125.265    21359127.984
  20325547.011   -28598486.99249 -22270878.03948  20325546.117    20325549.701
  22054002.966   -17018956.00449 -12972111.72946  22054002.172    22054007.072
  22150677.051   -13362222.13149 -10387524.05447  22150676.306    22150680.171
  21682567.353   -20686902.25149 -16079411.47847  21682566.861    21682570.498
  23062465.998    -7775090.34049  -6038282.75446  23062465.358    23062469.420
  23604900.125    -5118080.33349  -3975708.76345  23604899.678    23604904.903
  20998199.176   -23082653.44849 -17369924.95247  20998198.530    20998200.939
 03  3 21  1 23 30.0000000  0  8G14G15G17G23G 3G31G 9G18
  21344472.035   -18948777.34949 -14742861.46147  21344471.390    21344474.084
  20328852.663   -28581115.71749 -22257341.98148  20328851.759    20328855.354
  22065957.800   -16956132.78849 -12923158.61646  22065957.036    22065961.939
  22161289.503   -13306453.25649 -10344067.80447  22161288.749    22161292.654
  21680318.661   -20698719.03649 -16088619.34947  21680318.168    21680321.812
  23050865.377    -7836051.82249  -6085785.15146  23050864.719    23050868.735
  23599229.807    -5147877.71649  -3998927.43145  23599229.394    23599234.543
  21006122.557   -23041015.84949 -17337480.07647  21006121.924    21006124.300
 03  3 21  1 24  0.0000000  0  8G14G15G17G23G 3G31G 9G18
  21329899.012   -19025358.93849 -14802535.39447  21329898.369    21329901.057
  20332231.660   -28563358.82449 -22243505.44348  20332230.759    20332234.366
  22077972.139   -16892997.17649 -12873962.06746  22077971.358    22077976.281
  22171915.601   -13250612.69049 -10300555.69147  22171914.873    22171918.795
  21678177.847   -20709968.96749 -16097385.52147  21678177.360    21678181.018
  23039356.431    -7896531.61649  -6132912.22146  23039355.796    23039359.776
  23593655.054    -5177172.95849  -4021754.81845  23593654.693    23593659.753
  21014083.456   -22999181.21049 -17304881.66147  21014082.813    21014085.193
 03  3 21  1 24 30.0000000  0  8G14G15G17G23G 3G31G 9G18
  21315407.424   -19101512.58849 -14861875.86747  21315406.771    21315409.436
  20335684.331   -28545214.88149 -22229367.30648  20335683.419    20335687.071
  22090046.038   -16829548.56049 -12824521.62046  22090045.250    22090050.182
  22182555.349   -13194700.62849 -10256987.86247  22182554.607    22182558.530
  21676145.163   -20720650.89249 -16105709.09347  21676144.697    21676148.330
  23027939.671    -7956526.98949  -6179661.80846  23027939.029    23027942.945
  23588176.398    -5205962.97949  -4044188.53245  23588176.006    23588181.154
  21022081.769   -22957149.86349 -17272129.96547  21022081.116    21022083.496
 03  3 21  1 25  0.0000000  0  8G14G15G17G23G 3G31G 9G18
  21300997.236   -19177238.49949 -14920883.03347  21300996.607    21300999.219
  20339210.408   -28526685.19749 -22214928.58648  20339209.498    20339213.151
  22102179.090   -16765789.21849 -12774839.05246  22102178.281    22102183.189
  22193208.125   -13138720.05949 -10213366.65047  22193207.352    22193211.245
  21674220.164   -20730766.77849 -16113591.58847  21674219.680    21674223.294
  23016615.019    -8016038.15849  -6226034.09946  23016614.389    23016618.226
  23582793.847    -5234247.93549  -4066228.68245  23582793.472    23582798.598
  21030116.916   -22914924.72049 -17239227.26147  21030116.274    21030118.649
 03  3 21  1 25 30.0000000  0  8G14G15G17G23G 3G31G 9G18
  21286669.122   -19252533.19249 -14979554.18947  21286668.466    21286671.072
  20342810.375   -28507767.35249 -22200187.41148  20342809.476    20342813.111
  22114371.526   -16701717.56649 -12724913.12846  22114370.740    22114375.669
  22203874.082   -13082670.12149 -10169691.38247  22203873.318    22203877.206
  21672403.195   -20740315.02849 -16121031.77447  21672402.718    21672406.304
  23005383.218    -8075061.53549  -6272026.29146  23005382.585    23005386.426
  23577508.153    -5262024.06349  -4087872.35345  23577507.811    23577512.930
  21038189.050   -22872505.46849 -17206173.30647  21038188.415    21038190.785
 03  3 21  1 26  0.0000000  0  8G14G15G17G23G 3G31G 9G18
  21272423.094   -19327396.33849 -15037889.07147  21272422.409    21272425.033
  20346483.980   -28488462.42049 -22185144.60648  20346483.073    20346486.708
  22126623.072   -16637335.30449 -12674745.16246  22126622.298    22126627.245
  22214552.730   -13026553.26549 -10125963.97547  22214551.986    22214555.895
  21670694.023   -20749296.81149 -16128030.55247  21670693.531    21670697.114
  22994244.308    -8133596.83449  -6317638.17246  22994243.676    22994247.486
  23572319.319    -5289291.23549  -4109119.44045  23572318.933    23572324.047
  21046297.589   -22829894.85049 -17172970.23147  21046296.942    21046299.311
 03  3 21  1 26 30.0000000  0  8G14G15G17G23G 3G31G 9G18
  21258260.090   -19401823.24149 -15095884.02347  21258259.413    21258262.053
  20350231.913   -28468766.88849 -22169797.43348  20350231.008    20350234.646
  22138934.180   -16572639.95549 -12624333.23646  22138933.415    22138938.408
  22225244.546   -12970367.44649 -10082182.82747  22225243.804    22225247.696
  21669093.140   -20757709.43849 -16134585.83847  21669092.649    21669096.248
  22983199.173    -8191639.34449  -6362866.05746  22983198.503    22983202.290
  23567228.283    -5316044.57049  -4129966.12645  23567227.917    23567232.964
  21054442.886   -22787091.12449 -17139616.68247  21054442.233    21054444.614
 03  3 21  1 27  0.0000000  0  8G14G15G17G23G 3G31G 9G18
  21244179.736   -19475815.64549 -15153540.41447  21244179.071    21244181.712
  20354053.591   -28448683.73849 -22154148.23048  20354052.693    20354056.332
  22151304.149   -16507635.38549 -12573680.36746  22151303.372    22151308.352
  22235948.625   -12914117.17049 -10038351.45347  22235947.874    22235951.764
  21667599.845   -20765556.52249 -16140700.44547  21667599.363    21667602.961
  22972247.410    -8249190.94249  -6407711.42146  22972246.764    22972250.530
  23562234.781    -5342285.58949  -4150413.60545  23562234.425    23562239.448
  21062624.052   -22744098.94249 -17106116.29147  21062623.389    21062625.798
 03  3 21  1 27 30.0000000  0  8G14G15G17G23G 3G31G 9G18
  21230183.588   -19549365.68149 -15210852.09447  21230182.950    21230185.565
  20357950.285   -28428206.29749 -22138191.78348  20357949.385    20357953.058
  22163734.168   -16442315.46749 -12522781.76346  22163733.367    22163738.335
  22246666.014   -12857797.27649  -9994465.82647  22246665.254    22246669.138
  21666215.441   -20772831.75149 -16146369.44547  21666214.952    21666218.539
  22961390.597    -8306243.69049  -6452168.05146  22961389.891    22961393.708
  23557340.211    -5368006.32049  -4170455.67245  23557339.883    23557344.829
  21070841.990   -22700913.43249 -17072465.25347  21070841.330    21070843.709
 03  3 21  1 28  0.0000000  0  8G14G15G17G23G 3G31G 9G18
  21216270.524   -19622479.26649 -15267823.68047  21216269.872    21216272.491
  20361920.665   -28407341.87249 -22121933.78748  20361919.776    20361923.463
  22176222.613   -16376688.44449 -12471643.85446  22176221.791    22176226.781
  22257394.895   -12801416.57449  -9950532.81547  22257394.147    22257398.055
  21664938.304   -20779543.12949 -16151599.08047  21664937.816    21664941.378
  22950627.494    -8362803.74349  -6496240.77446  22950626.812    22950630.680
  23552543.449    -5393212.99549  -4190097.16545  23552543.154    23552548.163
  21079095.010   -22657543.65549 -17038670.62147  21079094.357    21079096.703
 03  3 21  1 28 30.0000000  0  8G14G15G17G23G 3G31G 9G18
  21202441.637   -19695150.43149 -15324450.52947  21202440.986    21202443.603
  20365965.637   -28386085.51949 -22105370.40448  20365964.726    20365968.442
  22188770.310   -16310749.93749 -12420263.23846  22188769.495    22188774.450
  22268135.993   -12744971.62349  -9906549.74647  22268135.241    22268139.156
  21663769.269   -20785686.41449 -16156386.04847  21663768.775    21663772.329
  22939959.297    -8418865.25849  -6539925.01846  22939958.657    22939962.484
  23547845.672    -5417899.70249  -4209333.50945  23547845.406    23547850.399
  21087383.652   -22613986.57849 -17004730.05247  21087382.998    21087385.354
 03  3 21  1 29  0.0000000  0  8G14G15G17G23G 3G31G 9G18
  21188697.431   -19767376.61149 -15380730.63447  21188696.791    21188699.392
  20370085.406   -28364435.97049 -22088500.62548  20370084.494    20370088.207
  22201377.333   -16244499.75749 -12368639.75746  22201376.517    22201381.432
  22278889.356   -12688462.47849  -9862516.65047  22278888.586    22278892.498
  21662708.511   -20791260.84449 -16160729.75447  21662708.019    21662711.528
  22929386.491    -8474425.48849  -6583218.66146  22929385.847    22929389.684
  23543247.408    -5442063.60249  -4228162.45045  23543247.079    23543252.055
  21095707.918   -22570242.26149 -16970643.57947  21095707.276    21095709.633
 03  3 21  1 29 30.0000000  0  8G14G15G17G23G 3G31G 9G18
  21175038.402   -19839155.25449 -15436662.01047  21175037.746    21175040.355
  20374280.227   -28342391.78549 -22071323.34048  20374279.320    20374283.064
  22214043.780   -16177937.20249 -12316772.86246  22214042.958    22214047.928
  22289654.886   -12631889.27249  -9818433.64847  22289654.113    22289658.019
  21661756.064   -20796265.87949 -16164629.77447  21661755.569    21661759.065
  22918909.505    -8529482.12549  -6626119.90146  22918908.889    22918912.731
  23538749.093    -5465702.04549  -4246581.95945  23538748.774    23538753.681
  21104067.726   -22526311.18949 -16936411.58047  21104067.078    21104069.440
 03  3 21  1 30  0.0000000  0  8G14G15G17G23G 3G31G 9G18
  21161463.971   -19910489.20549 -15492246.87247  21161463.324    21161465.941
  20378549.403   -28319956.96549 -22053841.66348  20378548.504    20378552.260
  22226768.723   -16111067.13849 -12264666.34746  22226767.939    22226772.900
  22300431.572   -12575257.44449  -9774304.95547  22300430.823    22300434.701
  21660911.054   -20800706.37149 -16168089.88447  21660910.564    21660914.079
  22908527.873    -8584037.88649  -6668630.82646  22908527.217    22908531.051
  23534350.296    -5488817.86249  -4264594.22445  23534349.929    23534354.828
  21112461.994   -22482198.95349 -16902038.40947  21112461.357    21112463.733
 03  3 21  1 30 30.0000000  0  8G14G15G17G23G 3G31G 9G18
  21147975.815   -19981369.75149 -15547478.43947  21147975.171    21147977.797
  20382894.363   -28297124.16749 -22036049.87948  20382893.466    20382897.214
  22239553.525   -16043882.63949 -12212314.81546  22239552.738    22239557.709
  22311220.584   -12518560.88249  -9730125.82947  22311219.834    22311223.718
  21660174.782   -20804575.35949 -16171104.67847  21660174.284    21660177.846
  22898243.171    -8638084.19949  -6710744.80546  22898242.506    22898246.278
  23530052.541    -5511402.49549  -4282192.57745  23530052.164    23530057.064
  21120891.850   -22437899.80449 -16867519.59847  21120891.201    21120893.583
 03  3 21  1 31  0.0000000  0  8G14G15G17G23G 3G31G 9G18
  21134572.465   -20051804.59149 -15602362.69747  21134571.820    21134574.467
  20387313.364   -28273902.17249 -22017954.82048  20387312.437    20387316.223
  22252396.168   -15976394.25449 -12159726.48446  22252395.367    22252400.356
  22322019.949   -12461809.81449  -9685904.22647  22322019.207    22322023.105
  21659545.457   -20807882.20249 -16173681.43447  21659544.959    21659548.569
  22888053.917    -8691628.81349  -6752467.83346  22888053.290    22888057.080
  23525854.383    -5533463.43949  -4299382.86445  23525853.990    23525858.887
  21129355.270   -22393424.09949 -16832863.20847  21129354.632    21129357.030
 03  3 21  1 31 30.0000000  0  8G14G15G17G23G 3G31G 9G18
  21121256.027   -20121782.61249 -15656890.99647  21121255.389    21121258.026
  20391808.288   -28250281.05349 -21999548.75448  20391807.386    20391811.178
  22265298.506   -15908592.41349 -12106893.91246  22265297.675    22265302.669
  22332831.330   -12404995.65749  -9641633.46947  22332830.583    22332834.503
  21659024.908   -20810617.63949 -16175812.93647  21659024.439    21659028.040
  22877962.280    -8744660.61849  -6793791.27946  22877961.647    22877965.455
  23521758.053    -5554989.78749  -4316156.58045  23521757.626    23521762.501
  21137853.919   -22348763.54549 -16798062.78047  21137853.279    21137855.650
 03  3 21  1 32  0.0000000  0  8G14G15G17G23G 3G31G 9G18
  21108026.084   -20191306.34449 -15711065.30247  21108025.438    21108028.095
  20396378.479   -28226264.53349 -21980834.57948  20396377.572    20396381.365
  22278259.623   -15840481.43649 -12053820.45446  22278258.812    22278263.820
  22343653.747   -12348123.51849  -9597317.52447  22343652.991    22343656.925
  21658612.209   -20812786.45449 -16177502.91247  21658611.735    21658615.338
  22867967.651    -8797182.40049  -6834717.29146  22867967.006    22867970.840
  23517762.901    -5575984.09149  -4332515.72345  23517762.492    23517767.404
  21146386.683   -22303923.69249 -16763122.63747  21146386.042    21146388.399
 03  3 21  1 32 30.0000000  0  8G14G15G17G23G 3G31G 9G18
  21094882.962   -20260373.87549 -15764884.12647  21094882.307    21094884.952
  20401024.076   -28201851.74549 -21961811.63348  20401023.175    20401026.960
  22291279.548   -15772061.19649 -12000506.02046  22291278.749    22291283.808
  22354487.171   -12291193.56849  -9552956.53647  22354486.431    22354490.340
  21658307.331   -20814388.32449 -16178751.11547  21658306.856    21658310.466
  22858070.544    -8849192.02049  -6875244.21846  22858069.868    22858073.743
  23513869.488    -5596444.04849  -4348458.48845  23513869.098    23513873.998
  21154953.425   -22258905.08149 -16728043.20147  21154952.781    21154955.136
 03  3 21  1 33  0.0000000  0  8G14G15G17G23G 3G31G 9G18
  21081827.211   -20328982.16649 -15818345.10147  21081826.565    21081829.190
  20405745.389   -28177041.12849 -21942478.68948  20405744.477    20405748.272
  22304358.481   -15703331.03549 -11946950.08546  22304357.704    22304362.762
  22365331.641   -12234205.43249  -9508550.21047  22365330.884    22365334.813
  21658110.621   -20815422.01749 -16179556.58447  21658110.152    21658113.746
  22848271.425    -8900686.58449  -6915369.82146  22848270.741    22848274.621
  23510078.210    -5616366.91849  -4363982.75545  23510077.842    23510082.731
  21163554.249   -22213707.45149 -16692824.27647  21163553.607    21163555.961
 03  3 21  1 33 30.0000000  0  8G14G15G17G23G 3G31G 9G18
  21068858.582   -20397132.82149 -15871449.47647  21068857.923    21068860.524
  20410541.863   -28151835.34849 -21922837.82048  20410540.967    20410544.771
  22317495.803   -15634294.17749 -11893155.16346  22317495.009    22317500.061
  22376186.368   -12177163.35449  -9464101.84747  22376185.609    22376189.569
  21658021.297   -20815891.41549 -16179922.33947  21658020.804    21658024.420
  22838569.973    -8951667.92249  -6955095.49846  22838569.307    22838573.131
  23506388.787    -5635754.49749  -4379089.89745  23506388.386    23506393.346
  21172188.265   -22168335.28149 -16657469.34247  21172187.620    21172190.006
 03  3 21  1 34  0.0000000  0  8G14G15G17G23G 3G31G 9G18
  21055978.183   -20464819.78749 -15924192.53847  21055977.530    21055980.099
  20415414.539   -28126229.37649 -21902885.11848  20415413.653    20415417.449
  22330692.201   -15564946.84249 -11839118.29546  22330691.384    22330696.502
  22387052.123   -12120063.42149  -9419608.40547  22387051.397    22387055.348
  21658040.157   -20815792.25349 -16179845.06447  21658039.661    21658043.287
  22828967.350    -9002129.97849  -6994416.53046  22828966.675    22828970.481
  23502802.441    -5654600.79049  -4393775.26445  23502802.069    23502806.963
  21180856.126   -22122785.18749 -16621975.76847  21180855.489    21180857.909
 03  3 21  1 34 30.0000000  0  8G14G15G17G23G 3G31G 9G18
  21043185.365   -20532046.41949 -15976576.88847  21043184.706    21043187.255
  20420362.456   -28100227.77649 -21882624.12448  20420361.578    20420365.349
  22343946.630   -15495294.35749 -11784843.65546  22343945.818    22343950.973
  22397927.844   -12062911.37149  -9375074.34747  22397927.098    22397931.047
  21658166.183   -20815129.92849 -16179328.95247  21658165.674    21658169.313
  22819462.865    -9052076.16649  -7033335.59346  22819462.175    22819465.994
  23499318.513    -5672908.95949  -4408041.31745  23499318.111    23499322.929
  21189556.768   -22077062.94849 -16586348.05247  21189556.116    21189558.578
 03  3 21  1 35  0.0000000  0  8G14G15G17G23G 3G31G 9G18
  21030481.295   -20598806.58549 -16028597.76647  21030480.641    21030483.188
  20425386.659   -28073825.44449 -21862050.88048  20425385.780    20425389.555
  22357259.895   -15425332.60149 -11730328.02346  22357259.122    22357264.318
  22408814.089   -12005703.60249  -9330496.87747  22408813.351    22408817.307
  21658400.143   -20813900.24049 -16178370.74747  21658399.652    21658403.296
  22810057.681    -9101500.45049  -7071847.98846  22810056.976    22810060.838
  23495938.083    -5690672.99849  -4421883.36845  23495937.671    23495942.529
  21198290.833   -22031165.19349 -16550583.57547  21198290.189    21198292.630
 03  3 21  1 35 30.0000000  0  8G14G15G17G23G 3G31G 9G18
  21017866.491   -20665097.53049 -16080253.01847  21017865.844    21017868.406
  20430487.406   -28047020.89149 -21841164.22148  20430486.518    20430490.274
  22370632.122   -15355061.02349 -11675570.98246  22370631.334    22370636.580
  22419711.077   -11948439.67849  -9285875.65047  22419710.337    22419714.306
  21658742.272   -20812102.30349 -16176969.75147  21658741.795    21658745.449
  22800752.326    -9150400.15549  -7109951.61646  22800751.648    22800755.501
  23492661.748    -5707890.19149  -4435299.31945  23492661.379    23492666.230
  21207058.267   -21985091.90349 -16514682.31847  21207057.619    21207060.070
 03  3 21  1 36  0.0000000  0  8G14G15G17G23G 3G31G 9G18
  21005340.139   -20730923.64149 -16131546.05547  21005339.496    21005342.072
  20435663.657   -28019819.63149 -21819968.43148  20435662.755    20435666.514
  22384062.211   -15284485.62949 -11620577.18746  22384061.407    22384066.663
  22430617.453   -11891126.14849  -9241215.76747  22430616.747    22430620.703
  21659191.294   -20809742.66049 -16175131.05347  21659190.794    21659194.431
  22791545.961    -9198779.81949  -7147650.01246  22791545.291    22791549.176
  23489488.547    -5724565.13449  -4448292.73145  23489488.126    23489493.021
  21215857.797   -21938850.06449 -16478649.71547  21215857.158    21215859.593
 03  3 21  1 36 30.0000000  0  8G14G15G17G23G 3G31G 9G18
  20992903.322   -20796279.31849 -16182472.52147  20992902.686    20992905.244
  20440916.245   -27992217.09449 -21798459.95648  20440915.359    20440919.068
  22397550.789   -15213602.67949 -11565343.74346  22397549.979    22397555.270
  22441533.925   -11833759.74349  -9196514.68047  22441533.230    22441537.205
  21659747.902   -20806817.67549 -16172851.83647  21659747.389    21659751.006
  22782439.634    -9246633.82649  -7184938.80146  22782438.966    22782442.817
  23486419.642    -5740692.21949  -4460859.22745  23486419.221    23486424.096
  21224689.975   -21892436.72549 -16442483.48047  21224689.333    21224691.735
 03  3 21  1 37  0.0000000  0  8G14G15G17G23G 3G31G 9G18
  20980556.413   -20861162.53449 -16233030.83947  20980555.774    20980558.330
  20446245.452   -27964212.09349 -21776637.88248  20446244.559    20446248.261
  22411098.026   -15142411.60649 -11509870.20046  22411097.240    22411102.479
  22452460.458   -11776340.52449  -9151772.45247  22452459.756    22452463.750
  21660412.160   -20803326.85249 -16170131.71347  21660411.659    21660415.257
  22773433.678    -9293960.12749  -7221816.39646  22773433.040    22773436.898
  23483455.381    -5756269.42649  -4472997.27545  23483454.972    23483459.816
  21233554.741   -21845852.08149 -16406183.75947  21233554.086    21233556.493
 03  3 21  1 37 30.0000000  0  8G14G15G17G23G 3G31G 9G18
  20968299.011   -20925575.54349 -16283222.76147  20968298.369    20968300.949
  20451650.499   -27935808.36849 -21754505.10948  20451649.618    20451653.318
  22424703.050   -15070917.08049 -11454160.19946  22424702.252    22424707.482
  22463396.159   -11718873.10649  -9106992.65647  22463395.445    22463399.412
  21661183.237   -20799274.74749 -16166974.21947  21661182.745    21661186.342
  22764527.727    -9340761.17649  -7258284.71146  22764527.066    22764530.910
  23480595.273    -5771299.19449  -4484708.73645  23480594.883    23480599.649
  21242451.156   -21799100.92149 -16369754.28847  21242450.517    21242452.923
 03  3 21  1 38  0.0000000  0  8G14G15G17G23G 3G31G 9G18
  20956132.059   -20989512.99449 -16333044.11547  20956131.432    20956134.008
  20457132.248   -27907001.52149 -21732058.21348  20457131.363    20457135.066
  22438366.394   -14999115.81549 -11398211.18246  22438365.543    22438370.865
  22474341.637   -11661354.21649  -9062172.75047  22474340.917    22474344.857
  21662061.786   -20794657.88549 -16163376.65247  21662061.287    21662064.923
  22755722.768    -9387031.56849  -7294339.52446  22755722.092    22755725.896
  23477840.350    -5785776.11149  -4495989.41445  23477840.000    23477844.732
  21251379.795   -21752180.62849 -16333193.02447  21251379.186    21251381.592
 03  3 21  1 38 30.0000000  0  8G14G15G17G23G 3G31G 9G18
  20944055.739   -21052974.44449 -16382494.56147  20944055.112    20944057.680
  20462690.614   -27877792.04049 -21709297.58048  20462689.735    20462693.422
  22452087.826   -14927009.13449 -11342024.16946  22452086.974    22452092.300
  22485296.585   -11603785.61449  -9017314.10246  22485295.834    22485299.788
  21663047.545   -20789477.73949 -16159340.16847  21663047.045    21663050.655
  22747018.793    -9432771.09949  -7329980.68046  22747018.117    22747021.930
  23475190.716    -5799699.87749  -4506839.04745  23475190.354    23475195.037
  21260340.260   -21705093.10949 -16296501.45547  21260339.633    21260342.058
 03  3 21  1 39  0.0000000  0  8G14G15G17G23G 3G31G 9G18
  20932070.536   -21115956.92449 -16431571.78947  20932069.910    20932072.460
  20468325.968   -27848178.19649 -21686221.86348  20468325.073    20468328.757
  22465867.688   -14854595.66449 -11285598.12946  22465866.843    22465872.138
  22496261.146   -11546166.55649  -8972416.14546  22496260.403    22496264.330
  21664140.654   -20783733.50749 -16154864.14147  21664140.158    21664143.711
  22738416.345    -9477976.90549  -7365205.95046  22738415.693    22738419.511
  23472646.820    -5813067.91149  -4517255.66345  23472646.455    23472651.202
  21269332.638   -21657837.92949 -16259679.24247  21269331.998    21269334.432
 03  3 21  1 39 30.0000000  0  8G14G15G17G23G 3G31G 9G18
  20920176.632   -21178459.81549 -16480275.30947  20920176.004    20920178.558
  20474038.205   -27818160.24349 -21662831.25448  20474037.309    20474040.962
  22479705.549   -14781877.06549 -11228934.31446  22479704.714    22479710.046
  22507235.012   -11488498.57249  -8927480.06446  22507234.276    22507238.193
  21665340.775   -20777426.82449 -16149949.83947  21665340.277    21665343.834
  22729915.566    -9522648.51849  -7400014.95346  22729914.907    22729918.722
  23470208.793    -5825879.46349  -4527238.63945  23470208.403    23470213.178
  21278356.592   -21610416.81649 -16222727.73047  21278355.931    21278358.351
 03  3 21  1 40  0.0000000  0  8G14G15G17G23G 3G31G 9G18
  20908373.433   -21240485.79249 -16528607.21247  20908372.825    20908375.369
  20479826.568   -27787742.28649 -21639128.96048  20479825.682    20479829.313
  22493600.653   -14708857.76249 -11172036.18846  22493599.825    22493605.145
  22518217.283   -11430786.39049  -8882509.54246  22518216.553    22518220.437
  21666647.042   -20770562.25949 -16144600.82447  21666646.553    21666650.088
  22721515.984    -9566788.53749  -7434409.75146  22721515.362    22721519.119
  23467876.096    -5838137.42949  -4536790.26045  23467875.758    23467880.510
  21287411.162   -21562834.69549 -16185650.75547  21287410.512    21287412.945
 03  3 21  1 40 30.0000000  0  8G14G15G17G23G 3G31G 9G18
  20896662.463   -21302027.32149 -16576561.60947  20896661.832    20896664.376
  20485692.291   -27756917.73649 -21615109.82648  20485691.391    20485695.027
  22507554.090   -14635532.09049 -11114899.33646  22507553.265    22507558.627
  22529209.019   -11373024.56649  -8837500.32346  22529208.294    22529212.139
  21668060.523   -20763134.40849 -16138812.88147  21668060.044    21668063.515
  22713218.916    -9610389.75249  -7468384.68046  22713218.306    22713222.007
  23465650.197    -5849834.50449  -4545904.82145  23465649.849    23465654.513
  21296497.246   -21515086.78249 -16148444.58647  21296496.622    21296499.041
 03  3 21  1 41  0.0000000  0  8G14G15G17G23G 3G31G 9G18
  20885043.787   -21363083.66849 -16624137.95647  20885043.166    20885045.688
  20491635.356   -27725686.80849 -21590774.04448  20491634.467    20491638.108
  22521565.575   -14561901.26349 -11057524.72446  22521564.755    22521570.095
  22540209.920   -11315214.29749  -8792453.37346  22540209.188    22540213.042
  21669581.022   -20755144.16149 -16132586.71247  21669580.532    21669583.985
  22705024.549    -9653451.30949  -7501939.11046  22705023.949    22705027.606
  23463531.186    -5860969.89349  -4554581.71245  23463530.796    23463535.458
  21305614.678   -21467174.60549 -16111110.43347  21305614.040    21305616.427
 03  3 21  1 41 30.0000000  0  8G14G15G17G23G 3G31G 9G18
  20873516.592   -21423659.41249 -16671339.80447  20873515.986    20873518.502
  20497654.675   -27694054.95149 -21566125.85048  20497653.800    20497657.420
  22535633.936   -14487971.68349 -10999917.30746  22535633.086    22535638.440
  22551218.798   -11257362.21349  -8747373.84246  22551218.067    22551221.975
  21671207.273   -20746598.20949 -16125927.52647  21671206.806    21671210.245
  22696931.983    -9695977.95949  -7535076.72346  22696931.352    22696935.017
  23461518.110    -5871548.39749  -4562824.66445  23461517.759    23461522.391
  21314761.979   -21419105.21349 -16073653.77247  21314761.328    21314763.741
 03  3 21  1 42  0.0000000  0  8G14G15G17G23G 3G31G 9G18
  20862082.033   -21483748.35649 -16718162.32647  20862081.422    20862083.923
  20503751.281   -27662017.13949 -21541161.32848  20503750.389    20503754.023
  22549759.939   -14413739.00449 -10942073.72046  22549759.136    22549764.476
  22562236.424   -11199464.06549  -8702258.41146  22562235.690    22562239.619
  21672939.998   -20737492.55149 -16118832.20447  21672939.516    21672943.004
  22688942.319    -9737963.66749  -7567792.82946  22688941.653    22688945.366
  23459612.204    -5881563.93949  -4570628.94545  23459611.839    23459616.460
  21323940.002   -21370874.28749 -16036071.24147  21323939.364    21323941.777
 03  3 21  1 42 30.0000000  0  8G14G15G17G23G 3G31G 9G18
  20850740.574   -21543348.06749 -16764603.62647  20850739.943    20850742.435
  20509925.356   -27629572.11349 -21515879.49148  20509924.475    20509928.115
  22563943.729   -14339202.74549 -10883993.55946  22563942.947    22563948.262
  22573262.875   -11141519.50049  -8657106.81146  22573262.126    22573266.128
  21674779.290   -20727826.97349 -16111300.58347  21674778.813    21674782.336
  22681056.010    -9779406.04849  -7600085.56146  22681055.342    22681059.095
  23457813.860    -5891014.26249  -4577992.78345  23457813.484    23457818.118
  21333148.749   -21322481.80649 -15998362.82547  21333148.129    21333150.524
 03  3 21  1 43  0.0000000  0  8G14G15G17G23G 3G31G 9G18
  20839492.002   -21602459.51649 -16810664.47148  20839491.380    20839493.851
  20516176.529   -27596721.87049 -21490281.90748  20516175.647    20516179.290
  22578184.777   -14264365.59049 -10825678.94346  22578183.998    22578189.388
  22584297.591   -11083531.48349  -8611921.35646  22584296.867    22584300.874
  21676724.604   -20717604.17949 -16103334.77247  21676724.136    21676727.680
  22673272.945    -9820306.26749  -7631955.83246  22673272.280    22673276.014
  23456122.836    -5899900.46149  -4584917.05345  23456122.445    23456127.129
  21342387.656   -21273931.03149 -15960531.06747  21342387.023    21342389.453
 03  3 21  1 43 30.0000000  0  8G14G15G17G23G 3G31G 9G18
  20828336.784   -21661080.46549 -16856343.10048  20828336.163    20828338.605
  20522505.102   -27563465.01849 -21464367.47748  20522504.206    20522507.856
  22592483.232   -14189226.95749 -10767129.43546  22592482.439    22592487.830
  22595340.727   -11025499.58249  -8566701.69546  22595340.012    22595344.006
  21678776.038   -20706823.96249 -16094934.60447  21678775.536    21678779.096
  22665593.441    -9860662.07149  -7663401.88346  22665592.737    22665596.517
  23454539.500    -5908220.47449  -4591400.14445  23454539.110    23454543.898
  21351656.693   -21225222.13549 -15922576.08447  21351656.046    21351658.495
 03  3 21  1 44  0.0000000  0  8G14G15G17G23G 3G31G 9G18
  20817275.393   -21719208.20049 -16901637.41348  20817274.781    20817277.207
  20528911.363   -27529799.98849 -21438134.99548  20528910.481    20528914.128
  22606839.201   -14113786.12449 -10708344.42646  22606838.391    22606843.722
  22606392.403   -10967422.83549  -8521447.09546  22606391.681    22606395.658
  21680933.599   -20695485.73349 -16086099.62747  21680933.112    21680936.688
  22658018.025    -9900470.93449  -7694421.75246  22658017.331    22658021.084
  23453064.477    -5915971.79049  -4597440.09945  23453064.082    23453068.892
  21360955.925   -21176354.40449 -15884497.34347  21360955.298    21360957.727
 03  3 21  1 44 30.0000000  0  8G14G15G17G23G 3G31G 9G18
  20806307.231   -21776846.18349 -16946550.09748  20806306.614    20806309.030
  20535394.534   -27495730.90149 -21411587.65948  20535393.633    20535397.292
  22621251.709   -14038048.19649 -10649327.91746  22621250.924    22621256.206
  22617451.565   -10909306.43449  -8476161.58446  22617450.835    22617454.838
  21683196.319   -20683595.06149 -16076834.16947  21683195.826    21683199.387
  22650546.060    -9939736.20249  -7725018.03246  22650545.354    22650549.145
  23451697.001    -5923157.76049  -4603039.52645  23451696.618    23451701.413
  21370284.292   -21127333.43749 -15846299.19047  21370283.671    21370286.115
 03  3 21  1 45  0.0000000  0  8G14G15G17G23G 3G31G 9G18
  20795433.445   -21833988.30549 -16991076.39748  20795432.821    20795435.223
  20541955.464   -27461252.82949 -21384721.63648  20541954.581    20541958.230
  22635721.507   -13962009.09749 -10590076.74246  22635720.747    22635726.026
  22628519.060   -10851146.43049  -8430842.11446  22628518.333    22628522.308
  21685564.918   -20671147.95149 -16067135.12747  21685564.446    21685567.988
  22643178.598    -9978452.07949  -7755186.22146  22643177.924    22643181.750
  23450438.175    -5929772.78849  -4608194.05945  23450437.830    23450442.518
  21379642.589   -21078155.36349 -15807978.62347  21379641.952    21379644.376
 03  3 21  1 45 30.0000000  0  8G14G15G17G23G 3G31G 9G18
  20784653.861   -21890635.30249 -17035216.88648  20784653.234    20784655.634
  20548593.861   -27426367.78749 -21357538.49148  20548592.985    20548596.659
  22650248.178   -13885671.23349 -10530592.75046  22650247.370    22650252.731
  22639594.321   -10792945.43449  -8385490.70046  22639593.605    22639597.617
  21688038.789   -20658147.50749 -16057004.91447  21688038.323    21688041.875
  22635915.505   -10016619.64049  -7784927.15446  22635914.812    22635918.713
  23449287.772    -5935818.15749  -4612904.68945  23449287.427    23449292.151
  21389030.209   -21028823.20649 -15769537.98647  21389029.563    21389031.976
 03  3 21  1 46  0.0000000  0  8G14G15G17G23G 3G31G 9G18
  20773968.844   -21946785.47849 -17078970.23748  20773968.201    20773970.584
  20555309.863   -27391074.73749 -21330037.42048  20555308.986    20555312.685
  22664831.655   -13809034.85949 -10470876.15946  22664830.863    22664836.190
  22650677.453   -10734703.24549  -8340107.18446  22650676.743    22650680.783
  21690618.006   -20644593.65249 -16046443.46547  21690617.538    21690621.069
  22628757.116   -10054237.03749  -7814239.38046  22628756.428    22628760.309
  23448246.115    -5941291.78149  -4617169.80945  23448245.757    23448250.522
  21398447.104   -20979337.06549 -15730977.35947  21398446.444    21398448.869
 03  3 21  1 46 30.0000000  0  8G14G15G17G23G 3G31G 9G18
  20763378.626   -22002437.24049 -17122335.21948  20763377.983    20763380.360
  20562103.662   -27355373.06649 -21302217.94248  20562102.792    20562106.516
  22679471.940   -13732099.93749 -10410926.92146  22679471.149    22679476.505
  22661768.390   -10676419.90549  -8294691.61046  22661767.665    22661771.761
  21693302.419   -20630486.90849 -16035451.19947  21693301.970    21693305.490
  22621703.668   -10091302.82349  -7843121.77746  22621702.981    22621706.867
  23447313.515    -5946192.38149  -4620988.42345  23447313.153    23447317.905
  21407893.172   -20929697.63849 -15692297.28847  21407892.514    21407894.947
 03  3 21  1 47  0.0000000  0  8G14G15G17G23G 3G31G 9G18
  20752883.169   -22057591.09149 -17165312.21848  20752882.528    20752884.913
  20568974.947   -27319264.27549 -21274081.23148  20568974.066    20568977.817
  22694168.608   -13654868.71649 -10350746.82346  22694167.804    22694173.200
  22672866.721   -10618097.87349  -8249245.88046  22672865.992    22672870.100
  21696091.527   -20615830.12549 -16024030.33247  21696091.069    21696094.603
  22614755.032   -10127817.72749  -7871574.91546  22614754.401    22614758.299
  23446489.760    -5950520.82649  -4624361.20545  23446489.374    23446494.185
  21417367.892   -20879907.48849 -15653499.77847  21417367.245    21417369.714
 03  3 21  1 47 30.0000000  0  8G14G15G17G23G 3G31G 9G18
  20742483.564   -22112241.21149 -17207896.70448  20742482.938    20742485.325
  20575924.607   -27282743.41849 -21245623.43248  20575923.734    20575927.487
  22708922.458   -13577337.06749 -10290332.63146  22708921.640    22708927.101
  22683973.231   -10559732.80249  -8203766.61546  22683972.522    22683976.647
  21698986.047   -20600619.22449 -16012177.68947  21698985.585    21698989.127
  22607912.405   -10163775.93349  -7899594.28046  22607911.818    22607915.682
  23445776.013    -5954271.29749  -4627283.62545  23445775.618    23445780.450
  21426872.088   -20829962.67349 -15614581.74647  21426871.446    21426873.915
 03  3 21  1 48  0.0000000  0  8G14G15G17G23G 3G31G 9G18
  20732178.193   -22166396.21949 -17250095.38848  20732177.572    20732179.937
  20582950.850   -27245820.08349 -21216852.01048  20582949.980    20582953.761
  22723731.430   -13499515.64049 -10229692.62346  22723730.579    22723736.051
  22695085.913   -10501335.22249  -8158262.01346  22695085.189    22695089.314
  21701983.969   -20584865.03149 -15999901.69447  21701983.509    21701987.061
  22601174.025   -10199186.30649  -7927186.75546  22601173.434    22601177.244
  23445170.530    -5957453.02749  -4629762.85345  23445170.086    23445174.907
  21436403.649   -20779873.89049 -15575551.52647  21436403.027    21436405.480
 03  3 21  1 48 30.0000000  0  8G14G15G17G23G 3G31G 9G18
  20721969.425   -22220043.58849 -17291898.50048  20721968.800    20721971.143
  20590055.862   -27208483.01049 -21187758.19347  20590054.992    20590058.743
  22738597.530   -13421393.82349 -10168818.56946  22738596.737    22738602.209
  22706206.889   -10442894.19749  -8112723.55246  22706206.141    22706210.285
  21705087.211   -20568557.24949 -15987194.32847  21705086.751    21705090.324
  22594542.266   -10234036.44349  -7954342.67346  22594541.674    22594545.441
  23444675.609    -5960053.59049  -4631789.23445  23444675.229    23444680.031
  21445964.628   -20729630.62149 -15536400.92147  21445963.988    21445966.436
 03  3 21  1 49  0.0000000  0  8G14G15G17G23G 3G31G 9G18
  20711856.357   -22273187.94149 -17333309.66248  20711855.731    20711858.082
  20597238.623   -27170737.40849 -21158346.04547  20597237.759    20597241.497
  22753519.690   -13342977.56449 -10107715.07446  22753518.927    22753524.336
  22717334.980   -10384415.75649  -8067155.94646  22717334.236    22717338.364
  21708294.537   -20551702.59249 -15974060.83547  21708294.081    21708297.663
  22588016.195   -10268331.09649  -7981065.76346  22588015.612    22588019.342
  23444290.433    -5962077.61349  -4633366.34445  23444290.056    23444294.814
  21455553.813   -20679239.25149 -15497134.92447  21455553.180    21455555.609
 03  3 21  1 49 30.0000000  0  8G14G15G17G23G 3G31G 9G18
  20701839.051   -22325828.88749 -17374328.55448  20701838.436    20701840.798
  20604499.025   -27132583.81449 -21128615.97747  20604498.163    20604501.894
  22768497.642   -13264268.24449 -10046383.21246  22768496.847    22768502.309
  22728469.902   -10325901.29549  -8021560.27246  22728469.188    22728473.316
  21711605.564   -20534302.97049 -15960502.69447  21711605.109    21711608.679
  22581595.806   -10302070.15149  -8007355.90646  22581595.247    22581598.975
  23444014.838    -5963525.42549  -4634494.47845  23444014.497    23444019.281
  21465170.782   -20628701.62849 -15457754.96247  21465170.142    21465172.565
 03  3 21  1 50  0.0000000  0  8G14G15G17G23G 3G31G 9G18
  20691918.782   -22377960.10849 -17414950.25748  20691918.163    20691920.529
  20611838.042   -27094016.99949 -21098563.91947  20611837.172    20611840.915
  22783532.249   -13185261.00049  -9984819.20146  22783531.429    22783536.960
  22739612.624   -10267345.82949  -7975932.65046  22739611.914    22739616.051
  21715021.198   -20516353.89249 -15946516.40047  21715020.724    21715024.318
  22575282.408   -10335247.29649  -8033208.19746  22575281.788    22575285.510
  23443850.127    -5964390.73249  -4635168.69845  23443849.711    23443854.529
  21474816.448   -20578013.29149 -15418257.55847  21474815.824    21474818.247
 03  3 21  1 50 30.0000000  0  8G14G15G17G23G 3G31G 9G18
  20682094.394   -22429587.55849 -17455179.41648  20682093.784    20682096.129
  20619254.381   -27055043.85549 -21068195.24647  20619253.508    20619257.259
  22798621.934   -13105964.14949  -9923029.53846  22798621.133    22798626.730
  22750761.659   -10208757.03649  -7930279.05746  22750760.966    22750765.160
  21718539.757   -20497863.65749 -15932108.42947  21718539.278    21718542.889
  22569074.727   -10367868.73749  -8058627.48346  22569074.125    22569077.819
  23443795.067    -5964679.76749  -4635393.89445  23443794.708    23443799.485
  21484489.312   -20527181.96849 -15378648.73847  21484488.698    21484491.122
 03  3 21  1 51  0.0000000  0  8G14G15G17G23G 3G31G 9G18
  20672366.853   -22480705.97049 -17495011.91448  20672366.239    20672368.577
  20626748.901   -27015659.85549 -21037506.41647  20626748.030    20626751.803
  22813767.512   -13026373.70649  -9861011.08246  22813766.718    22813772.317
  22761917.825   -10150130.89449  -7884596.35146  22761917.153    22761921.343
  21722161.910   -20478829.16449 -15917276.35447  21722161.431    21722165.052
  22562973.814   -10399929.19449  -8083609.63246  22562973.199    22562976.936
  23443850.643    -5964387.47849  -4635166.09845  23443850.271    23443855.052
  21494190.023   -20476204.19349 -15338925.79547  21494189.412    21494191.858
 03  3 21  1 51 30.0000000  0  8G14G15G17G23G 3G31G 9G18
  20662736.649   -22531312.83549 -17534445.81648  20662736.046    20662738.375
  20634321.900   -26975863.52049 -21006496.29847  20634321.027    20634324.775
  22828969.207   -12946488.71149  -9798763.11446  22828968.453    22828973.972
  22773081.330   -10091466.51849  -7838883.86546  22773080.674    22773084.823
  21725887.725   -20459249.85649 -15902019.75847  21725887.251    21725890.852
  22556980.075   -10431426.39449  -8108152.88746  22556979.468    22556983.168
  23444017.234    -5963511.79749  -4634483.72145  23444016.815    23444021.608
  21503918.761   -20425079.21849 -15299088.15547  21503918.167    21503920.610
 03  3 21  1 52  0.0000000  0  8G14G15G17G23G 3G31G 9G18
  20653202.573   -22581414.66449 -17573486.17248  20653201.956    20653204.291
  20641971.977   -26935662.14249 -20975170.55047  20641971.111    20641974.842
  22844225.320   -12866317.48849  -9736292.11646  22844224.632    22844230.109
  22784250.540   -10032772.12849  -7793147.97646  22784249.872    22784254.002
  21729715.565   -20439134.41149 -15886345.38747  21729715.101    21729718.682
  22551092.208   -10462367.25549  -8132262.61646  22551091.584    22551095.283
  23444293.654    -5962059.36149  -4633351.90745  23444293.214    23444297.965
  21513673.927   -20373815.63149 -15259142.50247  21513673.324    21513675.776
 03  3 21  1 52 30.0000000  0  8G14G15G17G23G 3G31G 9G18
  20643766.421   -22631001.85749 -17612125.52548  20643765.808    20643768.145
  20649700.758   -26895047.05849 -20943522.44447  20649699.900    20649703.628
  22859537.355   -12785852.41549  -9673592.13046  22859536.722    22859542.207
  22795427.066    -9974039.35249  -7747382.18846  22795426.414    22795430.525
  21733646.870   -20418475.17849 -15870247.29247  21733646.400    21733649.995
  22545312.080   -10492742.11149  -8155931.31746  22545311.456    22545315.148
  23444681.510    -5960020.92749  -4631763.47645  23444681.135    23444685.897
  21523456.954   -20322405.46849 -15219082.64147  21523456.351    21523458.787
 03  3 21  1 53  0.0000000  0  8G14G15G17G23G 3G31G 9G18
  20634427.830   -22680076.32649 -17650365.33948  20634427.223    20634429.547
  20657507.763   -26854020.98949 -20911554.08647  20657506.915    20657510.617
  22874904.727   -12705096.76749  -9610665.73746  22874904.073    22874909.558
  22806610.246    -9915271.26549  -7701588.87146  22806609.623    22806613.680
  21737680.854   -20397276.26949 -15853728.66147  21737680.407    21737684.008
  22539639.280   -10522552.91749  -8179160.48546  22539638.613    22539642.318
  23445180.469    -5957398.78049  -4629720.21145  23445180.089    23445184.849
  21533267.209   -20270852.26649 -15178911.30747  21533266.600    21533269.059
 03  3 21  1 53 30.0000000  0  8G14G15G17G23G 3G31G 9G18
  20625186.667   -22728638.77149 -17688206.18848  20625186.071    20625188.383
  20665392.676   -26812585.54849 -20879266.74247  20665391.807    20665395.545
  22890326.878   -12624052.93349  -9547514.77446  22890326.247    22890331.761
  22817799.744    -9856470.00949  -7655769.72446  22817799.107    22817803.211
  21741817.026   -20375540.59449 -15836791.78347  21741816.593    21741820.182
  22534073.620   -10551800.59649  -8201950.86946  22534072.936    22534076.653
  23445790.324    -5954193.78049  -4627222.77445  23445789.988    23445794.655
  21543104.253   -20219158.37549 -15138630.35747  21543103.620    21543106.083
 03  3 21  1 54  0.0000000  0  8G14G15G17G23G 3G31G 9G18
  20616043.375   -22776687.09349 -17725646.41148  20616042.771    20616045.081
  20673355.728   -26770739.44949 -20846659.39947  20673354.854    20673358.621
  22905804.055   -12542720.27049  -9484138.74646  22905803.382    22905808.993
  22828995.656    -9797634.87649  -7609924.17246  22828995.025    22828999.173
  21746055.312   -20353268.25749 -15819436.72147  21746054.870    21746058.434
  22528615.401   -10580483.39649  -8224301.07546  22528614.784    22528618.472
  23446511.466    -5950404.19749  -4624269.81945  23446511.088    23446515.793
  21552968.104   -20167323.37449 -15098239.45147  21552967.461    21552969.946
 03  3 21  1 54 30.0000000  0  8G14G15G17G23G 3G31G 9G18
  20606998.197   -22824219.61449 -17762684.71248  20606997.592    20606999.913
  20681397.096   -26728481.73249 -20813731.31747  20681396.227    20681400.011
  22921336.183   -12461098.72049  -9420537.60446  22921335.480    22921341.123
  22840198.120    -9738765.56349  -7564051.98946  22840197.490    22840201.666
  21750395.694   -20330459.55649 -15801663.70547  21750395.245    21750398.825
  22523265.094   -10608599.68149  -8246209.84146  22523264.449    22523268.148
  23447344.110    -5946028.68249  -4620860.29245  23447343.732    23447348.431
  21562858.785   -20115347.33549 -15057738.64147  21562858.154    21562860.702
 03  3 21  1 55  0.0000000  0  8G14G15G17G23G 3G31G 9G18
  20598050.963   -22871237.50349 -17799322.00848  20598050.357    20598052.669
  20689516.419   -26685814.38449 -20780484.04947  20689515.546    20689519.358
  22936922.743   -12379191.05949  -9356713.51346  22936922.029    22936927.684
  22851406.633    -9679864.22749  -7518154.85946  22851405.971    22851410.243
  21754837.444   -20307117.88149 -15783475.39647  21754836.990    21754840.602
  22518022.290   -10636150.72449  -8267678.16746  22518021.648    22518025.303
  23448287.933    -5941068.72949  -4616995.35645  23448287.618    23448292.217
  21572775.781   -20063233.04649 -15017130.11047  21572775.159    21572777.677
 03  3 21  1 55 30.0000000  0  8G14G15G17G23G 3G31G 9G18
  20589202.142   -22917738.39549 -17835556.44648  20589201.512    20589203.819
  20697713.912   -26642736.23449 -20746916.66547  20697713.051    20697716.853
  22952563.771   -12296997.17249  -9292666.39246  22952563.071    22952568.739
  22862621.425    -9620930.06949  -7472232.13846  22862620.727    22862625.026
  21759380.595   -20283243.33149 -15764871.85747  21759380.135    21759383.749
  22512887.395   -10663134.67749  -8288704.60146  22512886.753    22512890.404
  23449343.320    -5935522.59549  -4612673.65845  23449342.958    23449347.525
  21582719.196   -20010979.98549 -14976413.43647  21582718.575    21582721.115
 03  3 21  1 56  0.0000000  0  8G14G15G17G23G 3G31G 9G18
  20580452.324   -22963719.00449 -17871385.46848  20580451.700    20580453.996
  20705990.094   -26599244.67749 -20713027.15147  20705989.222    20705993.041
  22968259.660   -12214515.03949  -9228394.66146  22968258.896    22968264.649
  22873842.877    -9561960.93049  -7426282.16646  22873842.199    22873846.452
  21764025.492   -20258834.31349 -15745851.85047  21764025.019    21764028.621
  22507861.022   -10689548.11849  -8309286.47446  22507860.393    22507864.088
  23450510.817    -5929387.10649  -4607892.72145  23450510.479    23450515.026
  21592689.425   -19958586.19749 -14935587.10847  21592688.802    21592691.327
 03  3 21  1 56 30.0000000  0  8G14G15G17G23G 3G31G 9G18
  20571800.373   -23009185.15549 -17906813.61848  20571799.749    20571802.042
  20714343.635   -26555346.37249 -20678820.68947  20714342.759    20714346.604
  22984009.020   -12131751.64749  -9163903.77146  22984008.312    22984014.079
  22885069.673    -9502963.77149  -7380310.36246  22885068.976    22885073.179
  21768770.531   -20233898.80649 -15726421.59247  21768770.074    21768773.690
  22502942.101   -10715397.14749  -8329428.55746  22502941.438    22502945.150
  23451789.330    -5922668.30349  -4602657.25345  23451789.005    23451793.513
  21602685.000   -19906059.10249 -14894656.90647  21602684.373    21602686.911
 03  3 21  1 57  0.0000000  0  8G14G15G17G23G 3G31G 9G18
  20563247.959   -23054128.22249 -17941834.17048  20563247.340    20563249.630
  20722776.139   -26511033.47949 -20644291.17347  20722775.261    20722779.109
  22999813.260   -12048700.15949  -9099188.40045  22999812.601    22999818.277
  22896303.207    -9443931.14749  -7334310.92046  22896302.510    22896306.688
  21773617.043   -20208430.36349 -15706576.06347  21773616.579    21773620.169
  22498132.220   -10740673.28749  -8349124.22746  22498131.538    22498135.272
  23453180.374    -5915358.03649  -4596960.91645  23453180.031    23453184.568
  21612707.291   -19853391.67449 -14853617.35147  21612706.665    21612709.210
 03  3 21  1 57 30.0000000  0  8G14G15G17G23G 3G31G 9G18
  20554794.018   -23098553.76849 -17976451.45548  20554793.393    20554795.678
  20731286.279   -26466312.36949 -20609443.56447  20731285.400    20731289.237
  23015671.006   -11965367.34549  -9034253.81345  23015670.313    23015676.035
  22907542.265    -9384869.59349  -7288288.93646  22907541.569    22907545.742
  21778563.464   -20182436.91449 -15686321.43547  21778562.985    21778566.564
  22493430.159   -10765382.40749  -8368378.06446  22493429.523    22493433.240
  23454682.820    -5907462.15049  -4590808.25145  23454682.521    23454687.048
  21622754.944   -19800590.80749 -14812473.82147  21622754.319    21622756.867
 03  3 21  1 58  0.0000000  0  8G14G15G17G23G 3G31G 9G18
  20546439.744   -23142455.71849 -18010660.74148  20546439.136    20546441.409
  20739875.118   -26421177.78249 -20574273.76347  20739874.254    20739878.065
  23031582.960   -11881749.66449  -8969097.23745  23031582.238    23031587.992
  22918787.736    -9325774.22849  -7242240.59846  22918787.054    22918791.213
  21783610.479   -20155914.67049 -15665654.75347  21783610.001    21783613.612
  22488837.159   -10789518.57349  -8387185.43446  22488836.513    22488840.273
  23456297.837    -5898975.06649  -4584194.91145  23456297.483    23456302.025
  21632828.854   -19747652.06149 -14771222.84647  21632828.245    21632830.768
 03  3 21  1 58 30.0000000  0  8G14G15G17G23G 3G31G 9G18
  20538184.133   -23185839.08749 -18044465.94348  20538183.521    20538185.828
  20748541.548   -26375635.39849 -20538786.20247  20748540.684    20748544.490
  23047548.013   -11797853.12749  -8903723.36145  23047547.265    23047553.037
  22930038.525    -9266651.10349  -7196170.63746  22930037.825    22930041.978
  21788756.753   -20128870.56649 -15644581.43047  21788756.298    21788759.909
  22484352.251   -10813087.06349  -8405550.46946  22484351.598    22484355.315
  23458024.403    -5889902.16749  -4577125.08745  23458024.038    23458028.548
  21642927.831   -19694581.62149 -14729869.26047  21642927.203    21642929.729
 03  3 21  1 59  0.0000000  0  8G14G15G17G23G 3G31G 9G18
  20530028.096   -23228699.18049 -18077863.39148  20530027.498    20530029.817
  20757286.385   -26329681.03449 -20502977.61947  20757285.510    20757289.311
  23063566.806   -11713674.05249  -8838129.31445  23063566.005    23063571.847
  22941295.247    -9207496.51449  -7150076.15546  22941294.532    22941298.710
  21794002.952   -20101301.68149 -15623099.18547  21794002.476    21794006.110
  22479976.198   -10836083.31049  -8423469.59746  22479975.537    22479979.245
  23459863.174    -5880239.19049  -4569595.46745  23459862.765    23459867.317
  21653052.458   -19641376.37349 -14688410.62747  21653051.844    21653054.326
 03  3 21  1 59 30.0000000  0  8G14G15G17G23G 3G31G 9G18
  20521971.575   -23271036.21949 -18110853.27448  20521970.965    20521973.302
  20766109.354   -26283315.98549 -20466849.02447  20766108.482    20766112.286
  23079638.940   -11629214.53349  -8772316.73245  23079638.199    23079644.025
  22952557.716    -9148311.80849  -7103958.21546  22952557.006    22952561.178
  21799348.472   -20073210.63649 -15601210.07147  21799347.995    21799351.655
  22475708.912   -10858507.85249  -8440943.25046  22475708.281    22475711.970
  23461814.189    -5869986.60449  -4561606.40745  23461813.814    23461818.328
  21663202.460   -19588037.85649 -14646848.15147  21663201.837    21663204.295
 03  3 21  2  0  0.0000000  0  8G14G15G17G23G 3G31G 9G18
  20514014.985   -23312848.25349 -18143434.06248  20514014.383    20514016.697
  20775010.732   -26236538.84249 -20430399.31947  20775009.870    20775013.694
  23095764.529   -11544474.17949  -8706285.31845  23095763.756    23095769.571
  22963826.144    -9089095.96349  -7057816.00846  22963825.444    22963829.598
  21804793.349   -20044597.61149 -15578914.21947  21804792.896    21804796.546
  22471550.801   -10880358.68749  -8457969.85346  22471550.190    22471553.862
  23463877.672    -5859142.74449  -4553156.62145  23463877.296    23463881.835
  21673377.921   -19534565.48449 -14605181.37047  21673377.313    21673379.763
 03  3 21  2  0 30.0000000  0  8G14G15G17G23G 3G31G 9G18
  20506157.727   -23354138.33949 -18175608.12948  20506157.113    20506159.441
  20783989.727   -26189353.84249 -20393631.79647  20783988.864    20783992.729
  23111942.588   -11459458.03649  -8640038.99845  23111941.776    23111947.689
  22975099.658    -9029853.08349  -7011652.73446  22975098.970    22975103.156
  21810336.533   -20015468.05249 -15556215.86147  21810336.089    21810339.724
  22467501.194   -10901639.48649  -8474552.26746  22467500.553    22467504.203
  23466052.906    -5847711.54249  -4544249.15645  23466052.560    23466057.086
  21683577.981   -19480963.83949 -14563413.85547  21683577.372    21683579.795
 03  3 21  2  1  0.0000000  0  8G14G15G17G23G 3G31G 9G18
  20498400.559   -23394902.49349 -18207372.38148  20498399.963    20498402.258
  20793047.063   -26141757.26349 -20356543.56247  20793046.214    20793050.081
  23128173.692   -11374162.92049  -8573575.28745  23128172.869    23128178.835
  22986378.951    -8970579.87849  -6965465.82446  22986378.262    22986382.479
  21815978.433   -19985819.78749 -15533113.32047  21815977.993    21815981.594
  22463560.807   -10922346.18349  -8490687.33746  22463560.181    22463563.815
  23468340.693    -5835688.88649  -4534880.80845  23468340.346    23468344.866
  21693803.210   -19427229.99449 -14521543.32647  21693802.603    21693805.039
 03  3 21  2  1 30.0000000  0  8G14G15G17G23G 3G31G 9G18
  20490743.518   -23435140.29249 -18238726.48748  20490742.914    20490745.214
  20802182.666   -26093749.53049 -20319134.94947  20802181.799    20802185.705
  23144457.622   -11288590.22049  -8506895.30145  23144456.875    23144462.838
  22997663.927    -8911276.97949  -6919255.77846  22997663.229    22997667.424
  21821718.690   -19955654.58849 -15509607.97947  21821718.239    21821721.831
  22459729.730   -10942478.60849  -8506374.91646  22459729.103    22459732.700
  23470741.041    -5823075.06349  -4525051.83045  23470740.734    23470745.188
  21704053.386   -19373364.86349 -14479570.50047  21704052.777    21704055.237
 03  3 21  2  2  0.0000000  0  8G14G15G17G23G 3G31G 9G18
  20483186.861   -23474850.69049 -18269669.63348  20483186.255    20483188.556
  20811396.489   -26045330.56049 -20281405.89247  20811395.611    20811399.520
  23160794.357   -11202740.22349  -8439999.23645  23160793.636    23160799.650
  23008954.526    -8851944.47549  -6873022.66746  23008953.823    23008958.004
  21827557.038   -19924973.90449 -15485700.96347  21827556.587    21827560.208
  22456008.002   -10962036.12149  -8521614.51346  22456007.390    22456010.998
  23473253.893    -5809869.62349  -4514761.84445  23473253.575    23473258.061
  21714328.486   -19319368.73449 -14437495.60447  21714327.894    21714330.369
 03  3 21  2  2 30.0000000  0  8G14G15G17G23G 3G31G 9G18
  20475729.803   -23514037.55449 -18300204.83248  20475729.208    20475731.528
  20820687.719   -25996504.91549 -20243359.94947  20820686.838    20820690.747
  23177182.852   -11116618.21449  -8372891.22045  23177182.101    23177188.130
  23020249.883    -8792587.03549  -6826770.12946  23020249.173    23020253.360
  21833492.288   -19893783.77149 -15461396.97647  21833491.848    21833495.477
  22452394.902   -10981022.81549  -8536409.32146  22452394.311    22452397.934
  23475878.575    -5796076.80649  -4504014.16845  23475878.207    23475882.744
  21724627.483   -19265247.03149 -14395322.85547  21724626.894    21724629.361
 03  3 21  2  3  0.0000000  0  8G14G15G17G23G 3G31G 9G18
  20468373.452   -23552695.35249 -18330327.76448  20468372.860    20468375.169
  20830057.220   -25947267.74749 -20204993.32947  20830056.342    20830060.270
  23193623.859   -11030220.34949  -8305568.23645  23193623.129    23193629.196
  23031550.870    -8733199.74449  -6780494.32146  23031550.189    23031554.420
  21839525.221   -19862080.45649 -15436693.10447  21839524.792    21839528.396
  22448891.441   -10999433.29449  -8550755.13046  22448890.867    22448894.547
  23478616.047    -5781691.21649  -4492804.57045  23478615.723    23478620.219
  21734951.271   -19210995.02249 -14353048.56047  21734950.677    21734953.128
 03  3 21  2  3 30.0000000  0  8G14G15G17G23G 3G31G 9G18
  20461117.331   -23590826.43049 -18360040.27148  20461116.734    20461119.045
  20839504.466   -25897622.18449 -20166308.48647  20839503.602    20839507.538
  23210116.602   -10943550.37949  -8238033.22045  23210115.921    23210122.060
  23042856.938    -8673785.77049  -6734197.73146  23042856.263    23042860.529
  21845654.934   -19829868.67549 -15411593.02147  21845654.488    21845658.088
  22445497.193   -11017270.16149  -8564653.96446  22445496.596    22445500.290
  23481465.747    -5766715.85549  -4481135.42445  23481465.430    23481469.933
  21745299.215   -19156616.11949 -14310675.39247  21745298.613    21745301.055
 03  3 21  2  4  0.0000000  0  8G14G15G17G23G 3G31G 9G18
  20453962.198   -23628426.73749 -18389339.18648  20453961.617    20453963.919
  20849030.050   -25847564.80549 -20127302.74647  20849029.178    20849033.137
  23226661.718   -10856605.52749  -8170284.00045  23226661.007    23226667.141
  23054168.740    -8614341.74549  -6687877.72246  23054168.052    23054172.374
  21851881.795   -19797146.33549 -15386095.10047  21851881.357    21851884.964
  22442212.813   -11034529.59649  -8578102.85746  22442212.190    22442215.908
  23484428.315    -5751147.13149  -4469003.90945  23484428.049    23484432.480
  21755671.840   -19102107.58149 -14268201.20847  21755671.242    21755673.683
 03  3 21  2  4 30.0000000  0  8G14G15G17G23G 3G31G 9G18
  20446907.628   -23665498.70649 -18418226.41548  20446907.041    20446909.335
  20858633.409   -25797098.64949 -20087978.48747  20858632.549    20858636.508
  23243258.375   -10769389.72149  -8102323.64845  23243257.687    23243263.782
  23065485.686    -8554870.87249  -6641536.79846  23065484.997    23065489.340
  21858204.908   -19763918.19949 -15360203.05847  21858204.480    21858208.092
  22439037.767   -11051214.32149  -8591103.92046  22439037.128    22439040.892
  23487503.274    -5734987.66749  -4456412.08845  23487503.020    23487507.466
  21766068.504   -19047472.74649 -14225628.61247  21766067.905    21766070.326
 03  3 21  2  5  0.0000000  0  8G14G15G17G23G 3G31G 9G18
  20439954.240   -23702038.94849 -18446699.30648  20439953.645    20439955.956
  20868315.139   -25746220.78249 -20048333.40547  20868314.287    20868318.246
  23259906.948   -10681900.87049  -8034150.55545  23259906.252    23259912.391
  23076808.255    -8495370.55149  -6595172.90846  23076807.588    23076811.836
  21864624.466   -19730183.04049 -15333915.92647  21864624.046    21864627.680
  22435972.719   -11067321.10349  -8603654.64346  22435972.070    22435975.850
  23490691.169    -5718235.01649  -4443358.02745  23490690.913    23490695.318
  21776489.562   -18992709.53549 -14182955.97647  21776488.980    21776491.370
 03  3 21  2  5 30.0000000  0  8G14G15G17G23G 3G31G 9G18
  20433101.134   -23738052.20349 -18474761.56448  20433100.549    20433102.826
  20878074.172   -25694936.75849 -20008371.84647  20878073.321    20878077.297
  23276606.294   -10594145.37849  -7965769.67945  23276605.551    23276611.749
  23088135.415    -8435846.01649  -6548790.15346  23088134.757    23088138.961
  21871139.306   -19695947.46549 -15307238.87247  21871138.886    21871142.522
  22433016.691   -11082854.98249  -8615758.94646  22433016.026    22433019.817
  23493990.974    -5700894.18849  -4429845.66345  23493990.769    23493995.094
  21786934.023   -18937823.54549 -14140187.67147  21786933.440    21786935.859
 03  3 21  2  6  0.0000000  0  8G14G15G17G23G 3G31G 9G18
  20426349.311   -23773533.24549 -18502409.11148  20426348.713    20426350.990
  20887911.362   -25643241.91449 -19968090.16447  20887910.510    20887914.488
  23293357.212   -10506118.85149  -7897177.61645  23293356.485    23293362.650
  23099468.114    -8376292.59549  -6502384.90046  23099467.421    23099471.627
  21877749.922   -19661208.46649 -15280169.53547  21877749.489    21877753.150
  22430170.690   -11097810.76549  -8627412.78446  22430170.036    22430173.782
  23497403.628    -5682960.24149  -4415871.12045  23497403.396    23497407.711
  21797402.617   -18882810.67949 -14097320.51047  21797402.043    21797404.495
 03  3 21  2  6 30.0000000  0  8G14G15G17G23G 3G31G 9G18
  20419698.309   -23808484.40149 -18529643.75448  20419697.717    20419699.958
  20897826.163   -25591139.54249 -19927490.92347  20897825.316    20897829.262
  23310158.930   -10417825.41549  -7828377.57745  23310158.163    23310164.377
  23110805.662    -8316713.47349  -6455959.60946  23110804.983    23110809.187
  21884455.464   -19625970.57149 -15252711.44547  21884455.057    21884458.717
  22427434.133   -11112191.37649  -8638618.43746  22427433.501    22427437.224
  23500928.605    -5664436.11849  -4401436.69845  23500928.406    23500932.731
  21807894.677   -18827674.40149 -14054357.17847  21807894.109    21807896.594
 03  3 21  2  7  0.0000000  0  8G14G15G17G23G 3G31G 9G18
  20413148.801   -23842902.28649 -18556462.86448  20413148.212    20413150.424
  20907819.016   -25538626.80949 -19886571.92447  20907818.169    20907822.114
  23327011.868   -10329262.64449  -7759367.65645  23327011.136    23327017.284
  23122148.628    -8257105.84949  -6409512.11146  23122147.930    23122152.116
  21891256.216   -19590232.48549 -15224863.59747  21891255.819    21891259.449
  22424807.608   -11125993.68649  -8649373.47346  22424807.009    22424810.701
  23504566.459    -5645318.89249  -4386540.11445  23504566.188    23504570.581
  21818410.730   -18772412.17549 -14011295.70447  21818410.159    21818412.650
 03  3 21  2  7 30.0000000  0  8G14G15G17G23G 3G31G 9G18
  20406700.178   -23876789.95949 -18582868.82148  20406699.576    20406701.782
  20917889.318   -25485707.10149 -19845335.80047  20917888.477    20917892.414
  23343915.237   -10240435.26649  -7690151.55545  23343914.424    23343920.678
  23133496.373    -8197472.97049  -6363044.93846  23133495.694    23133499.882
  21898151.156   -19553999.32849 -15196629.98147  21898150.746    21898154.386
  22422290.584   -11139220.69949  -8659680.21946  22422289.962    22422293.638
  23508316.581    -5625611.79149  -4371183.89245  23508316.281    23508320.642
  21828950.050   -18717027.75849 -13968139.01547  21828949.463    21828951.986
 03  3 21  2  8  0.0000000  0  8G14G15G17G23G 3G31G 9G18
  20400352.255   -23910148.43449 -18608862.41448  20400351.670    20400353.848
  20928036.662   -25432382.40949 -19803784.09847  20928035.802    20928039.767
  23360868.415   -10151345.76749  -7620731.19045  23360867.658    23360873.826
  23144848.575    -8137816.78349  -6316559.59346  23144847.855    23144852.084
  21905139.624   -19517274.73249 -15168013.41947  21905139.217    21905142.876
  22419882.708   -11151874.09149  -8669539.98846  22419882.109    22419885.753
  23512178.600    -5605316.63449  -4355369.43645  23512178.358    23512182.648
  21839512.187   -18661523.22349 -13924888.72747  21839511.591    21839514.159
 03  3 21  2  8 30.0000000  0  8G14G15G17G23G 3G31G 9G18
  20394106.420   -23942970.45549 -18634437.99248  20394105.824    20394108.001
  20938262.322   -25378646.14549 -19761911.69547  20938261.473    20938265.437
  23377872.671   -10061987.70649  -7551101.56645  23377871.866    23377878.078
  23156206.451    -8078130.63249  -6270050.90946  23156205.762    23156209.977
  21912222.639   -19480053.34449 -15139009.74947  21912222.214    21912225.874
  22417585.407   -11163946.77849  -8678947.26246  22417584.769    22417588.368
  23516153.739    -5584426.91649  -4339091.68645  23516153.445    23516157.736
  21850098.347   -18605892.45849 -13881540.07747  21850097.762    21850100.321
 03  3 21  2  9  0.0000000  0  8G14G15G17G23G 3G31G 9G18
  20387961.257   -23975263.46949 -18659601.35548  20387960.659    20387962.829
  20948564.807   -25324506.28049 -19719724.79447  20948563.971    20948567.940
  23394926.328    -9972370.28349  -7481269.82445  23394925.490    23394931.680
  23167568.522    -8018422.22349  -6223524.86246  23167567.847    23167572.068
  21919398.353   -19442344.69449 -15109626.39847  21919397.937    21919401.606
  22415397.084   -11175446.44449  -8687908.02146  22415396.414    22415400.032
  23520240.545    -5562950.52649  -4322356.78645  23520240.217    23520244.555
  21860707.048   -18550143.43849 -13838099.27647  21860706.458    21860708.983
 03  3 21  2  9 30.0000000  0  8G14G15G17G23G 3G31G 9G18
  20381917.646   -24007022.74149 -18684348.82248  20381917.052    20381919.207
  20958944.922   -25269958.47449 -19677220.02947  20958944.075    20958948.057
  23412030.031    -9882489.80749  -7411233.14145  23412029.179    23412035.360
  23178935.695    -7958687.32749  -6176978.18746  23178934.987    23178939.229
  21926667.296   -19404146.20249 -15079861.35947  21926666.874    21926670.556
  22413318.611   -11186368.53749  -8696418.73546  22413318.013    22413321.624
  23524439.842    -5540883.03249  -4305161.29145  23524439.479    23524443.779
  21871338.938   -18494272.56449 -13794563.52947  21871338.347    21871340.845
 03  3 21  2 10  0.0000000  0  8G14G15G17G23G 3G31G 9G18
  20375975.917   -24038246.67749 -18708679.14548  20375975.316    20375977.460
  20969402.801   -25215001.86349 -19634396.70847  20969401.965    20969405.950
  23429183.783    -9792346.25649  -7340991.44145  23429182.954    23429189.183
  23190308.114    -7898924.68949  -6130409.89946  23190307.424    23190311.656
  21934029.336   -19365458.30949 -15049714.96847  21934028.908    21934032.619
  22411350.358   -11196711.98649  -8704478.55246  22411349.755    22411353.342
  23528751.757    -5518223.53349  -4287504.48245  23528751.444    23528755.699
  21881994.166   -18438278.94449 -13750932.13147  21881993.571    21881996.072
 03  3 21  2 10 30.0000000  0  8G14G15G17G23G 3G31G 9G18
  20370135.432   -24068938.40549 -18732594.75748  20370134.829    20370136.978
  20979937.797   -25159640.10349 -19591257.68447  20979936.952    20979940.982
  23446386.791    -9701943.87549  -7270548.06045  23446385.975    23446392.141
  23201685.189    -7839137.77549  -6083822.67546  23201684.498    23201688.727
  21941483.544   -19326286.27349 -15019191.31547  21941483.117    21941486.817
  22409491.588   -11206479.98149  -8712089.96546  22409490.962    22409494.548
  23533175.647    -5494975.49649  -4269389.08745  23533175.392    23533179.586
  21892671.955   -18382166.49849 -13707208.13947  21892671.379    21892673.898
 03  3 21  2 11  0.0000000  0  8G14G15G17G23G 3G31G 9G18
  20364396.452   -24099096.85749 -18756094.83548  20364395.862    20364397.986
  20990549.974   -25103872.71349 -19547802.59547  20990549.145    20990553.178
  23463638.994    -9611282.82749  -7199903.12145  23463638.221    23463644.537
  23213067.009    -7779326.01349  -6037216.10046  23213066.348    23213070.569
  21949029.682   -19286631.03349 -14988291.15247  21949029.253    21949032.955
  22407742.472   -11215671.85349  -8719252.44846  22407741.793    22407745.371
  23537711.611    -5471138.40349  -4250814.68345  23537711.401    23537715.536
  21903372.451   -18325934.98249 -13663391.37447  21903371.881    21903374.414
 03  3 21  2 11 30.0000000  0  8G14G15G17G23G 3G31G 9G18
  20358759.298   -24128720.26749 -18779177.99648  20358758.695    20358760.844
  21001239.544   -25047698.66349 -19504030.61547  21001238.685    21001242.732
  23480940.557    -9520362.47049  -7129056.12145  23480939.774    23480945.979
  23224453.807    -7719488.01149  -5990589.08646  23224453.135    23224457.359
  21956667.695   -19246493.07449 -14957014.83447  21956667.256    21956670.976
  22406103.241   -11224286.00849  -8725964.76846  22406102.558    22406106.121
  23542359.930    -5446711.11049  -4231780.37645  23542359.684    23542363.906
  21914095.914   -18269583.11249 -13619480.82847  21914095.308    21914097.829
 03  3 21  2 12  0.0000000  0  8G14G15G17G23G 3G31G 9G18
  20353223.146   -24157812.61349 -18801847.33548  20353222.557    20353224.701
  21012005.634   -24991122.48049 -19459945.29447  21012004.782    21012008.848
  23498290.540    -9429187.75549  -7058010.93045  23498289.742    23498296.000
  23235844.738    -7659628.13349  -5943945.01146  23235844.070    23235848.327
  21964396.397   -19205878.50349 -14925367.12847  21964395.965    21964399.660
  22404573.002   -11232326.92849  -8732230.40746  22404572.417    22404575.973
  23547119.692    -5421698.16149  -4212289.71245  23547119.508    23547123.659
  21924841.343   -18213115.46749 -13575480.05547  21924840.748    21924843.281
 03  3 21  2 12 30.0000000  0  8G14G15G17G23G 3G31G 9G18
  20347789.097   -24186368.64049 -18824098.76948  20347788.539    20347790.660
  21022849.142   -24934139.38649 -19415542.89947  21022848.305    21022852.374
  23515689.571    -9337755.27149  -6986764.88545  23515688.827    23515695.158
  23247240.813    -7599741.33549  -5897279.96146  23247240.141    23247244.385
  21972216.420   -19164784.24949 -14893345.64047  21972215.971    21972219.662
  22403152.961   -11239789.59849  -8738045.46546  22403152.321    22403155.880
  23551991.766    -5396094.85549  -4192339.04545  23551991.596    23551995.697
  21935609.594   -18156527.79349 -13531385.76347  21935608.994    21935611.556
 03  3 21  2 13  0.0000000  0  8G14G15G17G23G 3G31G 9G18
  20342457.145   -24214388.12349 -18845932.11948  20342456.570    20342458.680
  21033770.078   -24876749.63849 -19370823.63547  21033769.235    21033773.295
  23533137.500    -9246065.87849  -6915318.65145  23533136.758    23533143.079
  23258642.025    -7539827.45749  -5850593.81546  23258641.357    23258645.594
  21980127.344   -19123212.13349 -14860951.79547  21980126.905    21980130.589
  22401842.898   -11246674.08349  -8743409.98846  22401842.267    22401845.796
  23556976.129    -5369901.62049  -4171928.69645  23556975.925    23556980.142
  21946400.676   -18099820.19349 -13487198.02247  21946400.073    21946402.648
 03  3 21  2 13 30.0000000  0  8G14G15G17G23G 3G31G 9G18
  20337226.192   -24241876.89549 -18867351.92448  20337225.622    20337227.708
  21044767.131   -24818959.77749 -19325792.59047  21044766.281    21044770.341
  23550633.060    -9154126.18549  -6843677.36945  23550632.296    23550638.672
  23270047.220    -7479892.75149  -5803891.42846  23270046.552    23270050.767
  21988127.684   -19081170.09549 -14828191.77447  21988127.256    21988130.962
  22400641.601   -11252986.55949  -8748328.79346  22400641.049    22400644.558
  23562071.553    -5343124.76249  -4151063.56445  23562071.308    23562075.596
  21957213.314   -18042999.32749 -13442922.01447  21957212.738    21957215.283
 03  3 21  2 14  0.0000000  0  8G14G15G17G23G 3G31G 9G18
  20332097.098   -24268830.53149 -18888354.73748  20332096.542    20332098.607
  21055841.086   -24760765.89449 -19280446.71747  21055840.235    21055844.311
  23568176.838    -9061933.06749  -6771838.63345  23568176.102    23568182.417
  23281457.183    -7419932.92149  -5757169.47346  23281456.563    23281460.722
  21996217.909   -19038655.52849 -14795063.54947  21996217.476    21996221.236
  22399549.974   -11258722.89549  -8752798.65546  22399549.444    22399552.963
  23567278.783    -5315760.33549  -4129740.60745  23567278.503    23567282.789
  21968048.275   -17986061.25949 -13398554.67747  21968047.697    21968050.239
 03  3 21  2 14 30.0000000  0  8G14G15G17G23G 3G31G 9G18
  20327069.524   -24295250.54449 -18908941.74348  20327068.953    20327071.025
  21066991.602   -24702169.62949 -19234787.30247  21066990.766    21066994.806
  23585768.311    -8969489.46749  -6699804.69945  23585767.573    23585773.912
  23292871.629    -7359949.46749  -5710429.11246  23292870.971    23292875.181
  22004397.342   -18995672.10149 -14761569.98347  22004396.903    22004400.712
  22398567.714   -11263884.84649  -8756820.94246  22398567.155    22398570.647
  23572597.429    -5287810.52149  -4107961.48745  23572597.131    23572601.462
  21978905.126   -17929008.11449 -13354097.67347  21978904.521    21978907.078
 03  3 21  2 15  0.0000000  0  8G14G15G17G23G 3G31G 9G18
  20322144.129   -24321133.63549 -18929110.37248  20322143.553    20322145.635
  21078219.116   -24643168.58749 -19188812.48047  21078218.293    21078222.314
  23603407.808    -8876793.39249  -6627574.03245  23603407.121    23603413.346
  23304291.116    -7299939.38349  -5663668.01146  23304290.495    23304294.721
  22012666.203   -18952218.78849 -14727710.28047  22012665.769    22012669.562
  22397695.236   -11268469.58249  -8760393.45546  22397694.669    22397698.165
  23578027.938    -5259272.65649  -4085724.15745  23578027.621    23578032.019
  21989784.384   -17871837.13449 -13309548.85247  21989783.780    21989786.349
 03  3 21  2 15 30.0000000  0  8G14G15G17G23G 3G31G 9G18
  20317320.391   -24346482.45949 -18948862.68248  20317319.822    20317321.906
  21089523.070   -24583765.87349 -19142524.66147  21089522.238    21089526.271
  23621094.688    -8783848.32749  -6555149.34845  23621093.977    23621100.231
  23315715.243    -7239905.36849  -5616888.25346  23315714.616    23315718.806
  22021023.609   -18908300.36849 -14693488.14347  22021023.163    22021026.995
  22396932.111   -11272479.98449  -8763518.42547  22396931.547    22396935.027
  23583569.783    -5230149.90149  -4063031.07645  23583569.425    23583573.826
  22000685.466   -17814551.47349 -13264910.66047  22000684.863    22000687.448
 03  3 21  2 16  0.0000000  0  8G14G15G17G23G 3G31G 9G18
  20312598.117   -24371298.21049 -18968199.62048  20312597.551    20312599.606
  21100903.144   -24523963.25449 -19095925.23347  21100902.309    21100906.352
  23638828.502    -8690656.77949  -6482532.58345  23638827.791    23638834.070
  23327143.684    -7179848.68249  -5570090.83246  23327143.055    23327147.176
  22029468.862   -18863920.24349 -14658906.25047  22029468.426    22029472.292
  22396277.898   -11275917.66749  -8766197.13247  22396277.370    22396280.846
  23589222.643    -5200443.83149  -4039883.46245  23589222.381    23589226.622
  22011608.083   -17757152.65949 -13220184.30747  22011607.511    22011610.061
 03  3 21  2 16 30.0000000  0  8G14G15G17G23G 3G31G 9G18
  20307977.444   -24395579.98649 -18987120.47048  20307976.880    20307978.927
  21112359.442   -24463760.03849 -19049013.65347  21112358.608    21112362.679
  23656609.301    -8597218.54649  -6409723.61545  23656608.521    23656614.760
  23338576.538    -7119768.49849  -5523275.09046  23338575.910    23338580.017
  22038001.809   -18819079.17749 -14623965.18147  22038001.389    22038005.277
  22395732.882   -11278781.94349  -8768429.02547  22395732.307    22395735.793
  23594986.523    -5170154.11849  -4016281.06345  23594986.251    23594990.542
  22022552.329   -17699640.28349 -13175369.46547  22022551.744    22022554.317
 03  3 21  2 17  0.0000000  0  8G14G15G17G23G 3G31G 9G18
  20303458.943   -24419324.82149 -19005622.92648  20303458.358    20303460.404
  21123892.396   -24403153.94549 -19001788.14547  21123891.574    21123895.607
  23674437.198    -8503532.45549  -6336721.50445  23674436.548    23674442.711
  23350014.432    -7059661.92949  -5476438.79346  23350013.841    23350017.914
  22046622.648   -18773776.62249 -14588664.50147  22046622.221    22046626.061
  22395297.377   -11281070.32349  -8770212.16947  22395296.779    22395300.285
  23600861.866    -5139278.76449  -3992222.30745  23600861.544    23600865.800
  22033518.633   -17642011.95149 -13130464.27147  22033518.033    22033520.612
 03  3 21  2 17 30.0000000  0  8G14G15G17G23G 3G31G 9G18
  20299041.950   -24442536.27949 -19023709.76148  20299041.376    20299043.428
  21135501.296   -24342149.01149 -18954251.84847  21135500.467    21135504.482
  23692311.512    -8409602.64549  -6263529.48445  23692310.784    23692316.959
  23361456.633    -6999532.67349  -5429584.82046  23361456.020    23361460.108
  22055330.203   -18728018.14049 -14553008.55347  22055329.763    22055333.610
  22394970.762   -11282786.68949  -8771549.58947  22394970.155    22394973.671
  23606847.870    -5107821.79049  -3967710.35745  23606847.560    23606851.751
  22044506.287   -17584271.46349 -13085471.68047  22044505.676    22044508.266
 03  3 21  2 18  0.0000000  0  8G14G15G17G23G 3G31G 9G18
  20294726.658   -24465213.33949 -19041380.18448  20294726.073    20294728.112
  21147186.158   -24280744.72049 -18906404.36447  21147185.308    21147189.373
  23710232.120    -8315429.58849  -6190147.91945  23710231.429    23710237.676
  23372903.391    -6939379.60449  -5382712.29246  23372902.766    23372906.838
  22064124.314   -18681804.82949 -14516998.18947  22064123.855    22064127.722
  22394753.147   -11283930.42949  -8772440.80447  22394752.545    22394756.042
  23612944.620    -5075782.94049  -3942744.98845  23612944.369    23612948.553
  22055515.372   -17526418.01949 -13040391.06747  22055514.795    22055517.350
 03  3 21  2 18 30.0000000  0  8G14G15G17G23G 3G31G 9G18
  20290513.180   -24487355.34549 -19058633.68548  20290512.571    20290514.600
  21158947.039   -24218940.88349 -18858245.54847  21158946.206    21158950.297
  23728199.004    -8221013.27849  -6116576.80845  23728198.230    23728204.578
  23384354.847    -6879201.96149  -5335820.61346  23384354.178    23384358.305
  22073004.730   -18635137.96449 -14480634.42247  22073004.287    22073008.128
  22394644.516   -11284501.13549  -8772885.49647  22394643.901    22394647.427
  23619152.143    -5043161.87149  -3917325.94445  23619151.852    23619156.123
  22066546.006   -17468451.69549 -12995222.49747  22066545.428    22066547.991
 03  3 21  2 19  0.0000000  0  8G14G15G17G23G 3G31G 9G18
  20286401.290   -24508963.35049 -19075471.08248  20286400.697    20286402.719
  21170783.684   -24156738.86949 -18809776.46547  21170782.862    21170786.939
  23746211.688    -8126355.89149  -6042817.84345  23746210.921    23746217.281
  23395810.778    -6819000.44049  -5288910.34146  23395810.098    23395814.271
  22081970.943   -18588020.42049 -14443919.47247  22081970.510    22081974.326
  22394644.700   -11284500.21849  -8772884.77847  22394644.071    22394647.587
  23625470.227    -5009960.24649  -3891454.52045  23625469.968    23625474.160
  22077597.905   -17410373.53649 -12949966.78647  22077597.338    22077599.882
 03  3 21  2 19 30.0000000  0  8G14G15G17G23G 3G31G 9G18
  20282391.060   -24530037.06549 -19091892.14648  20282390.483    20282392.498
  21182696.125   -24094138.88449 -18760997.27647  21182695.295    21182699.361
  23764270.076    -8031458.33049  -5968871.72345  23764269.338    23764275.569
  23407271.315    -6758774.89849  -5241981.35046  23407270.634    23407274.870
  22091022.479   -18540454.33649 -14406855.00547  22091022.024    22091025.850
  22394753.642   -11283927.78249  -8772438.71347  22394752.965    22394756.506
  23631898.652    -4976178.67549  -3865131.18545  23631898.317    23631902.567
  22088671.120   -17352183.54749 -12904623.93547  22088670.532    22088673.064
 03  3 21  2 20  0.0000000  0  8G14G15G17G23G 3G31G 9G18
  20278482.431   -24550577.13049 -19107897.38148  20278481.869    20278483.860
  21194683.999   -24031142.16849 -18711908.94247  21194683.176    21194687.250
  23782373.804    -7936322.56849  -5894739.99245  23782373.135    23782379.432
  23418736.323    -6698525.90249  -5195034.08246  23418735.657    23418739.866
  22100158.859   -18492442.49249 -14369443.20447  22100158.429    22100162.207
  22394971.019   -11282784.96749  -8771548.20247  22394970.415    22394973.965
  23638437.251    -4941818.28249  -3838356.83545  23638436.821    23638441.112
  22099765.359   -17293882.90049 -12859194.85847  22099764.781    22099767.285
 03  3 21  2 20 30.0000000  0  8G14G15G17G23G 3G31G 9G18
  20274675.452   -24570582.92249 -19123486.29548  20274674.885    20274676.860
  21206747.494   -23967748.26249 -18662511.10847  21206746.665    21206750.715
  23800522.930    -7840948.75949  -5820422.77345  23800522.312    23800528.523
  23430205.927    -6638252.60849  -5148067.86846  23430205.246    23430209.457
  22109379.908   -18443985.80549 -14331684.76747  22109379.475    22109383.235
  22395297.153   -11281071.26349  -8770212.83647  22395296.519    22395300.055
  23645085.984    -4906878.98449  -3811131.37445  23645085.528    23645089.808
  22110880.784   -17235470.92349 -12813679.02047  22110880.196    22110882.649
 03  3 21  2 21  0.0000000  0  8G14G15G17G23G 3G31G 9G18
  20270969.678   -24590056.99349 -19138660.88248  20270969.090    20270971.050
  21218885.926   -23903960.40349 -18612806.29847  21218885.072    21218889.121
  23818716.592    -7745340.66349  -5745922.98045  23818715.966    23818722.209
  23441679.667    -6577957.49749  -5101084.65746  23441678.984    23441683.188
  22118684.614   -18395089.26749 -14293583.59747  22118684.154    22118687.912
  22395731.296   -11278789.85749  -8768435.10747  22395730.658    22395734.170
  23651844.166    -4871364.32049  -3783457.58845  23651843.779    23651848.063
  22122016.895   -17176950.45949 -12768078.64847  22122016.297    22122018.696
 03  3 21  2 21 30.0000000  0  8G14G15G17G23G 3G31G 9G18
  20267365.491   -24608997.07649 -19153419.37148  20267364.905    20267366.848
  21231099.700   -23839776.62149 -18562792.97247  21231098.876    21231102.928
  23836955.048    -7649496.72249  -5671239.42945  23836954.490    23836960.669
  23453158.004    -6517638.12249  -5054082.53446  23453157.327    23453161.560
  22128073.101   -18345752.64149 -14255139.48647  22128072.664    22128076.386
  22396273.800   -11275938.76149  -8766213.46047  22396273.203    22396276.722
  23658712.096    -4835272.68849  -3755334.20545  23658711.794    23658716.076
  22133173.967   -17118319.55849 -12722392.22647  22133173.383    22133175.743
 03  3 21  2 22  0.0000000  0  8G14G15G17G23G 3G31G 9G18
  20263862.893   -24627403.20849 -19167761.80448  20263862.310    20263864.247
  21243388.756   -23775197.27149 -18512471.41947  21243387.929    21243391.969
  23855238.282    -7553417.90149  -5596372.84045  23855237.623    23855243.921
  23464641.055    -6457293.99949  -5007061.14846  23464640.427    23464644.703
  22137544.939   -18295977.74049 -14216353.87647  22137544.517    22137548.212
  22396924.649   -11272518.28049  -8763548.14946  22396924.062    22396927.595
  23665689.845    -4798604.32649  -3726761.43845  23665689.565    23665693.854
  22144352.082   -17059578.12549 -12676619.68147  22144351.485    22144353.871
 03  3 21  2 22 30.0000000  0  8G14G15G17G23G 3G31G 9G18
  20260461.613   -24645277.00749 -19181689.42148  20260461.035    20260462.960
  21255752.687   -23710224.25149 -18461843.10247  21255751.859    21255755.927
  23873565.669    -7457107.00749  -5521325.42545  23873564.975    23873571.361
  23476128.614    -6396926.45749  -4960021.50446  23476127.985    23476132.246
  22147099.512   -18245768.21349 -14177229.58547  22147099.082    22147102.804
  22397683.520   -11268530.55449  -8760440.81646  22397682.857    22397686.406
  23672776.842    -4761361.67749  -3697741.17745  23672776.518    23672780.878
  22155550.852   -17000727.96249 -12630762.40547  22155550.262    22155552.676
 03  3 21  2 23  0.0000000  0  8G14G15G17G23G 3G31G 9G18
  20257161.766   -24662617.72249 -19195201.65148  20257161.209    20257163.128
  21268191.618   -23644857.24049 -18410907.78247  21268190.778    21268194.873
  23891937.146    -7360564.13349  -5446097.22645  23891936.467    23891942.828
  23487620.844    -6336534.50249  -4912962.83146  23487620.199    23487624.485
  22156736.513   -18195125.43249 -14137767.70347  22156736.101    22156739.830
  22398550.349   -11263975.13249  -8756891.12646  22398549.737    22398553.237
  23679973.114    -4723544.67949  -3668273.39445  23679972.796    23679977.201
  22166770.496   -16941768.24049 -12584819.75747  22166769.895    22166772.343
 03  3 21  2 23 30.0000000  0  8G14G15G17G23G 3G31G 9G18
  20253963.394   -24679425.16049 -19208298.34148  20253962.823    20253964.738
  21280705.467   -23579096.66149 -18359665.79447  21280704.635    21280708.744
  23910352.666    -7263790.05449  -5370688.88745  23910352.028    23910358.288
  23499117.773    -6276117.77749  -4865884.87246  23499117.140    23499121.422
  22166455.602   -18144051.28849 -14097969.69947  22166455.162    22166458.925
  22399525.170   -11258852.37849  -8752899.36846  22399524.532    22399528.048
  23687278.631    -4685153.76149  -3638358.38345  23687278.358    23687282.772
  22178010.944   -16882699.24749 -12538791.96747  22178010.343    22178012.815
 03  3 21  2 24  0.0000000  0  8G14G15G17G23G 3G31G 9G18
  20250865.923   -24695702.39549 -19220981.88848  20250865.348    20250867.264
  21293293.559   -23512945.71049 -18308119.61447  21293292.720    21293296.843
  23928811.359    -7166788.91649  -5295103.60445  23928810.719    23928817.063
  23510618.951    -6215678.69449  -4818789.48046  23510618.267    23510622.545
  22176255.836   -18092550.74049 -14057839.42947  22176255.408    22176259.210
  22400607.305   -11253165.57849  -8748468.09146  22400606.693    22400610.186
  23694692.692    -4646192.55049  -3607999.00745  23694692.465    23694696.799
  22189271.593   -16823523.84549 -12492681.26447  22189270.997    22189273.498
 03  3 21  2 24 30.0000000  0  8G14G15G17G23G 3G31G 9G18
  20247869.608   -24711448.01849 -19233251.18648  20247869.052    20247870.951
  21305956.079   -23446403.67649 -18256268.69547  21305955.234    21305959.379
  23947313.388    -7069560.01349  -5219340.85645  23947312.840    23947319.079
  23522124.691    -6155215.70649  -4771675.46146  23522124.012    23522128.309
  22186137.147   -18040624.35249 -14017377.33647  22186136.697    22186140.543
  22401796.907   -11246913.92649  -8743596.66546  22401796.349    22401799.869
  23702215.385    -4606660.45049  -3577194.76845  23702215.118    23702219.539
  22200552.774   -16764240.78349 -12446486.66947  22200552.188    22200554.732
 03  3 21  2 25  0.0000000  0  8G14G15G17G23G 3G31G 9G18
  20244974.582   -24726661.33849 -19245105.70448  20244974.016    20244975.938
  21318693.132   -23379470.09149 -18204112.67347  21318692.306    21318696.431
  23965858.677    -6972103.70349  -5143400.89445  23965858.171    23965864.521
  23533635.151    -6094727.73149  -4724541.98346  23533634.484    23533638.800
  22196099.160   -17988273.64149 -13976584.59747  22196098.711    22196102.547
  22403094.142   -11240096.91249  -8738284.68947  22403093.561    22403097.105
  23709846.804    -4566557.41949  -3545945.64345  23709846.525    23709850.895
  22211854.623   -16704849.21749 -12400207.51947  22211854.073    22211856.580
 03  3 21  2 25 30.0000000  0  8G14G15G17G23G 3G31G 9G18
  20242180.442   -24741344.57649 -19256547.17448  20242179.860    20242181.796
  21331504.172   -23312147.60649 -18151653.61047  21331503.328    21331507.474
  23984446.631    -6874423.21049  -5067286.25545  23984446.104    23984452.476
  23545150.005    -6034216.68249  -4677390.52346  23545149.332    23545153.704
  22206141.137   -17935502.73549 -13935464.43047  22206140.689    22206144.523
  22404498.387   -11232717.51949  -8732534.51147  22404497.799    22404501.379
  23717586.276    -4525886.42749  -3514253.95945  23717585.947    23717590.278
  22223176.645   -16645351.60149 -12353845.74447  22223176.085    22223178.600
 03  3 21  2 26  0.0000000  0  8G14G15G17G23G 3G31G 9G18
  20239487.186   -24755497.57849 -19267575.47048  20239486.605    20239488.554
  21344389.232   -23244436.20949 -18098891.49947  21344388.397    21344392.558
  24003077.119    -6776519.43649  -4990997.63545  24003076.516    24003083.079
  23556669.394    -5973681.84649  -4630220.52746  23556668.748    23556673.108
  22216262.789   -17882313.22549 -13894018.08347  22216262.342    22216266.180
  22406009.626   -11224775.84149  -8726346.18947  22406009.063    22406012.646
  23725433.698    -4484647.97549  -3482120.10645  23725433.384    23725437.698
  22234518.930   -16585747.48049 -12307400.96947  22234518.353    22234520.872
 03  3 21  2 26 30.0000000  0  8G14G15G17G23G 3G31G 9G18
  20236894.783   -24769120.60549 -19278190.80548  20236894.220    20236896.160
  21357348.177   -23176336.48749 -18045826.80247  21357347.346    21357351.513
  24021749.974    -6678393.06449  -4914535.54545  24021749.379    24021755.983
  23568193.382    -5913122.94649  -4583031.78146  23568192.740    23568197.049
  22226463.617   -17828707.41649 -13852247.35147  22226463.200    22226467.022
  22407627.791   -11216272.37149  -8719720.10747  22407627.203    22407630.778
  23733389.034    -4442842.83949  -3449544.67645  23733388.647    23733393.015
  22245881.433   -16526037.08649 -12260873.39047  22245880.857    22245883.354
 03  3 21  2 27  0.0000000  0  8G14G15G17G23G 3G31G 9G18
  20234403.289   -24782213.32749 -19288392.90748  20234402.725    20234404.650
  21370381.017   -23107848.50449 -17992459.55747  21370380.194    21370384.369
  24040464.913    -6580045.27049  -4837900.93645  24040464.283    24040470.927
  23579722.132    -5852539.17249  -4535823.64946  23579721.478    23579725.747
  22236743.383   -17774687.00749 -13810153.53347  22236742.973    22236746.808
  22409352.790   -11207207.36449  -8712656.45947  22409352.198    22409355.785
  23741452.056    -4400471.39049  -3416527.97045  23741451.665    23741455.933
  22257264.256   -16466220.02749 -12214262.68946  22257263.657    22257266.143
 03  3 21  2 27 30.0000000  0  8G14G15G17G23G 3G31G 9G18
  20232012.310   -24794777.97749 -19298183.53248  20232011.740    20232013.644
  21383487.232   -23038974.97049 -17938791.88647  21383486.410    21383490.572
  24059221.468    -6481479.01249  -4761096.08745  24059220.838    24059227.426
  23591255.256    -5791932.24649  -4488597.48246  23591254.624    23591258.849
  22247101.266   -17720256.01449 -13767739.79947  22247100.852    22247104.686
  22411184.131   -11197583.51449  -8705157.36147  22411183.531    22411187.154
  23749622.292    -4357536.53349  -3383072.23745  23749621.939    23749626.198
  22268666.970   -16406298.31849 -12167570.45246  22268666.353    22268668.847
 03  3 21  2 28  0.0000000  0  8G14G15G17G23G 3G31G 9G18
  20229722.376   -24806811.51349 -19307560.29448  20229721.835    20229723.728
  21396667.302   -22969713.19649 -17884821.68147  21396666.476    21396670.653
  24078020.104    -6382691.74049  -4684119.02745  24078019.354    24078026.105
  23602793.437    -5731298.66149  -4441350.52946  23602792.787    23602797.015
  22257537.437   -17665413.74649 -13725005.59547  22257537.018    22257540.864
  22413122.347   -11187398.24149  -8697220.77947  22413121.729    22413125.378
  23757900.115    -4314036.13349  -3349175.82345  23757899.758    23757904.107
  22280090.170   -16346268.82749 -12120794.21546  22280089.575    22280092.091
 03  3 21  2 28 30.0000000  0  8G14G15G17G23G 3G31G 9G18
  20227532.411   -24818319.88349 -19316527.83948  20227531.851    20227533.765
  21409920.152   -22900069.08849 -17830553.56047  21409919.331    21409923.512
  24096859.394    -6283690.38149  -4606975.13445  24096858.772    24096865.449
  23614335.737    -5670643.40949  -4394086.70646  23614335.086    23614339.329
  22268050.375   -17610167.77249 -13681956.81547  22268049.970    22268053.828
  22415166.170   -11176657.78949  -8688851.59247  22415165.574    22415169.165
  23766284.294    -4269976.74649  -3314843.83245  23766283.994    23766288.313
  22291532.858   -16286137.03949 -12073938.28046  22291532.293    22291534.770
 03  3 21  2 29  0.0000000  0  8G14G15G17G23G 3G31G 9G18
  20225443.034   -24829299.56849 -19325083.42648  20225442.458    20225444.357
  21423246.311   -22830039.63149 -17775985.16847  21423245.496    21423249.672
  24115740.042    -6184472.10049  -4529662.22845  24115739.390    24115746.027
  23625882.860    -5609962.59349  -4346802.96546  23625882.222    23625886.506
  22278640.476   -17554516.55549 -13638592.26847  22278640.039    22278643.960
  22417316.299   -11165359.12549  -8680047.44047  22417315.656    22417319.234
  23774775.422    -4225355.79149  -3280074.25945  23774775.126    23774779.468
  22302995.744   -16225899.37949 -12026999.83847  22302995.168    22302997.688
 03  3 21  2 29 30.0000000  0  9G25G14G15G17G23G 3G31G 9G18
  24529755.755    -4849518.55859  -3507787.43845  24529755.414    24529761.341
  20223453.718   -24839753.59749 -19333229.40848  20223453.135    20223455.028
  21436645.188   -22759628.08449 -17721119.04347  21436644.370    21436648.525
  24134661.236    -6085040.78549  -4452183.30245  24134660.622    24134667.230
  23637434.432    -5549258.55249  -4299501.12846  23637433.825    23637438.128
  22289306.705   -17498465.09149 -13594915.84147  22289306.284    22289310.229
  22419571.915   -11153505.70249  -8670811.00747  22419571.274    22419574.841
  23783372.702    -4180176.69149  -3244869.77145  23783372.344    23783376.754
  22314478.248   -16165558.56249 -11979981.01947  22314477.669    22314480.184
 03  3 21  2 30  0.0000000  0  9G25G14G15G17G23G 3G31G 9G18
  24511107.240    -4947516.95249  -3584149.75145  24511106.914    24511112.733
  20221564.235   -24849682.56049 -19340966.24448  20221563.663    20221565.574
  21450116.615   -22688835.38349 -17665955.91847  21450115.784    21450119.961
  24153622.725    -5985397.91149  -4374539.54245  24153622.105    24153628.621
  23648990.444    -5488531.28249  -4252181.18246  23648989.816    23648994.245
  22300048.619   -17442015.91049 -13550929.49147  22300048.198    22300052.204
  22421932.831   -11141098.68749  -8661143.19747  22421932.229    22421935.813
  23792075.938    -4134440.87449  -3209231.46345  23792075.599    23792079.944
  22325980.285   -16105115.12449 -11932882.24047  22325979.686    22325982.212
 03  3 21  2 30 30.0000000  0  9G25G14G15G17G23G 3G31G 9G18
  24492448.434    -5045569.10149  -3660553.96145  24492448.022    24492454.017
  20219775.297   -24859083.41749 -19348291.56948  20219774.721    20219776.638
  21463661.070   -22617658.63549 -17610493.52647  21463660.237    21463664.428
  24172624.917    -5885541.22349  -4296729.16745  24172624.310    24172630.786
  23660551.597    -5427777.08449  -4204840.27046  23660550.941    23660555.372
  22310866.458   -17385167.75649 -13506632.26047  22310866.059    22310870.095
  22424399.652   -11128135.38749  -8651041.92747  22424399.081    22424402.647
  23800885.576    -4088145.87849  -3173157.43045  23800885.300    23800889.541
  22337502.467   -16044565.69349 -11885700.86046  22337501.869    22337504.413
 03  3 21  2 31  0.0000000  0  9G25G14G15G17G23G 3G31G 9G18
  24473779.587    -5143674.26849  -3736999.48245  24473779.145    24473785.056
  20218086.337   -24867958.89349 -19355207.51048  20218085.751    20218087.690
  21477278.060   -22546101.01549 -17554734.36047  21477277.240    21477281.428
  24191667.068    -5785474.40949  -4218755.06045  24191666.448    24191672.903
  23672117.474    -5366997.98449  -4157479.93646  23672116.845    23672121.242
  22321759.363   -17327925.35149 -13462027.82947  22321758.948    22321763.003
  22426971.705   -11114619.09449  -8640509.75747  22426971.161    22426974.684
  23809800.961    -4041295.37849  -3136650.57245  23809800.648    23809804.895
  22349044.373   -15983912.43349 -11838438.58146  22349043.779    22349046.333
 03  3 21  2 31 30.0000000  0  9G25G14G15G17G23G 3G31G 9G18
  24455101.257    -5241829.41349  -3813483.94045  24455100.777    24455106.630
  20216497.396   -24876308.72649 -19361713.85948  20216496.830    20216498.756
  21490967.505   -22474162.66649 -17498678.51647  21490966.683    21490970.852
  24210749.127    -5685197.65949  -4140617.35745  24210748.487    24210754.868
  23683688.320    -5306192.89549  -4110099.35746  23683687.704    23683692.044
  22332727.024   -17270290.20649 -13417117.36147  22332726.605    22332730.634
  22429648.970   -11100549.97749  -8629546.81847  22429648.438    22429651.961
  23818821.972    -3993889.72149  -3099711.10345  23818821.723    23818825.913
  22360606.069   -15923155.10449 -11791095.21546  22360605.485    22360608.092
 03  3 21  2 32  0.0000000  0  9G25G14G15G17G23G 3G31G 9G18
  24436413.346    -5340034.66849  -3890007.45745  24436412.953    24436418.745
  20215007.831   -24884136.25949 -19367813.22148  20215007.272    20215009.209
  21504728.753   -22401846.80249 -17442328.50947  21504727.927    21504732.118
  24229870.387    -5584714.80949  -4062319.06145  24229869.691    24229876.076
  23695263.635    -5245364.33549  -4062700.49946  23695263.031    23695267.345
  22343768.318   -17212267.81849 -13371905.14947  22343767.901    22343771.936
  22432430.757   -11085931.72049  -8618155.97747  22432430.192    22432433.755
  23827947.796    -3945932.97249  -3062342.22645  23827947.525    23827951.752
  22372187.057   -15862296.32049 -11743672.78346  22372186.468    22372189.098
 03  3 21  2 32 30.0000000  0  9G25G14G15G17G23G 3G31G 9G18
  24417717.068    -5438284.03149  -3966565.32945  24417716.797    24417722.503
  20213618.244   -24891438.64849 -19373503.37848  20213617.684    20213619.599
  21518562.280   -22329151.12749 -17385682.54447  21518561.450    21518565.636
  24249031.195    -5484024.27049  -3983858.92345  24249030.405    24249036.697
  23706844.065    -5184508.93449  -4015280.71646  23706843.434    23706847.749
  22354883.543   -17153857.08449 -13326390.33047  22354883.117    22354887.191
  22435317.447   -11070762.05949  -8606335.46247  22435316.863    22435320.406
  23837178.883    -3897423.35549  -3024542.53245  23837178.625    23837182.849
  22383787.980   -15801332.94849 -11696168.86246  22383787.396    22383790.030
 03  3 21  2 33  0.0000000  0  9G25G14G15G17G23G 3G31G 9G18
  24399012.514    -5536576.61549  -4043156.87745  24399012.356    24399018.019
  20212328.151   -24898218.12549 -19378786.07448  20212327.577    20212329.497
  21532467.627   -22256078.12549 -17328742.55647  21532466.813    21532470.963
  24268230.925    -5383128.90549  -3905239.18045  24268230.164    24268236.412
  23718429.341    -5123628.10049  -3967841.12246  23718428.733    23718432.949
  22366071.864   -17095062.10549 -13280576.09847  22366071.441    22366075.506
  22438308.558   -11055043.83849  -8594087.49947  22438308.002    22438311.517
  23846514.659    -3848363.58949  -2986314.15945  23846514.372    23846518.646
  22395408.451   -15740266.85349 -11648584.89846  22395407.872    22395410.506
 03  3 21  2 33 30.0000000  0  9G25G14G15G17G23G 3G31G 9G18
  24380299.928    -5634911.55149  -4119781.43745  24380299.680    24380305.445
  20211136.958   -24904477.72249 -19383663.66948  20211136.391    20211138.312
  21546444.167   -22182631.07849 -17271511.11147  21546443.338    21546447.488
  24287468.972    -5282032.28849  -3826462.61845  24287468.305    24287474.596
  23730019.128    -5062723.77649  -3920383.22046  23730018.500    23730022.667
  22377332.478   -17035887.39149 -13234465.98046  22377332.045    22377336.117
  22441403.390   -11038780.25449  -8581414.59147  22441402.840    22441406.319
  23855954.437    -3798757.19849  -2947659.83345  23855954.137    23855958.405
  22407047.985   -15679100.74349 -11600923.01046  22407047.414    22407050.011
 03  3 21  2 34  0.0000000  0  8G25G14G15G23G 3G31G 9G18
  24361580.823    -5733280.50649  -4196432.48945  24361580.609    24361586.490
  20210045.776   -24910211.96449 -19388131.89748  20210045.217    20210047.135
  21560492.916   -22108804.47049 -17213983.90147  21560492.102    21560496.236
  23741614.501    -5001789.71749  -3872902.14246  23741613.893    23741617.996
  22388665.966   -16976329.62649 -13188057.37546  22388665.539    22388669.600
  22444602.997   -11021966.43949  -8568312.92747  22444602.425    22444605.907
  23865499.147    -3748599.58049  -2908575.97145  23865498.819    23865503.101
  22418707.734   -15617828.41549 -11553178.33946  22418707.152    22418709.715
 03  3 21  2 34 30.0000000  0  8G25G14G15G23G 3G31G 9G18
  24342854.479    -5831687.89349  -4273113.49945  24342854.243    24342860.200
  20209053.074   -24915428.40049 -19392196.63648  20209052.514    20209054.433
  21574612.350   -22034606.40149 -17156167.24047  21574611.537    21574615.673
  23753214.211    -4940832.83149  -3825403.28845  23753213.602    23753217.725
  22400070.548   -16916398.51149 -13141357.84246  22400070.124    22400074.147
  22447905.684   -11004610.72049  -8554788.99247  22447905.119    22447908.593
  23875147.071    -3697899.37749  -2869069.32545  23875146.700    23875150.965
  22430386.321   -15556457.08949 -11505356.52846  22430385.747    22430388.319
 03  3 21  2 35  0.0000000  0  8G25G14G15G23G 3G31G 9G18
  24324122.047    -5930127.14449  -4349819.33545  24324121.961    24324127.802
  20208159.523   -24920124.00349 -19395855.53248  20208158.963    20208160.893
  21588803.055   -21960033.83449 -17098058.76447  21588802.233    21588806.396
  23764819.072    -4879848.78749  -3777883.26645  23764818.468    23764822.563
  22411546.455   -16856092.47949 -13094366.17546  22411546.049    22411550.016
  22451312.039   -10986710.23949  -8540840.57846  22451311.470    22451314.934
  23884898.750    -3646653.87449  -2829137.77245  23884898.319    23884902.644
  22442084.384   -15494983.20549 -11457454.80346  22442083.829    22442086.381
 03  3 21  2 35 30.0000000  0  8G25G14G15G23G 3G31G 9G18
  24305383.912    -6028596.40049  -4426548.54545  24305383.843    24305389.495
  20207364.710   -24924300.57849 -19399109.99448  20207364.153    20207366.092
  21603064.656   -21885088.67949 -17039659.96247  21603063.850    21603068.026
  23776428.901    -4818838.73549  -3730342.97745  23776428.261    23776432.381
  22423092.988   -16795415.18549 -13047085.21046  22423092.556    22423096.526
  22454821.612   -10968267.25049  -8526469.43646  22454821.021    22454824.507
  23894753.786    -3594865.51949  -2788783.20645  23894753.426    23894757.678
  22453801.745   -15433408.03149 -11409474.15246  22453801.197    22453803.745
 03  3 21  2 36  0.0000000  0  8G25G14G15G23G 3G31G 9G18
  24286640.124    -6127095.72249  -4503301.18845  24286639.959    24286645.684
  20206668.116   -24927961.17849 -19401962.39948  20206667.575    20206669.507
  21617396.463   -21809774.58749 -16980973.68447  21617395.658    21617399.853
  23788043.232    -4757804.89249  -3682784.15145  23788042.611    23788046.747
  22434709.212   -16734371.46649 -12999518.69846  22434708.794    22434712.755
  22458433.709   -10949285.52549  -8511678.49646  22458433.120    22458436.639
  23904711.352    -3542538.40449  -2748008.83045  23904711.023    23904715.187
  22465537.907   -15371734.14549 -11361416.58346  22465537.352    22465539.910
 03  3 21  2 36 30.0000000  0  8G25G14G15G23G 3G31G 9G18
  24267891.837    -6225618.19549  -4580071.87045  24267891.618    24267897.393
  20206070.382   -24931102.30549 -19404410.01348  20206069.809    20206071.751
  21631799.189   -21734087.83249 -16921997.00947  21631798.397    21631802.597
  23799662.987    -4696742.50549  -3635203.07645  23799662.386    23799666.538
  22446395.481   -16672959.71449 -12951665.41146  22446395.054    22446399.099
  22462148.912   -10929761.79749  -8496465.21446  22462148.338    22462151.875
  23914771.900    -3489669.59249  -2706812.34245  23914771.608    23914775.762
  22477293.726   -15309957.01449 -11313278.56346  22477293.174    22477295.764
 03  3 21  2 37  0.0000000  0  8G25G14G15G23G 3G31G 9G18
  24249138.943    -6324165.22149  -4656861.67745  24249138.681    24249144.370
  20205570.522   -24933728.95149 -19406456.73648  20205569.955    20205571.900
  21646271.839   -21658033.77049 -16862734.12547  21646271.018    21646275.255
  23811287.389    -4635655.81849  -3587603.08445  23811286.809    23811290.978
  22458150.508   -16611186.88749 -12903530.76546  22458150.066    22458154.124
  22465966.197   -10909701.95549  -8480834.18246  22465965.606    22465969.157
  23924934.430    -3436264.96149  -2665198.33045  23924934.203    23924938.369
  22489068.246   -15248081.46549 -11265063.84846  22489067.702    22489070.287
 03  3 21  2 37 30.0000000  0  8G25G14G15G23G 3G31G 9G18
  24230382.180    -6422732.73449  -4733667.47245  24230381.846    24230387.587
  20205168.686   -24935840.62549 -19408102.18148  20205168.123    20205170.054
  21660814.379   -21581612.30949 -16803184.95447  21660813.581    21660817.812
  23822916.722    -4574543.18349  -3539982.86645  23822916.168    23822920.348
  22469974.017   -16549054.20449 -12855115.73046  22469973.581    22469977.635
  22469885.544   -10889105.88049  -8464785.30346  22469884.932    22469888.501
  23935198.845    -3382324.86649  -2623167.07145  23935198.657    23935202.831
  22500861.667   -15186106.45549 -11216771.63546  22500861.148    22500863.728
 03  3 21  2 38  0.0000000  0  8G25G14G15G23G 3G31G 9G18
  24211622.362    -6521315.68749  -4810485.28145  24211622.003    24211627.820
  20204865.141   -24937435.57449 -19409344.98748  20204864.573    20204866.519
  21675427.133   -21504821.88249 -16743348.28447  21675426.324    21675430.567
  23834551.580    -4513401.84749  -3492340.28845  23834550.963    23834555.250
  22481865.979   -16486561.75949 -12806420.37946  22481865.548    22481869.567
  22473907.144   -10867972.32149  -8448317.61246  22473906.538    22473910.120
  23945565.379    -3327848.36149  -2580717.83945  23945565.210    23945569.410
  22512674.528   -15124029.51549 -11168399.99946  22512674.010    22512676.604
 03  3 21  2 38 30.0000000  0  9G25G11G14G15G23G 3G31G 9G18
  24192859.166    -6619916.62349  -4887317.10045  24192858.853    24192864.596
  24671429.242    -4775750.94459  -3703299.28445  24671429.035    24671432.869
  20204658.756   -24938520.04549 -19410190.01348  20204658.196    20204660.147
  21690108.832   -21427669.01949 -16683229.19447  21690108.011    21690112.267
  23846190.847    -4452236.99449  -3444679.38845  23846190.206    23846194.589
  22493824.930   -16423717.19849 -12757450.61446  22493824.490    22493828.493
  22478029.790   -10846307.94949  -8431436.29446  22478029.134    22478032.723
  23956032.722    -3272842.08549  -2537855.78245  23956032.524    23956036.828
  22524505.723   -15061856.09249 -11119953.17546  22524505.190    22524507.787
 03  3 21  2 39  0.0000000  0  9G25G11G14G15G23G 3G31G 9G18
  24174093.643    -6718529.67749  -4964158.36645  24174093.314    24174099.004
  24652340.747    -4876061.74749  -3781463.47245  24652340.420    24652344.361
  20204550.000   -24939091.52549 -19410635.31448  20204549.441    20204551.379
  21704859.992   -21350151.05549 -16622825.61347  21704859.179    21704863.452
  23857835.299    -4391044.94549  -3396997.29545  23857834.655    23857839.148
  22505850.945   -16360520.04349 -12708206.12346  22505850.524    22505854.546
  22482253.736   -10824110.80649  -8414139.83246  22482253.120    22482256.699
  23966601.094    -3217304.66549  -2494579.85545  23966600.908    23966605.089
  22536355.963   -14999582.77549 -11071428.51746  22536355.415    22536357.997
 03  3 21  2 39 30.0000000  0  9G25G11G14G15G23G 3G31G 9G18
  24155326.837    -6817149.45649  -5041004.87545  24155326.555    24155332.254
  24633263.783    -4976311.69949  -3859580.26645  24633263.417    24633267.385
  20204539.225   -24939148.29449 -19410679.53948  20204538.659    20204540.584
  21719680.887   -21272266.61049 -16562136.45847  21719680.088    21719684.382
  23869485.500    -4329822.84149  -3349291.78445  23869484.889    23869489.354
  22517944.057   -16296970.35449 -12658686.95046  22517943.632    22517947.724
  22486579.271   -10801379.79049  -8396427.36346  22486578.696    22486582.330
  23977270.806    -3161235.08249  -2450889.25545  23977270.431    23977274.748
  22548225.627   -14937207.43449 -11022824.35646  22548225.068    22548227.611
 03  3 21  2 40  0.0000000  0  9G25G11G14G15G23G 3G31G 9G18
  24136558.614    -6915777.00849  -5117857.43645  24136558.319    24136564.029
  24614198.086    -5076502.57949  -3937651.01145  24614197.626    24614201.631
  20204625.453   -24938694.98549 -19410326.30348  20204624.899    20204626.833
  21734570.615   -21194020.57849 -16501165.55147  21734569.830    21734574.141
  23881140.724    -4268574.26549  -3301565.64745  23881140.040    23881144.587
  22530103.015   -16233074.73049 -12608898.20846  22530102.584    22530106.702
  22491005.456   -10778120.07049  -8378302.93046  22491004.871    22491008.542
  23988040.706    -3104638.76449  -2406788.20345  23988040.345    23988044.648
  22560113.996   -14874733.82249 -10974143.62046  22560113.418    22560115.955
 03  3 21  2 40 30.0000000  0  9G25G11G14G15G23G 3G31G 9G18
  24117789.479    -7014409.19449  -5194713.60445  24117789.212    24117794.760
  24595144.069    -5176631.80049  -4015673.72345  24595143.646    24595147.559
  20204808.702   -24937731.94749 -19409575.87048  20204808.152    20204810.042
  21749529.133   -21115413.27749 -16439913.13647  21749528.315    21749532.638
  23892801.162    -4207298.38349  -3253818.23145  23892800.509    23892805.050
  22542327.344   -16168835.37749 -12558841.60646  22542326.922    22542331.118
  22495532.118   -10754332.48749  -8359767.16546  22495531.497    22495535.185
  23998910.644    -3047516.72449  -2362277.50245  23998910.310    23998914.618
  22572021.096   -14812161.53449 -10925385.99546  22572020.516    22572023.043
 03  3 21  2 41  0.0000000  0  9G25G11G14G15G23G 3G31G 9G18
  24099020.262    -7113041.92649  -5271570.20745  24099020.007    24099025.489
  24576102.449    -5276695.90649  -4093645.69245  24576101.959    24576105.782
  20205089.040   -24936258.80549 -19408427.95548  20205088.488    20205090.353
  21764556.440   -21036444.29549 -16378378.88847  21764555.622    21764559.949
  23904467.077    -4145993.46549  -3206048.21245  23904466.462    23904470.984
  22554616.978   -16104253.20349 -12508517.89046  22554616.524    22554620.760
  22500159.107   -10730017.06649  -8340820.10246  22500158.554    22500162.247
  24009880.549    -2989869.33449  -2317357.43145  24009880.226    24009884.512
  22583947.187   -14749489.49749 -10876550.64246  22583946.619    22583949.133
 03  3 21  2 41 30.0000000  0  9G25G11G14G15G23G 3G31G 9G18
  24080251.664    -7211671.20749  -5348424.11645  24080251.359    24080256.743
  24557073.875    -5376691.63149  -4171564.37645  24557073.462    24557077.267
  20205466.534   -24934275.05449 -19406882.17148  20205465.977    20205467.833
  21779652.586   -20957113.64749 -16316562.83847  21779651.761    21779656.108
  23916138.836    -4084657.95849  -3158254.34545  23916138.192    23916142.793
  22566971.550   -16039329.44449 -12457928.01546  22566971.121    22566975.389
  22504886.586   -10705174.18249  -8321462.03146  22504886.032    22504889.732
  24020950.375    -2931697.10749  -2272028.39545  24020950.002    24020954.287
  22595892.519   -14686716.18649 -10827636.39146  22595891.979    22595894.501
 03  3 21  2 42  0.0000000  0  9G25G11G14G15G23G 3G31G 9G18
  24061483.463    -7310298.28649  -5425276.30545  24061483.162    24061488.604
  24538057.814    -5476621.41249  -4249431.69445  24538057.426    24538061.084
  20205940.176   -24931785.88949 -19404942.55148  20205939.619    20205941.496
  21794816.551   -20877426.36749 -16254468.89047  21794815.743    21794820.107
  23927815.690    -4023295.84849  -3110439.74145  23927815.058    23927819.659
  22579389.808   -15974071.14849 -12407077.46746  22579389.404    22579393.700
  22509713.412   -10679809.29849  -8301697.20846  22509712.800    22509716.511
  24032118.931    -2873005.71349  -2226294.81545  24032118.661    24032122.787
  22607856.313   -14623846.07549 -10778646.70746  22607855.767    22607858.301
 03  3 21  2 42 30.0000000  0  9G25G11G14G15G23G 3G31G 9G18
  24042716.467    -7408919.41749  -5502123.86145  24042716.134    24042721.513
  24519054.975    -5576481.69649  -4327244.84045  24519054.712    24519058.220
  20206510.080   -24928791.04049 -19402608.89448  20206509.534    20206511.382
  21810048.391   -20797382.41749 -16192097.01247  21810047.608    21810051.987
  23939497.859    -3961905.79149  -3062603.37345  23939497.251    23939501.802
  22591871.449   -15908479.68949 -12355967.27846  22591871.043    22591875.362
  22514639.423   -10653922.77149  -8281525.90146  22514638.870    22514642.563
  24043386.143    -2813795.76149  -2180157.16645  24043385.801    24043389.978
  22619838.739   -14560878.07049 -10729580.73946  22619838.182    22619840.674
 03  3 21  2 43  0.0000000  0  9G25G11G14G15G23G 3G31G 9G18
  24023951.364    -7507530.24049  -5578963.39745  24023951.045    24023956.498
  24500066.005    -5676269.13649  -4405001.23545  24500065.717    24500069.229
  20207176.303   -24925290.01449 -19399880.80948  20207175.763    20207177.594
  21825348.187   -20716981.56749 -16129447.03047  21825347.386    21825351.808
  23951185.688    -3900485.98549  -3014743.80845  23951185.100    23951189.571
  22604416.309   -15842556.29549 -12304598.43846  22604415.928    22604420.274
  22519664.744   -10627514.69649  -8260948.19446  22519664.171    22519667.882
  24054751.980    -2754067.81849  -2133615.86845  24054751.672    24054755.876
  22631840.042   -14497810.92249 -10680437.51846  22631839.484    22631841.936
 03  3 21  2 43 30.0000000  0  9G25G11G14G15G23G 3G31G 9G18
  24005188.628    -7606128.38149  -5655793.04445  24005188.304    24005193.909
  24481091.265    -5775981.85149  -4482699.39345  24481091.034    24481094.469
  20207938.637   -24921283.93249 -19396759.17948  20207938.086    20207939.907
  21840715.686   -20636224.96449 -16066519.86047  21840714.898    21840719.309
  23962879.177    -3839036.38949  -2966861.04645  23962878.535    23962883.079
  22617023.717   -15776303.95349 -12252973.29446  22617023.350    22617027.685
  22524788.903   -10600586.94849  -8239965.55246  22524788.373    22524792.082
  24066215.992    -2693823.78749  -2086672.43845  24066215.646    24066219.930
  22643860.161   -14434644.82449 -10631217.20046  22643859.622    22643862.043
 03  3 21  2 44  0.0000000  0  9G25G11G14G15G23G 3G31G 9G18
  23986428.575    -7704712.73449  -5732611.95245  23986428.302    23986433.796
  24462130.774    -5875619.78749  -4560339.27845  24462130.440    24462133.914
  20208796.480   -24916775.84349 -19393246.36948  20208795.922    20208797.752
  21856150.308   -20555115.57749 -16003317.77147  21856149.512    21856153.924
  23974578.022    -3777558.48949  -2918956.20945  23974577.386    23974581.979
  22629692.929   -15709727.25449 -12201095.39946  22629692.550    22629696.839
  22530011.340   -10573142.84249  -8218580.54346  22530010.798    22530014.539
  24077777.640    -2633067.04549  -2039329.47545  24077777.271    24077781.681
  22655898.738   -14371381.64049 -10581921.22646  22655898.198    22655900.655
 03  3 21  2 44 30.0000000  0  9G25G11G14G15G23G 3G31G 9G18
  23967671.244    -7803282.88449  -5809419.77845  23967670.987    23967676.481
  24443184.549    -5975182.54149  -4637920.57745  24443184.135    24443187.816
  20209749.291   -24911768.74449 -19389344.72248  20209748.742    20209750.577
  21871651.448   -20473656.65949 -15939843.32147  21871650.651    21871655.056
  23986281.974    -3716054.06149  -2871030.71445  23986281.333    23986285.905
  22642422.927   -15642830.93449 -12148968.44646  22642422.547    22642426.817
  22535331.297   -10545186.11349  -8196796.09246  22535330.755    22535334.529
  24089436.058    -2571801.56149  -1991590.08045  24089435.820    24089439.990
  22667955.406   -14308023.41549 -10532551.19646  22667954.881    22667957.347
 03  3 21  2 45  0.0000000  0  9G25G11G14G15G23G 3G31G 9G18
  23948918.061    -7901830.97549  -5886210.43245  23948917.879    23948923.223
  24424253.876    -6074663.41349  -4715438.08545  24424253.481    24424257.154
  20210797.769   -24906258.80849 -19385051.25948  20210797.226    20210799.074
  21887219.804   -20391844.62349 -15876093.71547  21887218.994    21887223.405
  23997991.926    -3654517.92649  -2823080.49945  23997991.296    23997995.781
  22655214.145   -15575612.70549 -12096590.66346  22655213.782    22655218.092
  22540749.522   -10516713.44049  -8174609.61446  22540748.954    22540752.732
  24101191.873    -2510024.29649  -1943451.90745  24101191.662    24101195.765
  22680031.063   -14244565.51749 -10483103.49546  22680030.512    22680033.036
 03  3 21  2 45 30.0000000  0  9G25G11G14G15G23G 3G31G 9G18
  23930169.295    -8000356.07349  -5962983.16245  23930169.129    23930174.426
  24405338.922    -6174062.06149  -4792891.51145  24405338.536    24405342.227
  20211941.414   -24900248.84749 -19380368.16248  20211940.865    20211942.705
  21902854.844   -20309682.06849 -15812070.95947  21902854.059    21902858.439
  24009707.648    -3592951.46949  -2775106.65645  24009707.045    24009711.529
  22668065.807   -15508077.07049 -12043965.53846  22668065.415    22668069.765
  22546265.157   -10487728.22949  -8152023.75746  22546264.626    22546268.388
  24113044.303    -2447738.92149  -1894917.79345  24113044.167    24113048.116
  22692125.324   -14181009.76149 -10433579.54046  22692124.799    22692127.307
 03  3 21  2 46  0.0000000  0  9G25G11G14G15G23G 3G31G 9G18
  23911425.539    -8098854.87349  -6039735.39145  23911425.415    23911430.672
  24386440.061    -6273375.82449  -4870278.80545  24386439.640    24386443.323
  20213180.115   -24893739.42849 -19375295.88248  20213179.577    20213181.406
  21918556.434   -20227169.75949 -15747775.68047  21918555.640    21918560.045
  24021429.301    -3531353.93149  -2727108.60445  24021428.681    24021433.222
  22680977.443   -15440226.22549 -11991094.79146  22680977.047    22680981.424
  22551878.147   -10458231.48749  -8129039.29946  22551877.670    22551881.444
  24124993.203    -2384946.69549  -1845988.73345  24124993.055    24124997.049
  22704238.355   -14117355.47949 -10383978.81346  22704237.843    22704240.337
 03  3 21  2 46 30.0000000  0  9G25G11G14G15G23G 3G31G 9G18
  23892686.803    -8197327.18549  -6116466.98345  23892686.668    23892691.875
  24367557.208    -6372605.42849  -4947600.52045  24367556.771    24367560.464
  20214513.139   -24886734.34549 -19369837.36748  20214512.594    20214514.427
  21934323.834   -20144311.64149 -15683210.94747  21934323.034    21934327.437
  24033156.419    -3469727.69449  -2679088.18545  24033155.792    24033160.304
  22693947.991   -15372065.62249 -11937982.66046  22693947.567    22693951.956
  22557587.798   -10428227.82049  -8105659.83746  22557587.197    22557590.901
  24137037.708    -2321652.28649  -1796668.37345  24137037.477    24137041.510
  22716369.481   -14053605.82049 -10334303.76846  22716368.975    22716371.526
 03  3 21  2 47  0.0000000  0  9G25G11G14G15G23G 3G31G 9G18
  23873954.182    -8295767.75249  -6193173.85045  23873953.936    23873959.228
  24348691.323    -6471745.93649  -5024852.80045  24348690.872    24348694.569
  20215940.744   -24879232.00749 -19363991.38748  20215940.206    20215942.049
  21950157.338   -20061106.24449 -15618375.61747  21950156.533    21950160.924
  24044889.528    -3408069.73149  -2631043.04245  24044888.920    24044893.432
  22706977.482   -15303595.27649 -11884629.17546  22706977.097    22706981.438
  22563393.911   -10397716.19849  -8081884.57046  22563393.368    22563397.100
  24149177.905    -2257855.20549  -1746956.29245  24149177.532    24149181.568
  22728519.303   -13989758.04349 -10284552.26846  22728518.824    22728521.351
 03  3 21  2 47 30.0000000  0  9G25G11G14G15G23G 3G31G 9G18
  23855227.933    -8394174.55749  -6269854.38745  23855227.740    23855232.971
  24329842.635    -6570796.35749  -5102034.89045  24329842.211    24329845.777
  20217462.622   -24871234.37049 -19357759.44748  20217462.072    20217463.940
  21966056.498   -19977555.64949 -15553271.28347  21966055.666    21966060.055
  24056628.561    -3346380.73549  -2582973.71445  24056627.983    24056632.481
  22720065.250   -15234818.86749 -11831037.20046  22720064.866    22720069.163
  22569296.335   -10366699.19849  -8057715.49146  22569295.732    22569299.456
  24161413.172    -2193558.21749  -1696854.68745  24161412.801    24161416.839
  22740687.666   -13925813.00249 -10234724.96246  22740687.160    22740689.712
 03  3 21  2 48  0.0000000  0  9G25G11G14G15G23G 3G31G 9G18
  23836508.030    -8492548.01049  -6346508.95445  23836507.849    23836512.981
  24311010.873    -6669757.52849  -5179147.42245  24311010.389    24311014.115
  20219077.942   -24862745.69149 -19351144.89048  20219077.414    20219079.275
  21982020.568   -19893663.99449 -15487901.20147  21982019.745    21982024.151
  24068372.946    -3284663.51449  -2534882.39445  24068372.433    24068376.885
  22733210.114   -15165742.25849 -11777211.31046  22733209.746    22733214.006
  22575293.919   -10335181.66649  -8033156.39846  22575293.330    22575297.055
  24173742.632    -2128766.28149  -1646367.41545  24173742.377    24173746.384
  22752873.893   -13861773.74249 -10184824.25946  22752873.403    22752875.931
 03  3 21  2 48 30.0000000  0  9G25G11G14G15G23G 3G31G 9G18
  23817795.559    -8590882.42549  -6423133.08945  23817795.334    23817800.529
  24292196.992    -6768624.60749  -5256186.62345  24292196.593    24292200.284
  20220787.033   -24853764.39749 -19344146.46948  20220786.491    20220788.373
  21998049.813   -19809429.66849 -15422264.10547  21998048.998    21998053.404
  24080123.374    -3222914.77149  -2486766.50545  24080122.817    24080127.344
  22746412.143   -15096365.21649 -11723151.32346  22746411.787    22746416.050
  22581386.902   -10303162.53549  -8008206.44946  22581386.341    22581390.108
  24186166.529    -2063478.31149  -1595493.60945  24186166.236    24186170.226
  22765078.584   -13797637.51449 -10134847.98546  22765078.074    22765080.631
 03  3 21  2 49  0.0000000  0  9G25G11G14G15G23G 3G31G 9G18
  23799091.450    -8689172.86149  -6499722.95145  23799091.202    23799096.391
  24273401.882    -6867393.02349  -5333148.95345  24273401.534    24273405.159
  20222590.022   -24844289.41549 -19336763.36548  20222589.483    20222591.409
  22014144.415   -19724851.95049 -15356359.43647  22014143.625    22014148.054
  24091880.323    -3161131.99449  -2438624.10145  24091879.809    24091884.173
  22759671.249   -15026688.41649 -11668857.74346  22759670.898    22759675.152
  22587575.501   -10270641.38649  -7982865.31546  22587574.937    22587578.711
  24198684.832    -1997694.16849  -1544233.18845  24198684.550    24198688.474
  22777302.151   -13733402.21449 -10084794.51846  22777301.642    22777304.215
 03  3 21  2 49 30.0000000  0  9G25G11G14G15G23G 3G31G 9G18
  23780395.655    -8787419.70749  -6576278.84445  23780395.425    23780400.603
  24254625.370    -6966063.95249  -5410035.30945  24254624.913    24254628.746
  20224486.150   -24834325.20649 -19328999.04548  20224485.620    20224487.540
  22030303.532   -19639935.41149 -15290190.75047  22030302.759    22030307.212
  24103643.175    -3099318.01549  -2390457.39545  24103642.585    24103647.005
  22772986.271   -14956717.83849 -11614335.25246  22772985.890    22772990.197
  22593858.628   -10237623.22349  -7957136.90446  22593858.078    22593861.884
  24211296.483    -1931419.09649  -1492590.20745  24211296.149    24211300.239
  22789543.943   -13669071.23749 -10034666.49546  22789543.417    22789546.027
 03  3 21  2 50  0.0000000  0  9G25G11G14G15G23G 3G31G 9G18
  23761708.903    -8885619.01349  -6652797.70545  23761708.662    23761713.883
  24235867.992    -7064634.10049  -5486843.13645  24235867.538    24235871.449
  20226475.376   -24823871.70549 -19320853.45348  20226474.863    20226476.746
  22046527.132   -19554680.05649 -15223758.05747  22046526.367    22046530.830
  24115412.215    -3037471.38749  -2342265.23545  24115411.567    24115415.970
  22786356.836   -14886455.27649 -11559585.25646  22786356.424    22786360.775
  22600236.275   -10204108.87549  -7931021.85446  22600235.672    22600239.449
  24224001.369    -1864654.15049  -1440565.51945  24224001.073    24224005.177
  22801804.140   -13604643.70849  -9984463.24246  22801803.600    22801806.236
 03  3 21  2 50 30.0000000  0  9G25G11G14G15G23G 3G31G 9G18
  23743031.225    -8983770.50549  -6729279.30645  23743031.002    23743036.176
  24217129.708    -7163104.03349  -5563572.86845  24217129.331    24217133.163
  20228556.952   -24812932.72449 -19312329.57048  20228556.432    20228558.345
  22062814.526   -19469089.72049 -15157064.34047  22062813.752    22062818.208
  24127187.044    -2975594.23449  -2294049.29745  24127186.426    24127190.822
  22799781.958   -14815905.89749 -11504611.74746  22799781.550    22799785.928
  22606707.490   -10170102.55149  -7904523.44546  22606706.882    22606710.649
  24236798.623    -1797403.90349  -1388162.68145  24236798.404    24236802.411
  22814082.322   -13540121.65749  -9934186.33046  22814081.750    22814084.414
 03  3 21  2 51  0.0000000  0  9G25G11G14G15G23G 3G31G 9G18
  23724363.646    -9081869.00649  -6805719.61745  23724363.425    23724368.636
  24198411.454    -7261468.88149  -5640220.72445  24198411.049    24198414.902
  20230731.209   -24801506.88849 -19303426.31248  20230730.697    20230732.596
  22079165.864   -19383163.11049 -15090108.59347  22079165.072    22079169.564
  24138968.242    -2913683.68749  -2245807.34445  24138967.651    24138972.087
  22813261.616   -14745069.86049 -11449414.85846  22813261.218    22813265.637
  22613272.454   -10135603.51449  -7877641.09446  22613271.817    22613275.564
  24249688.328    -1729667.71749  -1335381.18045  24249688.110    24249692.093
  22826378.887   -13475502.83849  -9883834.01746  22826378.337    22826380.986
 03  3 21  2 51 30.0000000  0  9G25G11G14G15G23G 3G31G 9G18
  23705706.616    -9179911.79249  -6882116.52145  23705706.451    23705711.630
  24179713.559    -7359726.78049  -5716785.23645  24179713.193    24179716.939
  20232997.789   -24789595.89749 -19294145.01448  20232997.268    20232999.178
  22095580.880   -19296901.73349 -15022891.98247  22095580.078    22095584.580
  24150755.776    -2851739.72149  -2197539.33745  24150755.210    24150759.679
  22826795.197   -14673950.44549 -11393997.16646  22826794.809    22826799.274
  22619930.757   -10100613.99749  -7850376.56546  22619930.128    22619933.855
  24262670.117    -1661447.99449  -1282222.91345  24262669.823    24262673.766
  22838693.770   -13410787.66249  -9833406.63446  22838693.232    22838695.847
 03  3 21  2 52  0.0000000  0  9G25G11G14G15G23G 3G31G 9G18
  23687061.025    -9277894.70149  -6958466.75445  23687060.809    23687066.046
  24161036.629    -7457874.34249  -5793263.78845  24161036.293    24161039.919
  20235356.723   -24777199.61249 -19284485.57048  20235356.214    20235358.128
  22112059.605   -19210305.50249 -14955414.44447  22112058.830    22112063.321
  24162549.973    -2789760.80649  -2149244.10745  24162549.335    24162553.933
  22840382.459   -14602549.22449 -11338359.92246  22840382.042    22840386.507
  22626682.250   -10065134.72149  -7822730.40346  22626681.634    22626685.339
  24275743.721    -1592745.31049  -1228688.30645  24275743.502    24275747.450
  22851027.300   -13345974.65049  -9782903.00946  22851026.753    22851029.361
 03  3 21  2 52 30.0000000  0  9G25G11G14G15G23G 3G31G 9G18
  23668426.364    -9375820.28349  -7034772.30745  23668426.120    23668431.346
  24142380.141    -7555914.54749  -5869658.67545  24142379.728    24142383.435
  20237806.768   -24764324.38749 -19274452.91848  20237806.248    20237808.171
  22128600.816   -19123380.99949 -14887681.11746  22128600.039    22128604.519
  24174349.906    -2727751.60249  -2100925.27045  24174349.317    24174353.915
  22854021.867   -14530873.82749 -11282509.02246  22854021.470    22854025.947
  22633525.676   -10029172.59949  -7794708.00146  22633525.067    22633528.773
  24288907.869    -1523567.11749  -1174783.18545  24288907.649    24288911.520
  22863378.442   -13281068.95549  -9732327.15746  22863377.903    22863380.525
 03  3 21  2 53  0.0000000  0  9G25G11G14G15G23G 3G31G 9G18
  23649803.935    -9473681.26049  -7111027.52045  23649803.701    23649808.946
  24123745.308    -7653840.95249  -5945964.89645  24123744.889    24123748.573
  20240348.500   -24750967.41749 -19264044.88048  20240347.979    20240349.905
  22145205.109   -19036125.23149 -14819689.64546  22145204.334    22145208.803
  24186156.494    -2665707.68149  -2052579.36945  24186155.863    24186160.479
  22867713.702   -14458922.92549 -11226443.43146  22867713.331    22867717.805
  22640461.357    -9992725.40349  -7766307.60546  22640460.745    22640464.474
  24302162.831    -1453911.54549  -1120506.06845  24302162.583    24302166.511
  22875747.934   -13216066.60149  -9681675.99046  22875747.399    22875750.069
 03  3 21  2 53 30.0000000  0  9G25G11G14G15G23G 3G31G 9G18
  23631194.496    -9571474.18149  -7187229.72645  23631194.244    23631199.463
  24105132.701    -7751650.62249  -6022180.14645  24105132.275    24105135.953
  20242981.815   -24737129.35249 -19253261.96948  20242981.296    20242983.215
  22161872.276   -18948539.00449 -14751440.67746  22161871.486    22161875.976
  24197969.853    -2603628.05449  -2004205.64345  24197969.125    24197973.888
  22881457.559   -14386698.88849 -11170165.02146  22881457.147    22881461.675
  22647489.092    -9955794.47149  -7737530.28146  22647488.480    22647492.241
  24315508.361    -1383779.86149  -1065857.94345  24315508.064    24315511.977
  22888136.021   -13150966.87349  -9630948.95446  22888135.513    22888138.130
 03  3 21  2 54  0.0000000  0  9G25G11G14G15G23G 3G31G 9G18
  23612598.015    -9669199.02549  -7263378.87246  23612597.758    23612602.988
  24086542.221    -7849343.84149  -6098304.65645  24086541.854    24086545.501
  20245705.938   -24722813.92049 -19242107.08548  20245705.400    20245707.343
  22178601.585   -18860626.02249 -14682937.11246  22178600.794    22178605.296
  24209789.591    -2541514.61949  -1955805.60545  24209788.922    24209793.633
  22895252.421   -14314206.69649 -11113677.66446  22895252.007    22895256.493
  22654608.079    -9918384.09849  -7708379.36746  22654607.462    22654611.242
  24328943.671    -1313176.41749  -1010842.22545  24328943.393    24328947.354
  22900542.215   -13085772.01549  -9580147.78046  22900541.705    22900544.304
 03  3 21  2 54 30.0000000  0  9G25G11G14G15G23G 3G31G 9G18
  23594015.119    -9766852.34549  -7339472.30346  23594014.903    23594020.056
  24067974.422    -7946917.96649  -6174336.36645  24067974.119    24067977.745
  20248520.674   -24708022.24649 -19230581.10448  20248520.141    20248522.107
  22195392.891   -18772387.26749 -14614179.69746  22195392.100    22195396.624
  24221615.932    -2479366.76849  -1907378.72645  24221615.255    24221620.087
  22909097.768   -14241449.00049 -11056983.43346  22909097.392    22909101.821
  22661817.927    -9880496.10049  -7678856.27646  22661817.300    22661821.068
  24342468.372    -1242103.32049   -955460.54945  24342468.130    24342472.174
  22912966.541   -13020481.82949  -9529272.32346  22912965.994    22912968.654
 03  3 21  2 55  0.0000000  0  9G25G11G14G15G23G 3G31G 9G18
  23575445.913    -9864433.89949  -7415509.79646  23575445.689    23575450.818
  24049429.210    -8044373.35349  -6250275.54445  24049428.877    24049432.564
  20251425.369   -24692757.98949 -19218686.87448  20251424.840    20251426.820
  22212245.399   -18683826.71049 -14545171.52546  22212244.593    22212249.183
  24233448.420    -2417186.65349  -1858926.70445  24233447.733    24233452.598
  22922992.683   -14168430.93249 -11000086.28246  22922992.283    22922996.801
  22669117.831    -9842134.88549  -7648964.43646  22669117.237    22669121.029
  24356081.612    -1170565.08249   -899716.41045  24356081.446    24356085.373
  22925408.545   -12955098.81749  -9478324.52246  22925407.990    22925410.660
 03  3 21  2 55 30.0000000  0  8G25G11G14G15G23G 3G31G18
  23556891.902    -9961935.67749  -7491485.14446  23556891.633    23556896.750
  24030907.998    -8141702.87749  -6326116.66545  24030907.649    24030911.259
  20254420.713   -24677017.21249 -19206421.32848  20254420.167    20254422.156
  22229159.937   -18594940.46249 -14475909.56646  22229159.123    22229163.765
  24245288.085    -2354968.73449  -1810445.22745  24245287.287    24245292.318
  22936937.528   -14095150.25249 -10942984.49546  22936937.139    22936941.675
  22676508.425    -9803297.16949  -7618701.29546  22676507.811    22676511.648
  22937869.214   -12889617.67649  -9427300.27046  22937868.644    22937871.295
 03  3 21  2 56  0.0000000  0  8G25G11G14G15G23G 3G31G18
  23538352.826   -10059359.08749  -7567399.43246  23538352.538    23538357.584
  24012410.327    -8238908.41849  -6401861.16445  24012409.915    24012413.591
  20257505.636   -24660805.78949 -19193789.05048  20257505.091    20257507.110
  22246135.308   -18505734.35749 -14406398.34346  22246134.502    22246139.176
  24257134.232    -2292716.98549  -1761937.38345  24257133.496    24257138.452
  22950930.931   -14021614.31349 -10885683.81046  22950930.561    22950935.147
  22683988.430    -9763989.50149  -7588071.95846  22683987.832    22683991.633
  22950347.690   -12824042.84049  -9376203.01046  22950347.125    22950349.774
 03  3 21  2 56 30.0000000  0  8G25G11G14G15G23G 3G31G18
  23519829.838   -10156697.93849  -7643247.83146  23519829.551    23519834.528
  23993937.330    -8335984.20549  -6477504.56845  23993936.973    23993940.532
  20260680.514   -24644121.65349 -19180788.42648  20260679.983    20260681.981
  22263171.981   -18416206.20849 -14336636.18546  22263171.148    22263175.868
  24268987.572    -2230427.34449  -1713400.01745  24268986.930    24268991.797
  22964973.083   -13947822.45049 -10828183.71546  22964972.700    22964977.302
  22691558.102    -9724210.39549  -7557075.27346  22691557.542    22691561.364
  22962844.573   -12758371.15149  -9325030.27046  22962844.054    22962846.683
 03  3 21  2 57  0.0000000  0  8G25G11G14G15G23G 3G31G18
  23501322.983   -10253952.02749  -7719030.18146  23501322.733    23501327.648
  23975488.868    -8432931.15149  -6553047.57345  23975488.495    23975492.082
  20263944.531   -24626969.04949 -19167422.75748  20263943.994    20263945.993
  22280269.097   -18326360.45849 -14266626.55146  22280268.271    22280272.974
  24280847.675    -2168102.36749  -1664835.11745  24280847.110    24280851.776
  22979062.908   -13873780.23949 -10770488.54046  22979062.506    22979067.140
  22699216.561    -9683964.85949  -7525715.13546  22699216.020    22699219.844
  22975359.452   -12692604.91549  -9273783.86246  22975358.930    22975361.590
 03  3 21  2 57 30.0000000  0  8G25G11G14G15G23G 3G31G18
  23482832.816   -10351118.35849  -7794744.14346  23482832.563    23482837.444
  23957065.518    -8529746.22849  -6628487.81845  23957065.189    23957068.701
  20267297.494   -24609348.97049 -19153692.82048  20267296.962    20267298.966
  22297426.445   -18236197.96649 -14196370.10646  22297425.623    22297430.373
  24292714.606    -2105741.32849  -1616242.11445  24292714.004    24292718.709
  22993199.927   -13799490.02149 -10712600.09746  22993199.539    22993204.193
  22706963.484    -9643254.50349  -7493992.82146  22706962.937    22706966.781
  22987892.411   -12626743.91649  -9222463.59746  22987891.883    22987894.531
 03  3 21  2 58  0.0000000  0  8G25G11G14G15G23G 3G31G18
  23464360.037   -10448193.17549  -7870386.81246  23464359.762    23464364.574
  23938667.800    -8626426.62749  -6703823.11945  23938667.425    23938670.987
  20270739.333   -24591261.98949 -19139599.06448  20270738.800    20270740.791
  22314643.973   -18145719.30249 -14125867.29146  22314643.154    22314647.901
  24304588.635    -2043342.94849  -1567620.01345  24304588.064    24304592.774
  23007383.678   -13724953.89049 -10654520.03746  23007383.260    23007387.985
  22714798.641    -9602080.63249  -7461909.31846  22714798.082    22714801.927
  23000443.562   -12560787.25049  -9171068.80846  23000442.985    23000445.653
 03  3 21  2 58 30.0000000  0  8G25G11G14G15G23G 3G31G18
  23445905.167   -10545173.95449  -7945956.19446  23445904.888    23445909.650
  23920296.012    -8722970.56949  -6779052.10345  23920295.613    23920299.278
  20274269.628   -24572710.12949 -19125143.06148  20274269.096    20274271.073
  22331921.336   -18054926.27549 -14055119.52046  22331920.533    22331925.296
  24316469.737    -1980907.49849  -1518969.03145  24316469.118    24316473.828
  23021613.611   -13650175.10649 -10596250.89846  23021613.229    23021617.972
  22722721.476    -9560445.89349  -7429466.70846  22722720.918    22722724.781
  23013012.772   -12494735.57449  -9119599.96746  23013012.233    23013014.879
 03  3 21  2 59  0.0000000  0  8G25G11G14G15G23G 3G31G18
  23427468.627   -10642058.17249  -8021450.33646  23427468.371    23427473.151
  23901950.741    -8819375.38949  -6854172.65945  23901950.374    23901954.035
  20277888.153   -24553694.74649 -19110325.87548  20277887.611    20277889.587
  22349258.219   -17963820.52849 -13984128.08746  22349257.401    22349262.131
  24328358.036    -1918434.45849  -1470288.75845  24328357.449    24328362.053
  23035889.184   -13575156.63649 -10537794.98646  23035888.806    23035893.550
  22730731.670    -9518352.25849  -7396666.51146  22730731.072    22730734.976
  23025600.153   -12428588.59449  -9068056.86946  23025599.609    23025602.260
 03  3 21  2 59 30.0000000  0  8G25G11G14G15G23G 3G31G18
  23409050.934   -10738843.40649  -8096867.33946  23409050.672    23409055.505
  23883632.233    -8915639.58649  -6929183.64145  23883631.796    23883635.493
  20281594.460   -24534217.94349 -19095149.13448  20281593.925    20281595.901
  22366654.273   -17872403.91749 -13912894.40546  22366653.458    22366658.199
  24340253.415    -1855924.00749  -1421579.32745  24340252.844    24340257.365
  23050209.756   -13499901.76649 -10479154.86946  23050209.382    23050214.125
  22738828.567    -9475802.63749  -7363510.99746  22738828.027    22738831.902
  23038205.527   -12362346.99249  -9016440.03946  23038204.993    23038207.632
 03  3 21  3  0  0.0000000  0  8G25G11G14G15G23G 3G31G18
  23390652.447   -10835527.64449  -8172205.64646  23390652.229    23390656.995
  23865340.699    -9011761.84849  -7004084.04445  23865340.298    23865343.980
  20285388.189   -24514281.72649 -19079614.41648  20285387.648    20285389.653
  22384109.057   -17780678.63649 -13841420.21746  22384108.254    22384112.988
  24352155.828    -1793376.58449  -1372841.09445  24352155.214    24352159.766
  23064574.620   -13424414.05149 -10420333.33346  23064574.227    23064578.957
  22747011.743    -9432799.69849  -7330002.25946  22747011.192    22747015.130
  23050828.863   -12296011.21249  -8964749.83846  23050828.333    23050830.928
 03  3 21  3  0 30.0000000  0  8G25G11G14G15G23G 3G31G18
  23372274.210   -10932105.47949  -8247461.04046  23372273.992    23372278.826
  23847077.069    -9107737.53049  -7078870.21145  23847076.693    23847080.348
  20289269.441   -24493885.42649 -19063721.18748  20289268.921    20289270.890
  22401622.724   -17688644.01749 -13769704.98246  22401621.900    22401626.653
  24364065.810    -1730789.40049  -1324071.88445  24364065.138    24364069.749
  23078983.721   -13348694.12349 -10361330.83146  23078983.332    23078988.032
  22755281.191    -9389343.48049  -7296140.30846  22755280.638    22755284.614
  23063470.456   -12229579.22649  -8912984.67146  23063469.932    23063472.452
 03  3 21  3  1  0.0000000  0  8G25G11G14G15G23G 3G31G18
  23353916.449   -11028575.94749  -8322632.77346  23353916.230    23353921.061
  23828841.326    -9203566.42349  -7153541.99545  23828840.996    23828844.567
  20293237.628   -24473032.58649 -19047472.21148  20293237.094    20293239.080
  22419194.537   -17596303.46249 -13697751.34546  22419193.725    22419198.509
  24375983.040    -1668164.09849  -1275272.96045  24375982.359    24375986.957
  23093436.038   -13272747.10549 -10302151.37846  23093435.637    23093440.286
  22763636.124    -9345438.27949  -7261928.51746  22763635.563    22763639.540
  23076129.980   -12163052.96949  -8861146.03346  23076129.408    23076131.979
 03  3 21  3  1 30.0000000  0  8G25G11G14G15G23G 3G31G18
  23335579.713   -11124935.95249  -8397718.42846  23335579.505    23335584.340
  23810634.059    -9299245.82249  -7228097.29745  23810633.722    23810637.292
  20297292.392   -24451724.47849 -19030868.48648  20297291.867    20297293.845
  22436824.356   -17503658.27849 -13625560.33446  22436823.570    22436828.351
  24387907.638    -1605500.12549  -1226443.89645  24387906.993    24387911.661
  23107931.058   -13196575.52749 -10242796.95746  23107930.652    23107935.239
  22772076.122    -9301086.06049  -7227368.40246  22772075.560    22772079.499
  23088807.474   -12096432.08049  -8809233.65746  23088806.941    23088809.509
 03  3 21  3  2  0.0000000  0  8G25G11G14G15G23G 3G31G18
  23317264.733   -11221181.58649  -8472714.96246  23317264.484    23317269.377
  23792455.983    -9394772.13149  -7302533.31045  23792455.676    23792459.147
  20301433.828   -24429961.16149 -19013910.05448  20301433.300    20301435.276
  22454512.160   -17410708.50449 -13553131.99946  22454511.345    22454516.141
  24399839.944    -1542795.51349  -1177583.16445  24399839.303    24399843.943
  23122468.566   -13120180.51349 -10183268.42746  23122468.168    23122472.733
  22780600.989    -9256287.59949  -7192460.55546  22780600.448    22780604.400
  23101503.300   -12029715.07549  -8757246.38646  23101502.703    23101505.378
 03  3 21  3  2 30.0000000  0  8G25G11G14G15G23G 3G31G18
  23298971.567   -11317312.82349  -8547622.33746  23298971.288    23298976.142
  23774306.971    -9490145.59349  -7376850.20145  23774306.620    23774310.112
  20305661.085   -24407746.69749 -18996600.07248  20305660.554    20305662.508
  22472257.131   -17317458.27849 -13480469.54446  22472256.311    22472261.080
  24411779.563    -1480052.52949  -1128692.52945  24411778.977    24411783.496
  23137047.530   -13043567.74549 -10123570.21446  23137047.145    23137051.722
  22789209.917    -9211047.66749  -7157208.71946  22789209.359    22789213.333
  23114216.890   -11962904.61649  -8705186.29646  23114216.331    23114218.979
 03  3 21  3  3  0.0000000  0  8G25G11G14G15G23G 3G31G18
  23280701.110   -11413324.33449  -8622436.43246  23280700.816    23280705.723
  23756187.946    -9585361.60649  -7451044.42645  23756187.564    23756191.019
  20309974.331   -24385080.57949 -18978938.15348  20309973.798    20309975.744
  22490059.381   -17223907.02349 -13407572.51946  22490058.567    22490063.343
  24423726.971    -1417268.59549  -1079769.99345  24423726.287    24423730.956
  23151667.784   -12966737.95049 -10063702.87846  23151667.414    23151671.976
  22797902.778    -9165366.50149  -7121613.04846  22797902.210    22797906.195
  23126948.713   -11895998.51949  -8653051.67946  23126948.187    23126950.785
 03  3 21  3  3 30.0000000  0  8G25G11G14G15G23G 3G31G18
  23262453.509   -11509215.84049  -8697157.01346  23262453.209    23262458.154
  23738098.758    -9680420.74149  -7525116.38345  23738098.387    23738101.855
  20314372.694   -24361966.98149 -18960927.54748  20314372.163    20314374.088
  22507918.175   -17130058.72549 -13334444.03146  22507917.373    22507922.123
  24435681.653    -1354446.09549  -1030817.39545  24435681.010    24435685.562
  23166328.294   -12889696.71249 -10003670.77246  23166327.885    23166332.471
  22806678.664    -9119249.02049  -7085677.39146  22806678.135    22806682.091
  23139698.278   -11828999.17249  -8600844.39246  23139697.732    23139700.336
 03  3 21  3  4  0.0000000  0  8G25G11G14G15G23G 3G31G18
  23244229.780   -11604981.81349  -8771779.78146  23244229.515    23244234.498
  23720040.380    -9775318.00349  -7599062.22745  23720040.028    23720043.409
  20318856.371   -24338405.12349 -18942567.65448  20318855.839    20318857.734
  22525833.605   -17035912.69149 -13261083.55846  22525832.820    22525837.551
  24447644.276    -1291582.02449   -981832.41145  24447643.628    24447648.254
  23181028.983   -12812444.39249  -9943474.20946  23181028.548    23181033.139
  22815537.692    -9072695.00549  -7049401.59946  22815537.092    22815541.079
  23152465.985   -11761904.31249  -8548562.69346  23152465.422    23152468.064
 03  3 21  3  4 30.0000000  0  8G25G11G14G15G23G 3G31G18
  23226030.261   -11700620.41249  -8846303.29246  23226030.034    23226034.966
  23702013.110    -9870052.07949  -7672880.91146  23702012.698    23702016.094
  20323424.926   -24314397.32249 -18923860.26748  20323424.386    20323426.289
  22543805.354   -16941470.91549 -13187492.61846  22543804.559    22543809.313
  24459614.729    -1228676.82249   -932815.38145  24459614.021    24459618.594
  23195769.151   -12734984.63649  -9883115.99746  23195768.733    23195773.277
  22824479.192    -9025707.55649  -7012788.06646  22824478.573    22824482.509
  23165251.781   -11694714.45849  -8496206.96746  23165251.260    23165253.903
 03  3 21  3  5  0.0000000  0  8G25G11G14G15G23G 3G31G18
  23207855.462   -11796129.39149  -8920725.79946  23207855.226    23207860.149
  23684017.069    -9964621.58349  -7746571.36446  23684016.647    23684019.994
  20328077.850   -24289945.89749 -18904807.20048  20328077.295    20328079.232
  22561832.940   -16846735.68049 -13113672.99246  22561832.149    22561836.903
  24471592.934    -1165730.76549   -883766.52145  24471592.209    24471596.832
  23210548.014   -12657321.23449  -9822599.10746  23210547.592    23210552.196
  22833502.562    -8978289.81749  -6975839.23946  22833501.955    22833505.855
  23178055.469   -11627430.55149  -8443777.95446  23178054.967    23178057.639
 03  3 21  3  5 30.0000000  0  8G25G11G14G15G23G 3G31G18
  23189705.971   -11891505.25849  -8995044.59646  23189705.761    23189710.642
  23666053.028   -10059022.96649  -7820130.80145  23666052.593    23666055.918
  20332815.089   -24265051.57449 -18885409.01648  20332814.545    20332816.480
  22579916.167   -16751707.98949 -13039625.49546  22579915.330    22579920.111
  24483579.223    -1102742.56749   -834684.80845  24483578.492    24483583.073
  23225365.315   -12579456.05849  -9761924.98046  23225364.885    23225369.503
  22842607.498    -8930443.21949  -6938556.24546  22842606.902    22842610.784
  23190877.363   -11560051.42249  -8391274.74046  23190876.800    23190879.491
 03  3 21  3  6  0.0000000  0  8G25G11G14G15G23G 3G31G18
  23171582.283   -11986745.76149  -9069257.90546  23171582.058    23171586.870
  23648121.326   -10153254.53249  -7893557.92545  23648120.897    23648124.122
  20337636.173   -24239716.61849 -18865667.48148  20337635.638    20337637.552
  22598054.597   -16656389.97549 -12965351.77946  22598053.763    22598058.565
  24495573.443    -1039712.64049   -785570.58045  24495572.778    24495577.284
  23240220.293   -12501392.69149  -9701096.42146  23240219.871    23240224.478
  22851793.471    -8882170.83649  -6900941.45846  22851792.863    22851796.799
  23203717.174   -11492577.97349  -8338698.03346  23203716.591    23203719.280
 03  3 21  3  6 30.0000000  0  8G25G11G14G15G23G 3G31G18
  23153484.918   -12081848.04649  -9143363.51546  23153484.646    23153489.404
  23630222.301   -10247314.17249  -7966851.08045  23630221.908    23630225.007
  20342540.785   -24213942.79849 -18845583.97748  20342540.252    20342542.143
  22616248.004   -16560783.19149 -12890853.03446  22616247.198    22616252.022
  24507575.648     -976640.45649   -736423.44145  24507574.919    24507579.537
  23255112.476   -12423133.80549  -9640115.52846  23255112.091    23255116.695
  22861060.031    -8833474.93249  -6862996.66946  22861059.398    22861063.419
  23216575.017   -11425009.61949  -8286047.37546  23216574.450    23216577.153
 03  3 21  3  7  0.0000000  0  8G25G11G14G15G23G 3G31G18
  23135414.408   -12176809.14849  -9217359.10946  23135414.156    23135418.845
  23612356.483   -10341199.42749  -8040008.35345  23612356.136    23612359.167
  20347528.573   -24187731.71049 -18825159.74148  20347528.029    20347529.927
  22634496.008   -16464889.41449 -12816130.64946  22634495.215    22634500.031
  24519585.902     -913525.69749   -687243.11245  24519585.144    24519589.906
  23270041.258   -12344682.67849  -9578984.81546  23270040.836    23270045.499
  22870406.728    -8784357.97449  -6824723.77146  22870406.097    22870410.164
  23229450.864   -11357346.57749  -8233322.93446  23229450.287    23229452.968
 03  3 21  3  7 30.0000000  0  8G25G11G14G15G23G 3G31G18
  23117371.253   -12271626.54649  -9291242.72646  23117370.988    23117375.598
  23594524.271   -10434908.00149  -8113027.95746  23594523.901    23594526.978
  20352599.318   -24161084.77449 -18804395.88448  20352598.789    20352600.652
  22652798.355   -16368710.14849 -12741185.81246  22652797.535    22652802.403
  24531604.421     -850367.87949   -638029.23145  24531603.734    24531608.367
  23285006.103   -12266042.09049  -9517706.48246  23285005.706    23285010.355
  22879833.105    -8734822.40049  -6786124.69246  22879832.451    22879836.513
  23242344.694   -11289588.98349  -8180524.82046  23242344.160    23242346.788
 03  3 21  3  8  0.0000000  0  8G25G11G14G15G23G 3G31G18
  23099355.960   -12366297.36249  -9365012.11346  23099355.719    23099360.278
  23576726.095   -10528437.60849  -8185908.09146  23576725.733    23576728.813
  20357752.654   -24134003.78749 -18783293.80048  20357752.112    20357753.969
  22671154.700   -16272247.00649 -12666019.74946  22671153.917    22671158.808
  24543631.258     -787166.51949   -588781.42945  24543630.568    24543635.272
  23300006.436   -12187214.97749  -9456282.78546  23300005.991    23300010.670
  22889338.704    -8684870.57849  -6747201.24846  22889338.060    22889342.102
  23255256.541   -11221736.62749  -8127652.85546  23255256.021    23255258.621
 03  3 21  3  8 30.0000000  0  8G25G11G14G15G23G 3G31G18
  23081369.405   -12460817.03449  -9438663.75246  23081369.171    23081373.662
  23558962.652   -10621784.69849  -8258646.02646  23558962.310    23558965.356
  20362988.444   -24106489.44349 -18761854.04148  20362987.917    20362989.784
  22689564.973   -16175500.57949 -12590632.96246  22689564.182    22689569.084
  24555666.619     -723920.27549   -539498.65945  24555666.026    24555670.555
  23315041.961   -12108202.97149  -9394715.02246  23315041.532    23315046.241
  22898923.258    -8634503.87749  -6707954.51846  22898922.596    22898926.665
  23268186.752   -11153788.02049  -8074705.89946  23268186.230    23268188.854
 03  3 21  3  9  0.0000000  0  8G25G11G14G15G23G 3G31G18
  23063411.312   -12555187.16049  -9512198.84046  23063411.103    23063415.563
  23541233.684   -10714950.95949  -8331243.03046  23541233.334    23541236.411
  20368305.583   -24078547.61949 -18740081.17948  20368305.046    20368306.958
  22708028.021   -16078476.58649 -12515029.89046  22708027.210    22708032.173
  24567709.816     -660632.85049   -490183.79445  24567709.129    24567713.763
  23330111.304   -12029013.10549  -9333008.68546  23330110.870    23330115.673
  22908585.529    -8583728.83249  -6668389.60046  22908584.857    22908588.931
  23281134.390   -11085747.75349  -8021687.51546  23281133.886    23281136.481
 03  3 21  3  9 30.0000000  0  8G25G11G14G15G23G 3G31G18
  23045483.169   -12649399.80749  -9585611.21946  23045482.915    23045487.416
  23523540.423   -10807929.27249  -8403693.61046  23523540.073    23523543.168
  20373704.746   -24050174.66549 -18717972.37348  20373704.208    20373706.123
  22726544.570   -15981171.51349 -12439207.79546  22726543.771    22726548.747
  24579761.974     -597298.42749   -440832.30645  24579761.365    24579765.906
  23345214.867   -11949643.15849  -9271162.01946  23345214.454    23345219.327
  22918325.954    -8532542.84649  -6628504.46546  22918325.314    22918329.300
  23294100.528   -11017610.18449  -7968593.30646  23294100.060    23294102.598
 03  3 21  3 10  0.0000000  0  8G25G11G14G15G23G 3G31G18
  23027584.740   -12743456.35849  -9658901.97546  23027584.505    23027588.942
  23505882.631   -10900721.36649  -8475999.06846  23505882.277    23505885.405
  20379184.827   -24021376.66049 -18695532.35348  20379184.294    20379186.191
  22745113.477   -15883591.43949 -12363171.40646  22745112.685    22745117.658
  24591822.266     -533921.12849   -391447.41445  24591821.637    24591826.216
  23360351.316   -11870100.43649  -9209180.71746  23360350.896    23360355.864
  22928143.237    -8480952.67749  -6588304.40246  22928142.637    22928146.615
  23307084.318   -10949379.80849  -7915426.78846  23307083.871    23307086.407
 03  3 21  3 10 30.0000000  0  8G25G11G14G15G23G 3G31G18
  23009717.104   -12837351.19749  -9732066.71946  23009716.855    23009721.276
  23488261.247   -10993321.98749  -8548155.32946  23488260.876    23488263.987
  20384746.017   -23992152.38849 -18672760.18248  20384745.474    20384747.375
  22763734.966   -15785734.83149 -12286919.53846  22763734.165    22763739.189
  24603891.352     -470497.58049   -342026.47645  24603890.731    24603895.367
  23375520.708   -11790384.75249  -9147064.64646  23375520.254    23375525.276
  22938037.517    -8428957.83549  -6547789.00746  22938036.947    22938040.933
  23320086.347   -10881053.69849  -7862185.67446  23320085.890    23320088.475
 03  3 21  3 11  0.0000000  0  8G25G11G14G15G23G 3G31G18
  22991880.579   -12931082.39549  -9805103.95646  22991880.332    22991884.780
  23470676.582   -11085729.57649  -8620161.18846  23470676.199    23470679.313
  20390387.769   -23962504.64549 -18649658.03348  20390387.239    20390389.132
  22782408.542   -15687604.58449 -12210454.44246  22782407.767    22782412.771
  24615969.112     -407028.48849   -292570.06945  24615968.519    24615973.202
  23390722.231   -11710500.14249  -9084816.93646  23390721.810    23390726.837
  22948008.216    -8376561.76749  -6506960.95046  22948007.694    22948011.656
  23333106.462   -10812632.65949  -7808870.58646  23333105.987    23333108.572
 03  3 21  3 11 30.0000000  0  8G25G11G14G15G23G 3G31G18
  22974075.445   -13024648.53549  -9878012.55846  22974075.209    22974079.629
  23453128.836   -11177943.44449  -8692016.07546  23453128.417    23453131.561
  20396109.498   -23932436.64249 -18626228.40248  20396108.968    20396110.849
  22801133.561   -15589204.01949 -12133778.71146  22801132.784    22801137.823
  24628055.333     -343514.85549   -243078.93345  24628054.703    24628059.518
  23405955.084   -11630450.98549  -9022441.00646  23405954.704    23405959.730
  22958054.403    -8323768.74749  -6465823.57046  22958053.890    22958057.887
  23346144.344   -10744118.14049  -7755482.65846  23346143.831    23346146.487
 03  3 21  3 12  0.0000000  0  8G25G11G14G15G23G 3G31G18
  22956302.686   -13118044.77449  -9950788.78646  22956302.492    22956306.858
  23435618.743   -11269959.24049  -8763716.63946  23435618.328    23435621.455
  20401911.279   -23901948.11049 -18602471.09248  20401910.741    20401912.619
  22819910.161   -15490532.60149 -12056891.93346  22819909.375    22819914.435
  24640150.522     -279954.15449   -193551.13945  24640149.899    24640154.718
  23421219.085   -11550238.33149  -8959937.68746  23421218.748    23421223.806
  22968176.059    -8270579.19649  -6424377.21646  22968175.523    22968179.589
  23359200.396   -10675507.99949  -7702020.21746  23359199.922    23359202.602
 03  3 21  3 12 30.0000000  0  8G25G11G14G15G23G 3G31G18
  22938562.666   -13211268.86649 -10023430.88146  22938562.494    22938566.830
  23418146.689   -11361775.21049  -8835261.48446  23418146.284    23418149.411
  20407792.643   -23871041.12049 -18578387.71348  20407792.110    20407794.012
  22838737.901   -15391592.34049 -11979795.67046  22838737.091    22838742.150
  24652254.672     -216346.46249   -143986.72945  24652254.050    24652259.009
  23436513.629   -11469865.31749  -8897309.41746  23436513.229    23436518.376
  22978372.663    -8216996.05549  -6382624.17346  22978372.104    22978376.189
  23372274.596   -10606802.54849  -7648483.51046  23372274.091    23372276.836
 03  3 21  3 13  0.0000000  0  8G25G11G14G15G23G 3G31G18
  22920855.724   -13304318.93549 -10095937.35946  22920855.542    22920859.903
  23400712.959   -11453389.61449  -8906649.26046  23400712.564    23400715.632
  20413753.127   -23839718.40549 -18553980.38748  20413752.593    20413754.509
  22857616.303   -15292385.91949 -11902491.99946  22857615.492    22857620.532
  24664367.649     -152692.43149    -94386.20645  24664367.024    24664371.988
  23451837.885   -11389335.83149  -8834559.21146  23451837.490    23451842.574
  22988643.548    -8163022.70149  -6340567.05346  22988642.944    22988647.042
  23385366.751   -10538002.81749  -7594873.33646  23385366.257    23385368.968
 03  3 21  3 13 30.0000000  0  8G25G11G14G15G23G 3G31G18
  22903182.455   -13397192.31549 -10168306.15746  22903182.267    22903186.615
  23383318.046   -11544800.15949  -8977878.18646  23383317.666    23383320.740
  20419792.377   -23807981.81849 -18529250.56348  20419791.852    20419793.760
  22876544.966   -15192915.23249 -11824982.41246  22876544.188    22876549.195
  24676489.599      -88991.58949    -44749.20645  24676488.972    24676493.873
  23467191.361   -11308652.86249  -8771689.42246  23467191.022    23467196.067
  22998988.140    -8108661.80649  -6298207.95646  22998987.532    22998991.611
  23398476.828   -10469108.86149  -7541189.73746  23398476.362    23398479.060
 03  3 21  3 14  0.0000000  0  8G25G11G14G15G23G 3G31G18
  22885543.552   -13489885.19249 -10240534.30146  22885543.338    22885547.691
  23365962.570   -11636003.62649  -9048945.76246  23365962.181    23365965.205
  20425910.221   -23775832.28149 -18504198.96248  20425909.697    20425911.622
  22895523.816   -15093180.98349 -11747267.44446  22895523.039    22895528.052
  24688620.619      -25242.73049      4925.20145  24688620.054    24688624.879
  23482573.726   -11227818.35049  -8708701.55246  23482573.372    23482578.413
  23009406.086    -8053915.19749  -6255548.31846  23009405.450    23009409.582
  23411605.004   -10400119.56949  -7487431.85546  23411604.534    23411607.256
 03  3 21  3 14 30.0000000  0  8G25G11G14G15G23G 3G31G18
  22867939.663   -13582394.02449 -10312619.03346  22867939.455    22867943.813
  23348647.011   -11726997.30849  -9119849.88546  23348646.628    23348649.600
  20432106.333   -23743271.40549 -18478826.84148  20432105.798    20432107.754
  22914552.482   -14993184.74749 -11669348.33946  22914551.706    22914556.711
  24700760.964       38554.78249     54637.53445  24700760.329    24700765.159
  23497984.367   -11146835.08649  -8645597.77546  23497984.004    23497989.038
  23019896.995    -7998785.05849  -6212589.80846  23019896.417    23019900.575
  23424751.445   -10331034.59149  -7433599.41046  23424751.003    23424753.692
 03  3 21  3 15  0.0000000  0  8G25G11G14G15G23G 3G31G18
  22850371.027   -13674717.71649 -10384559.49646  22850370.788    22850375.156
  23331371.484   -11817780.56149  -9190590.01046  23331371.058    23331374.073
  20438380.120   -23710302.37949 -18453136.67948  20438379.584    20438381.539
  22933630.375   -14892929.93549 -11591227.74646  22933629.599    22933634.643
  24712910.285      102399.94649    104387.00045  24712909.729    24712914.486
  23513422.411   -11065707.62949  -8582381.63146  23513422.086    23513427.122
  23030460.064    -7943275.60049  -6169335.72046  23030459.515    23030463.738
  23437915.806   -10261855.39149  -7379693.55746  23437915.329    23437918.148
 03  3 21  3 15 30.0000000  0  8G25G11G14G15G23G 3G31G18
  22832838.059   -13766853.56749 -10456353.58646  22832837.845    22832842.209
  23314136.437   -11908350.98649  -9261164.31446  23314136.079    23314139.025
  20444731.182   -23676927.25649 -18427130.07548  20444730.648    20444732.601
  22952757.147   -14792418.25549 -11512906.99546  22952756.407    22952761.429
  24725068.832      166293.14749    154173.88445  24725068.172    24725073.020
  23528887.434   -10984438.85649  -8519055.38246  23528887.090    23528892.123
  23041094.803    -7887389.58649  -6125788.22546  23041094.233    23041098.574
  23451098.124   -10192581.83749  -7325714.18646  23451097.572    23451100.441
 03  3 21  3 16  0.0000000  0  8G25G11G14G15G23G 3G31G18
  22815341.719   -13858797.11749 -10527997.82946  22815341.548    22815345.908
  23296942.730   -11998704.21449  -9331569.37146  23296942.412    23296945.299
  20451159.577   -23643145.67849 -18400806.75548  20451159.047    20451160.990
  22971932.895   -14691649.11049 -11434385.60546  22971932.142    22971937.154
  24737236.880      230236.65749    203999.99645  24737236.178    24737241.076
  23544379.155   -10903029.65349  -8455619.69646  23544378.825    23544383.808
  23051801.147    -7831127.48349  -6081947.67546  23051800.560    23051804.943
  23464298.757   -10123212.13249  -7271659.89046  23464298.214    23464301.096
 03  3 21  3 16 30.0000000  0  8G25G11G14G15G23G 3G31G18
  22797882.296   -13950546.76749 -10599490.99646  22797882.145    22797886.474
  23279790.515   -12088839.63449  -9401804.69646  23279790.167    23279793.049
  20457664.597   -23608961.24249 -18374169.52548  20457664.074    20457666.041
  22991156.938   -14590626.24549 -11355666.53146  22991156.134    22991161.224
  24749414.229      294229.08649    253864.21045  24749413.597    24749418.501
  23559896.771   -10821484.40449  -8392078.00346  23559896.443    23559901.369
  23062578.219    -7774493.71849  -6037817.50546  23062577.620    23062582.068
  23477517.393   -10053747.71649  -7217531.79546  23477516.844    23477519.728
 03  3 21  3 17  0.0000000  0  8G25G11G14G15G23G 3G31G18
  22780460.186   -14042100.18049 -10670831.24046  22780460.006    22780464.364
  23262680.170   -12178754.95949  -9471868.53446  23262679.792    23262682.680
  20464245.900   -23574376.30249 -18347220.20848  20464245.368    20464247.330
  23010428.780   -14489351.99649 -11276751.55546  23010427.962    23010433.105
  24761600.941      358270.56249    303766.64945  24761600.381    24761605.089
  23575439.635   -10739806.37349  -8328432.83446  23575439.293    23575444.235
  23073425.471    -7717491.45449  -5993400.19646  23073424.830    23073429.298
  23490754.037    -9984188.89549  -7163330.13546  23490753.470    23490756.319
 03  3 21  3 17 30.0000000  0  8G25G11G14G15G23G 3G31G18
  22763076.222   -14133453.34249 -10742015.44746  22763076.051    22763080.349
  23245612.392   -12268446.72249  -9541758.16346  23245612.028    23245614.836
  20470903.306   -23539391.29949 -18319959.15548  20470902.779    20470904.732
  23029748.421   -14387826.74549 -11197641.00446  23029747.617    23029752.793
  24773797.311      422362.96949    353708.77345  24773796.708    24773801.503
  23591007.398   -10657997.40049  -8264685.63546  23591007.025    23591011.985
  23084342.509    -7660121.91249  -5948696.70446  23084341.942    23084346.357
  23504008.872    -9914534.45449  -7109053.96346  23504008.264    23504011.131
 03  3 21  3 18  0.0000000  0  8G25G11G14G15G23G 3G31G18
  22745730.659   -14224604.77749 -10813042.46346  22745730.459    22745734.700
  23228587.279   -12357914.03149  -9611472.88646  23228586.914    23228589.641
  20477636.212   -23504009.55049 -18292388.95248  20477635.668    20477637.658
  23049115.157   -14286053.93749 -11118337.54946  23049114.330    23049119.545
  24786003.134      486505.05549    403689.60245  24786002.508    24786007.295
  23606599.218   -10576062.10349  -8200839.99246  23606598.851    23606603.828
  23095328.655    -7602389.35349  -5903710.33846  23095328.077    23095332.508
  23517281.584    -9844785.90249  -7054704.46345  23517280.995    23517283.891
 03  3 21  3 18 30.0000000  0  8G25G11G14G15G23G 3G31G18
  22728424.132   -14315550.84849 -10883909.45046  22728423.940    22728428.175
  23211605.624   -12447153.08749  -9681009.76446  23211605.260    23211607.954
  20484444.511   -23468231.57049 -18264509.99348  20484443.994    20484445.971
  23068528.958   -14184033.83949 -11038841.40746  23068528.150    23068533.344
  24798218.751      550698.48049    453710.44645  24798218.101    24798222.955
  23622214.825   -10494001.86749  -8136897.00146  23622214.480    23622219.429
  23106383.642    -7544295.16449  -5858442.18146  23106383.054    23106387.560
  23530572.494    -9774941.47749  -7000280.25945  23530571.944    23530574.856
 03  3 21  3 19  0.0000000  0  8G25G11G14G15G23G 3G31G18
  22711157.233   -14406288.53349 -10954614.05346  22711157.023    22711161.240
  23194667.774   -12536161.77249  -9750367.13546  23194667.396    23194670.086
  20491327.868   -23432059.38949 -18236323.86648  20491327.339    20491329.291
  23087989.442   -14081768.33849 -10959154.04346  23087988.648    23087993.839
  24810444.212      614943.59049    503771.54245  24810443.528    24810448.414
  23637853.577   -10411819.99949  -8072859.23946  23637853.195    23637858.173
  23117506.962    -7485842.00949  -5812894.30646  23117506.373    23117510.863
  23543881.689    -9705001.26949  -6945781.42745  23543881.150    23543884.001
 03  3 21  3 19 30.0000000  0  7G25G11G14G15G 3G31G18
  22693930.484   -14496815.40549 -11025154.39446  22693930.269    22693934.476
  23177774.132   -12624938.06649  -9819543.40346  23177773.771    23177776.455
  20498285.784   -23395495.24049 -18207832.30748  20498285.232    20498287.210
  23107496.199   -13979259.68549 -10879277.20746  23107495.394    23107500.631
  23653514.890   -10329519.46149  -8008728.99046  23653514.533    23653519.523
  23128697.919    -7427033.20149  -5767069.31646  23128697.335    23128701.827
  23557209.043    -9634965.73249  -6891208.30745  23557208.494    23557211.365
 03  3 21  3 20  0.0000000  0  7G25G11G14G15G 3G31G18
  22676744.389   -14587128.59849 -11095528.23946  22676744.147    22676748.363
  23160925.298   -12713479.19049  -9888536.44646  23160924.945    23160927.603
  20505317.938   -23358540.90349 -18179036.71148  20505317.394    20505319.382
  23127048.962   -13876509.34149 -10799212.03346  23127048.157    23127053.374
  23669198.251   -10247102.97849  -7944508.41945  23669197.895    23669202.951
  23139956.107    -7367871.11249  -5720969.04046  23139955.532    23139959.988
  23570554.598    -9564834.54649  -6836560.65645  23570554.074    23570556.896
 03  3 21  3 20 30.0000000  0  7G25G11G14G15G 3G31G18
  22659599.557   -14677224.90149 -11165733.07646  22659599.326    22659603.528
  23144121.630   -12801782.69349  -9957344.32046  23144121.308    23144123.958
  20512424.034   -23321197.93149 -18149938.28348  20512423.495    20512425.500
  23146647.378   -13773519.13349 -10718959.95846  23146646.530    23146651.798
  23684903.173   -10164573.06749  -7880199.44545  23684902.853    23684907.899
  23151281.077    -7308358.24549  -5674595.42846  23151280.502    23151284.910
  23583918.376    -9494607.35249  -6781838.19245  23583917.874    23583920.720
 03  3 21  3 21  0.0000000  0  7G25G11G14G15G 3G31G18
  22642496.067   -14767103.96349 -11235768.62746  22642495.856    22642500.018
  23127363.203   -12889848.61849 -10025967.06046  23127362.870    23127365.529
  20519603.258   -23283470.77449 -18120540.49048  20519602.725    20519604.719
  23166290.581   -13670293.52249 -10638524.45046  23166289.751    23166295.022
  23700628.668   -10081935.41149  -7815806.52345  23700628.287    23700633.381
  23162671.771    -7248499.83349  -5627952.54846  23162671.186    23162675.651
  23597299.914    -9424286.86049  -6727043.02845  23597299.369    23597302.251
 03  3 21  3 21 30.0000000  0  7G25G11G14G15G 3G31G18
  22625435.139   -14856759.44349 -11305629.96346  22625434.937    22625439.050
  23110651.240   -12977670.53349 -10094399.66846  23110650.869    23110653.479
  20526855.975   -23245357.35949 -18090841.71648  20526855.454    20526857.435
  23185978.998   -13566830.29449 -10557903.79746  23185978.231    23185983.484
  23716374.862    -9999188.83249  -7751328.70845  23716374.436    23716379.632
  23174128.485    -7188294.79549  -5581039.56246  23174127.895    23174132.361
  23610700.022    -9353868.91749  -6672171.93345  23610699.433    23610702.414
 03  3 21  3 22  0.0000000  0  7G25G11G14G15G 3G31G18
  22608416.242   -14946194.02849 -11375319.17346  22608416.020    22608420.103
  23093985.037   -13065251.75349 -10162644.72546  23093984.647    23093987.292
  20534180.798   -23206865.19149 -18060847.81548  20534180.273    20534182.251
  23205711.228   -13463136.79549 -10477103.71046  23205710.491    23205715.790
  23732140.135    -9916341.74149  -7686772.59045  23732139.701    23732145.007
  23185649.540    -7127751.43049  -5533862.94746  23185648.969    23185653.383
  23624117.685    -9283358.99449  -6617229.15845  23624117.083    23624120.100
 03  3 21  3 22 30.0000000  0  7G25G11G14G15G 3G31G18
  22591441.064   -15035399.19249 -11444829.60946  22591440.821    22591444.886
  23077366.191   -13152584.25349 -10230695.97446  23077365.852    23077368.482
  20541578.382   -23167990.54749 -18030555.87548  20541577.862    20541579.831
  23225488.040   -13359209.21549 -10396121.22946  23225487.310    23225492.597
  23747925.121    -9833391.25049  -7622135.90045  23747924.704    23747929.998
  23197235.516    -7066866.77649  -5486420.39946  23197234.968    23197239.362
  23637553.945    -9212751.18249  -6562210.11145  23637553.362    23637556.317
